<?xml version="1.0" encoding="UTF-8" standalone="no" ?>
<gpx xmlns="http://www.topografix.com/GPX/1/1" xmlns:xsi="http://www.w3.org/2001/XMLSchema-instance" xsi:schemaLocation="http://www.topografix.com/GPX/1/1 http://www.topografix.com/GPX/1/1/gpx.xsd" version="1.1" creator="VisuGPX - https://www.visugpx.com">
  <metadata>
    <name>ballade le long des canaux</name>
    <desc><![CDATA[parcours tres roulant avec quelques passages en foret , fait avec 90 km/h de vent ]]></desc>
  </metadata>
  <trk>
    <name><![CDATA[171230090901 on GPSies.com]]></name>
    <trkseg>
      <trkpt lat="50.67832" lon="3.06312">
        <ele>350</ele>
        <time>2017-12-30T09:09:10Z</time>
      </trkpt>
      <trkpt lat="50.67829" lon="3.06299">
        <ele>351</ele>
        <time>2017-12-30T09:09:14Z</time>
      </trkpt>
      <trkpt lat="50.6782" lon="3.06276">
        <ele>353</ele>
        <time>2017-12-30T09:09:18Z</time>
      </trkpt>
      <trkpt lat="50.67813" lon="3.06249">
        <ele>352</ele>
        <time>2017-12-30T09:09:22Z</time>
      </trkpt>
      <trkpt lat="50.67806" lon="3.06221">
        <ele>351</ele>
        <time>2017-12-30T09:09:26Z</time>
      </trkpt>
      <trkpt lat="50.67798" lon="3.06192">
        <ele>352</ele>
        <time>2017-12-30T09:09:30Z</time>
      </trkpt>
      <trkpt lat="50.6779" lon="3.06161">
        <ele>352</ele>
        <time>2017-12-30T09:09:34Z</time>
      </trkpt>
      <trkpt lat="50.67782" lon="3.06131">
        <ele>352</ele>
        <time>2017-12-30T09:09:38Z</time>
      </trkpt>
      <trkpt lat="50.67774" lon="3.06101">
        <ele>352</ele>
        <time>2017-12-30T09:09:42Z</time>
      </trkpt>
      <trkpt lat="50.67766" lon="3.06071">
        <ele>352</ele>
        <time>2017-12-30T09:09:46Z</time>
      </trkpt>
      <trkpt lat="50.67758" lon="3.06041">
        <ele>352</ele>
        <time>2017-12-30T09:09:50Z</time>
      </trkpt>
      <trkpt lat="50.67743" lon="3.06033">
        <ele>349</ele>
        <time>2017-12-30T09:09:54Z</time>
      </trkpt>
      <trkpt lat="50.67723" lon="3.06043">
        <ele>349</ele>
        <time>2017-12-30T09:09:58Z</time>
      </trkpt>
      <trkpt lat="50.67702" lon="3.06052">
        <ele>349</ele>
        <time>2017-12-30T09:10:02Z</time>
      </trkpt>
      <trkpt lat="50.67682" lon="3.06061">
        <ele>348</ele>
        <time>2017-12-30T09:10:06Z</time>
      </trkpt>
      <trkpt lat="50.6766" lon="3.06071">
        <ele>348</ele>
        <time>2017-12-30T09:10:10Z</time>
      </trkpt>
      <trkpt lat="50.67638" lon="3.06079">
        <ele>348</ele>
        <time>2017-12-30T09:10:14Z</time>
      </trkpt>
      <trkpt lat="50.67615" lon="3.06088">
        <ele>348</ele>
        <time>2017-12-30T09:10:18Z</time>
      </trkpt>
      <trkpt lat="50.67592" lon="3.06094">
        <ele>348</ele>
        <time>2017-12-30T09:10:22Z</time>
      </trkpt>
      <trkpt lat="50.67572" lon="3.06097">
        <ele>348</ele>
        <time>2017-12-30T09:10:26Z</time>
      </trkpt>
      <trkpt lat="50.67557" lon="3.06105">
        <ele>347</ele>
        <time>2017-12-30T09:10:30Z</time>
      </trkpt>
      <trkpt lat="50.67551" lon="3.06092">
        <ele>348</ele>
        <time>2017-12-30T09:10:34Z</time>
      </trkpt>
      <trkpt lat="50.67564" lon="3.06081">
        <ele>349</ele>
        <time>2017-12-30T09:10:38Z</time>
      </trkpt>
      <trkpt lat="50.67584" lon="3.06074">
        <ele>349</ele>
        <time>2017-12-30T09:10:42Z</time>
      </trkpt>
      <trkpt lat="50.67605" lon="3.06065">
        <ele>348</ele>
        <time>2017-12-30T09:10:46Z</time>
      </trkpt>
      <trkpt lat="50.67627" lon="3.06056">
        <ele>349</ele>
        <time>2017-12-30T09:10:50Z</time>
      </trkpt>
      <trkpt lat="50.67648" lon="3.06045">
        <ele>348</ele>
        <time>2017-12-30T09:10:54Z</time>
      </trkpt>
      <trkpt lat="50.67669" lon="3.06035">
        <ele>347</ele>
        <time>2017-12-30T09:10:58Z</time>
      </trkpt>
      <trkpt lat="50.67693" lon="3.06026">
        <ele>347</ele>
        <time>2017-12-30T09:11:02Z</time>
      </trkpt>
      <trkpt lat="50.67717" lon="3.06017">
        <ele>348</ele>
        <time>2017-12-30T09:11:06Z</time>
      </trkpt>
      <trkpt lat="50.67741" lon="3.06011">
        <ele>347</ele>
        <time>2017-12-30T09:11:10Z</time>
      </trkpt>
      <trkpt lat="50.67766" lon="3.06005">
        <ele>347</ele>
        <time>2017-12-30T09:11:14Z</time>
      </trkpt>
      <trkpt lat="50.67791" lon="3.05996">
        <ele>347</ele>
        <time>2017-12-30T09:11:18Z</time>
      </trkpt>
      <trkpt lat="50.67816" lon="3.05988">
        <ele>347</ele>
        <time>2017-12-30T09:11:22Z</time>
      </trkpt>
      <trkpt lat="50.67841" lon="3.05978">
        <ele>349</ele>
        <time>2017-12-30T09:11:26Z</time>
      </trkpt>
      <trkpt lat="50.67863" lon="3.05974">
        <ele>347</ele>
        <time>2017-12-30T09:11:30Z</time>
      </trkpt>
      <trkpt lat="50.67883" lon="3.05976">
        <ele>347</ele>
        <time>2017-12-30T09:11:34Z</time>
      </trkpt>
      <trkpt lat="50.67906" lon="3.05976">
        <ele>347</ele>
        <time>2017-12-30T09:11:38Z</time>
      </trkpt>
      <trkpt lat="50.6793" lon="3.05975">
        <ele>346</ele>
        <time>2017-12-30T09:11:42Z</time>
      </trkpt>
      <trkpt lat="50.67955" lon="3.05976">
        <ele>347</ele>
        <time>2017-12-30T09:11:46Z</time>
      </trkpt>
      <trkpt lat="50.6798" lon="3.05978">
        <ele>347</ele>
        <time>2017-12-30T09:11:50Z</time>
      </trkpt>
      <trkpt lat="50.68005" lon="3.05981">
        <ele>347</ele>
        <time>2017-12-30T09:11:54Z</time>
      </trkpt>
      <trkpt lat="50.6803" lon="3.05987">
        <ele>348</ele>
        <time>2017-12-30T09:11:58Z</time>
      </trkpt>
      <trkpt lat="50.68055" lon="3.05992">
        <ele>347</ele>
        <time>2017-12-30T09:12:02Z</time>
      </trkpt>
      <trkpt lat="50.68079" lon="3.0599">
        <ele>349</ele>
        <time>2017-12-30T09:12:06Z</time>
      </trkpt>
      <trkpt lat="50.68103" lon="3.05996">
        <ele>349</ele>
        <time>2017-12-30T09:12:10Z</time>
      </trkpt>
      <trkpt lat="50.68128" lon="3.06">
        <ele>348</ele>
        <time>2017-12-30T09:12:14Z</time>
      </trkpt>
      <trkpt lat="50.68154" lon="3.06003">
        <ele>349</ele>
        <time>2017-12-30T09:12:18Z</time>
      </trkpt>
      <trkpt lat="50.6818" lon="3.06002">
        <ele>349</ele>
        <time>2017-12-30T09:12:22Z</time>
      </trkpt>
      <trkpt lat="50.68205" lon="3.06003">
        <ele>349</ele>
        <time>2017-12-30T09:12:26Z</time>
      </trkpt>
      <trkpt lat="50.68231" lon="3.06">
        <ele>349</ele>
        <time>2017-12-30T09:12:30Z</time>
      </trkpt>
      <trkpt lat="50.68256" lon="3.05994">
        <ele>349</ele>
        <time>2017-12-30T09:12:34Z</time>
      </trkpt>
      <trkpt lat="50.68279" lon="3.05989">
        <ele>349</ele>
        <time>2017-12-30T09:12:38Z</time>
      </trkpt>
      <trkpt lat="50.68303" lon="3.05984">
        <ele>349</ele>
        <time>2017-12-30T09:12:42Z</time>
      </trkpt>
      <trkpt lat="50.68326" lon="3.05974">
        <ele>348</ele>
        <time>2017-12-30T09:12:46Z</time>
      </trkpt>
      <trkpt lat="50.68349" lon="3.05963">
        <ele>348</ele>
        <time>2017-12-30T09:12:50Z</time>
      </trkpt>
      <trkpt lat="50.68372" lon="3.05952">
        <ele>349</ele>
        <time>2017-12-30T09:12:54Z</time>
      </trkpt>
      <trkpt lat="50.68394" lon="3.05939">
        <ele>349</ele>
        <time>2017-12-30T09:12:58Z</time>
      </trkpt>
      <trkpt lat="50.68417" lon="3.05922">
        <ele>348</ele>
        <time>2017-12-30T09:13:02Z</time>
      </trkpt>
      <trkpt lat="50.68438" lon="3.059">
        <ele>348</ele>
        <time>2017-12-30T09:13:06Z</time>
      </trkpt>
      <trkpt lat="50.6846" lon="3.05883">
        <ele>348</ele>
        <time>2017-12-30T09:13:10Z</time>
      </trkpt>
      <trkpt lat="50.68481" lon="3.05866">
        <ele>348</ele>
        <time>2017-12-30T09:13:14Z</time>
      </trkpt>
      <trkpt lat="50.68504" lon="3.05849">
        <ele>348</ele>
        <time>2017-12-30T09:13:18Z</time>
      </trkpt>
      <trkpt lat="50.68525" lon="3.05832">
        <ele>348</ele>
        <time>2017-12-30T09:13:22Z</time>
      </trkpt>
      <trkpt lat="50.68546" lon="3.05816">
        <ele>347</ele>
        <time>2017-12-30T09:13:26Z</time>
      </trkpt>
      <trkpt lat="50.68569" lon="3.05804">
        <ele>348</ele>
        <time>2017-12-30T09:13:30Z</time>
      </trkpt>
      <trkpt lat="50.68588" lon="3.05784">
        <ele>347</ele>
        <time>2017-12-30T09:13:34Z</time>
      </trkpt>
      <trkpt lat="50.68608" lon="3.05762">
        <ele>347</ele>
        <time>2017-12-30T09:13:38Z</time>
      </trkpt>
      <trkpt lat="50.68626" lon="3.05739">
        <ele>347</ele>
        <time>2017-12-30T09:13:42Z</time>
      </trkpt>
      <trkpt lat="50.68641" lon="3.05711">
        <ele>348</ele>
        <time>2017-12-30T09:13:46Z</time>
      </trkpt>
      <trkpt lat="50.68653" lon="3.05681">
        <ele>349</ele>
        <time>2017-12-30T09:13:50Z</time>
      </trkpt>
      <trkpt lat="50.68666" lon="3.05652">
        <ele>348</ele>
        <time>2017-12-30T09:13:54Z</time>
      </trkpt>
      <trkpt lat="50.68682" lon="3.05624">
        <ele>349</ele>
        <time>2017-12-30T09:13:58Z</time>
      </trkpt>
      <trkpt lat="50.68698" lon="3.05598">
        <ele>348</ele>
        <time>2017-12-30T09:14:02Z</time>
      </trkpt>
      <trkpt lat="50.68714" lon="3.05574">
        <ele>347</ele>
        <time>2017-12-30T09:14:06Z</time>
      </trkpt>
      <trkpt lat="50.6873" lon="3.05549">
        <ele>345</ele>
        <time>2017-12-30T09:14:10Z</time>
      </trkpt>
      <trkpt lat="50.68747" lon="3.05526">
        <ele>348</ele>
        <time>2017-12-30T09:14:14Z</time>
      </trkpt>
      <trkpt lat="50.68764" lon="3.05504">
        <ele>347</ele>
        <time>2017-12-30T09:14:18Z</time>
      </trkpt>
      <trkpt lat="50.68781" lon="3.05482">
        <ele>348</ele>
        <time>2017-12-30T09:14:22Z</time>
      </trkpt>
      <trkpt lat="50.68799" lon="3.05462">
        <ele>347</ele>
        <time>2017-12-30T09:14:26Z</time>
      </trkpt>
      <trkpt lat="50.68817" lon="3.0545">
        <ele>348</ele>
        <time>2017-12-30T09:14:30Z</time>
      </trkpt>
      <trkpt lat="50.68834" lon="3.05431">
        <ele>348</ele>
        <time>2017-12-30T09:14:34Z</time>
      </trkpt>
      <trkpt lat="50.68851" lon="3.05408">
        <ele>348</ele>
        <time>2017-12-30T09:14:38Z</time>
      </trkpt>
      <trkpt lat="50.68869" lon="3.05385">
        <ele>348</ele>
        <time>2017-12-30T09:14:42Z</time>
      </trkpt>
      <trkpt lat="50.68887" lon="3.05364">
        <ele>348</ele>
        <time>2017-12-30T09:14:46Z</time>
      </trkpt>
      <trkpt lat="50.68906" lon="3.05345">
        <ele>348</ele>
        <time>2017-12-30T09:14:50Z</time>
      </trkpt>
      <trkpt lat="50.68927" lon="3.05337">
        <ele>348</ele>
        <time>2017-12-30T09:14:54Z</time>
      </trkpt>
      <trkpt lat="50.68947" lon="3.05319">
        <ele>348</ele>
        <time>2017-12-30T09:14:58Z</time>
      </trkpt>
      <trkpt lat="50.68966" lon="3.05298">
        <ele>347</ele>
        <time>2017-12-30T09:15:02Z</time>
      </trkpt>
      <trkpt lat="50.68985" lon="3.05278">
        <ele>348</ele>
        <time>2017-12-30T09:15:06Z</time>
      </trkpt>
      <trkpt lat="50.69005" lon="3.05255">
        <ele>347</ele>
        <time>2017-12-30T09:15:10Z</time>
      </trkpt>
      <trkpt lat="50.69024" lon="3.05233">
        <ele>347</ele>
        <time>2017-12-30T09:15:14Z</time>
      </trkpt>
      <trkpt lat="50.69043" lon="3.0521">
        <ele>347</ele>
        <time>2017-12-30T09:15:18Z</time>
      </trkpt>
      <trkpt lat="50.69062" lon="3.05186">
        <ele>347</ele>
        <time>2017-12-30T09:15:22Z</time>
      </trkpt>
      <trkpt lat="50.69082" lon="3.05163">
        <ele>347</ele>
        <time>2017-12-30T09:15:26Z</time>
      </trkpt>
      <trkpt lat="50.69103" lon="3.05142">
        <ele>347</ele>
        <time>2017-12-30T09:15:30Z</time>
      </trkpt>
      <trkpt lat="50.69124" lon="3.05121">
        <ele>348</ele>
        <time>2017-12-30T09:15:34Z</time>
      </trkpt>
      <trkpt lat="50.69144" lon="3.051">
        <ele>348</ele>
        <time>2017-12-30T09:15:38Z</time>
      </trkpt>
      <trkpt lat="50.69161" lon="3.05075">
        <ele>348</ele>
        <time>2017-12-30T09:15:42Z</time>
      </trkpt>
      <trkpt lat="50.69176" lon="3.05048">
        <ele>348</ele>
        <time>2017-12-30T09:15:46Z</time>
      </trkpt>
      <trkpt lat="50.69191" lon="3.0502">
        <ele>348</ele>
        <time>2017-12-30T09:15:50Z</time>
      </trkpt>
      <trkpt lat="50.69206" lon="3.04991">
        <ele>347</ele>
        <time>2017-12-30T09:15:54Z</time>
      </trkpt>
      <trkpt lat="50.6922" lon="3.04962">
        <ele>347</ele>
        <time>2017-12-30T09:15:58Z</time>
      </trkpt>
      <trkpt lat="50.69231" lon="3.0493">
        <ele>348</ele>
        <time>2017-12-30T09:16:02Z</time>
      </trkpt>
      <trkpt lat="50.69237" lon="3.04897">
        <ele>349</ele>
        <time>2017-12-30T09:16:06Z</time>
      </trkpt>
      <trkpt lat="50.69244" lon="3.04864">
        <ele>349</ele>
        <time>2017-12-30T09:16:10Z</time>
      </trkpt>
      <trkpt lat="50.69252" lon="3.0483">
        <ele>349</ele>
        <time>2017-12-30T09:16:14Z</time>
      </trkpt>
      <trkpt lat="50.69261" lon="3.04797">
        <ele>349</ele>
        <time>2017-12-30T09:16:18Z</time>
      </trkpt>
      <trkpt lat="50.69269" lon="3.04762">
        <ele>349</ele>
        <time>2017-12-30T09:16:22Z</time>
      </trkpt>
      <trkpt lat="50.69277" lon="3.04728">
        <ele>350</ele>
        <time>2017-12-30T09:16:26Z</time>
      </trkpt>
      <trkpt lat="50.69278" lon="3.0469">
        <ele>349</ele>
        <time>2017-12-30T09:16:30Z</time>
      </trkpt>
      <trkpt lat="50.69276" lon="3.04654">
        <ele>347</ele>
        <time>2017-12-30T09:16:34Z</time>
      </trkpt>
      <trkpt lat="50.69275" lon="3.04619">
        <ele>348</ele>
        <time>2017-12-30T09:16:38Z</time>
      </trkpt>
      <trkpt lat="50.69284" lon="3.04596">
        <ele>348</ele>
        <time>2017-12-30T09:16:42Z</time>
      </trkpt>
      <trkpt lat="50.69294" lon="3.04583">
        <ele>348</ele>
        <time>2017-12-30T09:16:46Z</time>
      </trkpt>
      <trkpt lat="50.69294" lon="3.04558">
        <ele>349</ele>
        <time>2017-12-30T09:16:50Z</time>
      </trkpt>
      <trkpt lat="50.69296" lon="3.0453">
        <ele>350</ele>
        <time>2017-12-30T09:16:54Z</time>
      </trkpt>
      <trkpt lat="50.69298" lon="3.04503">
        <ele>350</ele>
        <time>2017-12-30T09:16:58Z</time>
      </trkpt>
      <trkpt lat="50.69286" lon="3.04477">
        <ele>349</ele>
        <time>2017-12-30T09:17:02Z</time>
      </trkpt>
      <trkpt lat="50.69281" lon="3.04443">
        <ele>349</ele>
        <time>2017-12-30T09:17:06Z</time>
      </trkpt>
      <trkpt lat="50.69285" lon="3.04407">
        <ele>349</ele>
        <time>2017-12-30T09:17:10Z</time>
      </trkpt>
      <trkpt lat="50.69288" lon="3.04372">
        <ele>349</ele>
        <time>2017-12-30T09:17:14Z</time>
      </trkpt>
      <trkpt lat="50.69291" lon="3.04338">
        <ele>349</ele>
        <time>2017-12-30T09:17:18Z</time>
      </trkpt>
      <trkpt lat="50.69294" lon="3.04304">
        <ele>348</ele>
        <time>2017-12-30T09:17:22Z</time>
      </trkpt>
      <trkpt lat="50.69298" lon="3.0427">
        <ele>348</ele>
        <time>2017-12-30T09:17:26Z</time>
      </trkpt>
      <trkpt lat="50.69301" lon="3.04236">
        <ele>349</ele>
        <time>2017-12-30T09:17:30Z</time>
      </trkpt>
      <trkpt lat="50.69305" lon="3.04202">
        <ele>348</ele>
        <time>2017-12-30T09:17:34Z</time>
      </trkpt>
      <trkpt lat="50.69308" lon="3.04168">
        <ele>349</ele>
        <time>2017-12-30T09:17:38Z</time>
      </trkpt>
      <trkpt lat="50.69312" lon="3.04134">
        <ele>348</ele>
        <time>2017-12-30T09:17:42Z</time>
      </trkpt>
      <trkpt lat="50.69317" lon="3.041">
        <ele>348</ele>
        <time>2017-12-30T09:17:46Z</time>
      </trkpt>
      <trkpt lat="50.69322" lon="3.04068">
        <ele>348</ele>
        <time>2017-12-30T09:17:50Z</time>
      </trkpt>
      <trkpt lat="50.69327" lon="3.04033">
        <ele>348</ele>
        <time>2017-12-30T09:17:54Z</time>
      </trkpt>
      <trkpt lat="50.69333" lon="3.03998">
        <ele>348</ele>
        <time>2017-12-30T09:17:58Z</time>
      </trkpt>
      <trkpt lat="50.69338" lon="3.03963">
        <ele>349</ele>
        <time>2017-12-30T09:18:02Z</time>
      </trkpt>
      <trkpt lat="50.69344" lon="3.03928">
        <ele>349</ele>
        <time>2017-12-30T09:18:06Z</time>
      </trkpt>
      <trkpt lat="50.6935" lon="3.03893">
        <ele>349</ele>
        <time>2017-12-30T09:18:10Z</time>
      </trkpt>
      <trkpt lat="50.69357" lon="3.03859">
        <ele>347</ele>
        <time>2017-12-30T09:18:14Z</time>
      </trkpt>
      <trkpt lat="50.69363" lon="3.03826">
        <ele>348</ele>
        <time>2017-12-30T09:18:18Z</time>
      </trkpt>
      <trkpt lat="50.6937" lon="3.03793">
        <ele>348</ele>
        <time>2017-12-30T09:18:22Z</time>
      </trkpt>
      <trkpt lat="50.69377" lon="3.03761">
        <ele>348</ele>
        <time>2017-12-30T09:18:26Z</time>
      </trkpt>
      <trkpt lat="50.69384" lon="3.03731">
        <ele>348</ele>
        <time>2017-12-30T09:18:30Z</time>
      </trkpt>
      <trkpt lat="50.6939" lon="3.03699">
        <ele>347</ele>
        <time>2017-12-30T09:18:34Z</time>
      </trkpt>
      <trkpt lat="50.69396" lon="3.03667">
        <ele>349</ele>
        <time>2017-12-30T09:18:38Z</time>
      </trkpt>
      <trkpt lat="50.69404" lon="3.03637">
        <ele>349</ele>
        <time>2017-12-30T09:18:42Z</time>
      </trkpt>
      <trkpt lat="50.69413" lon="3.03605">
        <ele>348</ele>
        <time>2017-12-30T09:18:46Z</time>
      </trkpt>
      <trkpt lat="50.69422" lon="3.03573">
        <ele>348</ele>
        <time>2017-12-30T09:18:50Z</time>
      </trkpt>
      <trkpt lat="50.6943" lon="3.03541">
        <ele>348</ele>
        <time>2017-12-30T09:18:54Z</time>
      </trkpt>
      <trkpt lat="50.69439" lon="3.0351">
        <ele>347</ele>
        <time>2017-12-30T09:18:58Z</time>
      </trkpt>
      <trkpt lat="50.69447" lon="3.0348">
        <ele>348</ele>
        <time>2017-12-30T09:19:02Z</time>
      </trkpt>
      <trkpt lat="50.69457" lon="3.0345">
        <ele>349</ele>
        <time>2017-12-30T09:19:06Z</time>
      </trkpt>
      <trkpt lat="50.69466" lon="3.03421">
        <ele>347</ele>
        <time>2017-12-30T09:19:10Z</time>
      </trkpt>
      <trkpt lat="50.69477" lon="3.03391">
        <ele>348</ele>
        <time>2017-12-30T09:19:14Z</time>
      </trkpt>
      <trkpt lat="50.69488" lon="3.03362">
        <ele>348</ele>
        <time>2017-12-30T09:19:18Z</time>
      </trkpt>
      <trkpt lat="50.69499" lon="3.03332">
        <ele>348</ele>
        <time>2017-12-30T09:19:22Z</time>
      </trkpt>
      <trkpt lat="50.69509" lon="3.03303">
        <ele>348</ele>
        <time>2017-12-30T09:19:26Z</time>
      </trkpt>
      <trkpt lat="50.69519" lon="3.03274">
        <ele>348</ele>
        <time>2017-12-30T09:19:30Z</time>
      </trkpt>
      <trkpt lat="50.69528" lon="3.03247">
        <ele>347</ele>
        <time>2017-12-30T09:19:34Z</time>
      </trkpt>
      <trkpt lat="50.69538" lon="3.03221">
        <ele>348</ele>
        <time>2017-12-30T09:19:38Z</time>
      </trkpt>
      <trkpt lat="50.69547" lon="3.03194">
        <ele>348</ele>
        <time>2017-12-30T09:19:42Z</time>
      </trkpt>
      <trkpt lat="50.69556" lon="3.03167">
        <ele>348</ele>
        <time>2017-12-30T09:19:46Z</time>
      </trkpt>
      <trkpt lat="50.69566" lon="3.0314">
        <ele>348</ele>
        <time>2017-12-30T09:19:50Z</time>
      </trkpt>
      <trkpt lat="50.69576" lon="3.03113">
        <ele>349</ele>
        <time>2017-12-30T09:19:54Z</time>
      </trkpt>
      <trkpt lat="50.69586" lon="3.03084">
        <ele>348</ele>
        <time>2017-12-30T09:19:58Z</time>
      </trkpt>
      <trkpt lat="50.69596" lon="3.03056">
        <ele>348</ele>
        <time>2017-12-30T09:20:02Z</time>
      </trkpt>
      <trkpt lat="50.69608" lon="3.03029">
        <ele>347</ele>
        <time>2017-12-30T09:20:06Z</time>
      </trkpt>
      <trkpt lat="50.69621" lon="3.03003">
        <ele>347</ele>
        <time>2017-12-30T09:20:10Z</time>
      </trkpt>
      <trkpt lat="50.69629" lon="3.02975">
        <ele>347</ele>
        <time>2017-12-30T09:20:14Z</time>
      </trkpt>
      <trkpt lat="50.69638" lon="3.02946">
        <ele>347</ele>
        <time>2017-12-30T09:20:18Z</time>
      </trkpt>
      <trkpt lat="50.69646" lon="3.02916">
        <ele>347</ele>
        <time>2017-12-30T09:20:22Z</time>
      </trkpt>
      <trkpt lat="50.69654" lon="3.02886">
        <ele>347</ele>
        <time>2017-12-30T09:20:26Z</time>
      </trkpt>
      <trkpt lat="50.69659" lon="3.02857">
        <ele>347</ele>
        <time>2017-12-30T09:20:30Z</time>
      </trkpt>
      <trkpt lat="50.69666" lon="3.02828">
        <ele>347</ele>
        <time>2017-12-30T09:20:34Z</time>
      </trkpt>
      <trkpt lat="50.69672" lon="3.02797">
        <ele>347</ele>
        <time>2017-12-30T09:20:38Z</time>
      </trkpt>
      <trkpt lat="50.69676" lon="3.02765">
        <ele>347</ele>
        <time>2017-12-30T09:20:42Z</time>
      </trkpt>
      <trkpt lat="50.6968" lon="3.02734">
        <ele>347</ele>
        <time>2017-12-30T09:20:46Z</time>
      </trkpt>
      <trkpt lat="50.69686" lon="3.02702">
        <ele>347</ele>
        <time>2017-12-30T09:20:50Z</time>
      </trkpt>
      <trkpt lat="50.6969" lon="3.02671">
        <ele>348</ele>
        <time>2017-12-30T09:20:54Z</time>
      </trkpt>
      <trkpt lat="50.69694" lon="3.0264">
        <ele>347</ele>
        <time>2017-12-30T09:20:58Z</time>
      </trkpt>
      <trkpt lat="50.69699" lon="3.0261">
        <ele>348</ele>
        <time>2017-12-30T09:21:02Z</time>
      </trkpt>
      <trkpt lat="50.69705" lon="3.02579">
        <ele>348</ele>
        <time>2017-12-30T09:21:06Z</time>
      </trkpt>
      <trkpt lat="50.69712" lon="3.02549">
        <ele>348</ele>
        <time>2017-12-30T09:21:10Z</time>
      </trkpt>
      <trkpt lat="50.69718" lon="3.0252">
        <ele>348</ele>
        <time>2017-12-30T09:21:14Z</time>
      </trkpt>
      <trkpt lat="50.69723" lon="3.0249">
        <ele>349</ele>
        <time>2017-12-30T09:21:18Z</time>
      </trkpt>
      <trkpt lat="50.69729" lon="3.02461">
        <ele>349</ele>
        <time>2017-12-30T09:21:22Z</time>
      </trkpt>
      <trkpt lat="50.69735" lon="3.02432">
        <ele>349</ele>
        <time>2017-12-30T09:21:26Z</time>
      </trkpt>
      <trkpt lat="50.69742" lon="3.02404">
        <ele>348</ele>
        <time>2017-12-30T09:21:30Z</time>
      </trkpt>
      <trkpt lat="50.6975" lon="3.02375">
        <ele>348</ele>
        <time>2017-12-30T09:21:34Z</time>
      </trkpt>
      <trkpt lat="50.69757" lon="3.02345">
        <ele>348</ele>
        <time>2017-12-30T09:21:38Z</time>
      </trkpt>
      <trkpt lat="50.69766" lon="3.02317">
        <ele>348</ele>
        <time>2017-12-30T09:21:42Z</time>
      </trkpt>
      <trkpt lat="50.69775" lon="3.0229">
        <ele>348</ele>
        <time>2017-12-30T09:21:46Z</time>
      </trkpt>
      <trkpt lat="50.69785" lon="3.02262">
        <ele>347</ele>
        <time>2017-12-30T09:21:50Z</time>
      </trkpt>
      <trkpt lat="50.69795" lon="3.02234">
        <ele>347</ele>
        <time>2017-12-30T09:21:54Z</time>
      </trkpt>
      <trkpt lat="50.69807" lon="3.02209">
        <ele>347</ele>
        <time>2017-12-30T09:21:58Z</time>
      </trkpt>
      <trkpt lat="50.69819" lon="3.02183">
        <ele>347</ele>
        <time>2017-12-30T09:22:02Z</time>
      </trkpt>
      <trkpt lat="50.69832" lon="3.02159">
        <ele>347</ele>
        <time>2017-12-30T09:22:06Z</time>
      </trkpt>
      <trkpt lat="50.69844" lon="3.02135">
        <ele>346</ele>
        <time>2017-12-30T09:22:10Z</time>
      </trkpt>
      <trkpt lat="50.69856" lon="3.0211">
        <ele>347</ele>
        <time>2017-12-30T09:22:14Z</time>
      </trkpt>
      <trkpt lat="50.6987" lon="3.02088">
        <ele>346</ele>
        <time>2017-12-30T09:22:18Z</time>
      </trkpt>
      <trkpt lat="50.6989" lon="3.0208">
        <ele>346</ele>
        <time>2017-12-30T09:22:22Z</time>
      </trkpt>
      <trkpt lat="50.6991" lon="3.02084">
        <ele>348</ele>
        <time>2017-12-30T09:22:26Z</time>
      </trkpt>
      <trkpt lat="50.69931" lon="3.02076">
        <ele>346</ele>
        <time>2017-12-30T09:22:30Z</time>
      </trkpt>
      <trkpt lat="50.69949" lon="3.02058">
        <ele>347</ele>
        <time>2017-12-30T09:22:34Z</time>
      </trkpt>
      <trkpt lat="50.69961" lon="3.02036">
        <ele>347</ele>
        <time>2017-12-30T09:22:38Z</time>
      </trkpt>
      <trkpt lat="50.69965" lon="3.02007">
        <ele>347</ele>
        <time>2017-12-30T09:22:42Z</time>
      </trkpt>
      <trkpt lat="50.69977" lon="3.01982">
        <ele>347</ele>
        <time>2017-12-30T09:22:46Z</time>
      </trkpt>
      <trkpt lat="50.69991" lon="3.01959">
        <ele>348</ele>
        <time>2017-12-30T09:22:50Z</time>
      </trkpt>
      <trkpt lat="50.70005" lon="3.01934">
        <ele>348</ele>
        <time>2017-12-30T09:22:54Z</time>
      </trkpt>
      <trkpt lat="50.70019" lon="3.01906">
        <ele>348</ele>
        <time>2017-12-30T09:22:58Z</time>
      </trkpt>
      <trkpt lat="50.70034" lon="3.01879">
        <ele>348</ele>
        <time>2017-12-30T09:23:02Z</time>
      </trkpt>
      <trkpt lat="50.7005" lon="3.01852">
        <ele>348</ele>
        <time>2017-12-30T09:23:06Z</time>
      </trkpt>
      <trkpt lat="50.70068" lon="3.01828">
        <ele>347</ele>
        <time>2017-12-30T09:23:10Z</time>
      </trkpt>
      <trkpt lat="50.70087" lon="3.01807">
        <ele>347</ele>
        <time>2017-12-30T09:23:14Z</time>
      </trkpt>
      <trkpt lat="50.70104" lon="3.01786">
        <ele>348</ele>
        <time>2017-12-30T09:23:18Z</time>
      </trkpt>
      <trkpt lat="50.70122" lon="3.01765">
        <ele>348</ele>
        <time>2017-12-30T09:23:22Z</time>
      </trkpt>
      <trkpt lat="50.7014" lon="3.01743">
        <ele>348</ele>
        <time>2017-12-30T09:23:26Z</time>
      </trkpt>
      <trkpt lat="50.70159" lon="3.01721">
        <ele>347</ele>
        <time>2017-12-30T09:23:30Z</time>
      </trkpt>
      <trkpt lat="50.70178" lon="3.01699">
        <ele>347</ele>
        <time>2017-12-30T09:23:34Z</time>
      </trkpt>
      <trkpt lat="50.70197" lon="3.01676">
        <ele>348</ele>
        <time>2017-12-30T09:23:38Z</time>
      </trkpt>
      <trkpt lat="50.70215" lon="3.01654">
        <ele>348</ele>
        <time>2017-12-30T09:23:42Z</time>
      </trkpt>
      <trkpt lat="50.70233" lon="3.01632">
        <ele>348</ele>
        <time>2017-12-30T09:23:46Z</time>
      </trkpt>
      <trkpt lat="50.70252" lon="3.01611">
        <ele>348</ele>
        <time>2017-12-30T09:23:50Z</time>
      </trkpt>
      <trkpt lat="50.7027" lon="3.01589">
        <ele>347</ele>
        <time>2017-12-30T09:23:54Z</time>
      </trkpt>
      <trkpt lat="50.70288" lon="3.01567">
        <ele>348</ele>
        <time>2017-12-30T09:23:58Z</time>
      </trkpt>
      <trkpt lat="50.70307" lon="3.01544">
        <ele>348</ele>
        <time>2017-12-30T09:24:02Z</time>
      </trkpt>
      <trkpt lat="50.70326" lon="3.01521">
        <ele>348</ele>
        <time>2017-12-30T09:24:06Z</time>
      </trkpt>
      <trkpt lat="50.70344" lon="3.01499">
        <ele>347</ele>
        <time>2017-12-30T09:24:10Z</time>
      </trkpt>
      <trkpt lat="50.70362" lon="3.01477">
        <ele>347</ele>
        <time>2017-12-30T09:24:14Z</time>
      </trkpt>
      <trkpt lat="50.70379" lon="3.01455">
        <ele>347</ele>
        <time>2017-12-30T09:24:18Z</time>
      </trkpt>
      <trkpt lat="50.70398" lon="3.01432">
        <ele>347</ele>
        <time>2017-12-30T09:24:22Z</time>
      </trkpt>
      <trkpt lat="50.70417" lon="3.01413">
        <ele>347</ele>
        <time>2017-12-30T09:24:26Z</time>
      </trkpt>
      <trkpt lat="50.70436" lon="3.01393">
        <ele>347</ele>
        <time>2017-12-30T09:24:30Z</time>
      </trkpt>
      <trkpt lat="50.70451" lon="3.01373">
        <ele>347</ele>
        <time>2017-12-30T09:24:34Z</time>
      </trkpt>
      <trkpt lat="50.70469" lon="3.0135">
        <ele>347</ele>
        <time>2017-12-30T09:24:38Z</time>
      </trkpt>
      <trkpt lat="50.70489" lon="3.0133">
        <ele>347</ele>
        <time>2017-12-30T09:24:42Z</time>
      </trkpt>
      <trkpt lat="50.70505" lon="3.01305">
        <ele>347</ele>
        <time>2017-12-30T09:24:46Z</time>
      </trkpt>
      <trkpt lat="50.70517" lon="3.01273">
        <ele>346</ele>
        <time>2017-12-30T09:24:50Z</time>
      </trkpt>
      <trkpt lat="50.70531" lon="3.01258">
        <ele>346</ele>
        <time>2017-12-30T09:24:54Z</time>
      </trkpt>
      <trkpt lat="50.70548" lon="3.01239">
        <ele>345</ele>
        <time>2017-12-30T09:24:58Z</time>
      </trkpt>
      <trkpt lat="50.70565" lon="3.01216">
        <ele>345</ele>
        <time>2017-12-30T09:25:02Z</time>
      </trkpt>
      <trkpt lat="50.70585" lon="3.01194">
        <ele>345</ele>
        <time>2017-12-30T09:25:06Z</time>
      </trkpt>
      <trkpt lat="50.70605" lon="3.01177">
        <ele>344</ele>
        <time>2017-12-30T09:25:10Z</time>
      </trkpt>
      <trkpt lat="50.70622" lon="3.01161">
        <ele>346</ele>
        <time>2017-12-30T09:25:14Z</time>
      </trkpt>
      <trkpt lat="50.70638" lon="3.01146">
        <ele>345</ele>
        <time>2017-12-30T09:25:18Z</time>
      </trkpt>
      <trkpt lat="50.70656" lon="3.01123">
        <ele>346</ele>
        <time>2017-12-30T09:25:22Z</time>
      </trkpt>
      <trkpt lat="50.70674" lon="3.01102">
        <ele>347</ele>
        <time>2017-12-30T09:25:26Z</time>
      </trkpt>
      <trkpt lat="50.70692" lon="3.01085">
        <ele>346</ele>
        <time>2017-12-30T09:25:30Z</time>
      </trkpt>
      <trkpt lat="50.70712" lon="3.01074">
        <ele>345</ele>
        <time>2017-12-30T09:25:34Z</time>
      </trkpt>
      <trkpt lat="50.70729" lon="3.01049">
        <ele>344</ele>
        <time>2017-12-30T09:25:38Z</time>
      </trkpt>
      <trkpt lat="50.70745" lon="3.0102">
        <ele>344</ele>
        <time>2017-12-30T09:25:42Z</time>
      </trkpt>
      <trkpt lat="50.70761" lon="3.00995">
        <ele>343</ele>
        <time>2017-12-30T09:25:46Z</time>
      </trkpt>
      <trkpt lat="50.70779" lon="3.00975">
        <ele>344</ele>
        <time>2017-12-30T09:25:50Z</time>
      </trkpt>
      <trkpt lat="50.70798" lon="3.00963">
        <ele>343</ele>
        <time>2017-12-30T09:25:54Z</time>
      </trkpt>
      <trkpt lat="50.70817" lon="3.00948">
        <ele>345</ele>
        <time>2017-12-30T09:25:58Z</time>
      </trkpt>
      <trkpt lat="50.70835" lon="3.00928">
        <ele>346</ele>
        <time>2017-12-30T09:26:02Z</time>
      </trkpt>
      <trkpt lat="50.70852" lon="3.00906">
        <ele>344</ele>
        <time>2017-12-30T09:26:06Z</time>
      </trkpt>
      <trkpt lat="50.70867" lon="3.00881">
        <ele>345</ele>
        <time>2017-12-30T09:26:10Z</time>
      </trkpt>
      <trkpt lat="50.70881" lon="3.00855">
        <ele>346</ele>
        <time>2017-12-30T09:26:14Z</time>
      </trkpt>
      <trkpt lat="50.70894" lon="3.00828">
        <ele>345</ele>
        <time>2017-12-30T09:26:18Z</time>
      </trkpt>
      <trkpt lat="50.70906" lon="3.008">
        <ele>345</ele>
        <time>2017-12-30T09:26:22Z</time>
      </trkpt>
      <trkpt lat="50.70919" lon="3.00778">
        <ele>344</ele>
        <time>2017-12-30T09:26:26Z</time>
      </trkpt>
      <trkpt lat="50.70935" lon="3.00759">
        <ele>345</ele>
        <time>2017-12-30T09:26:30Z</time>
      </trkpt>
      <trkpt lat="50.70949" lon="3.00734">
        <ele>345</ele>
        <time>2017-12-30T09:26:34Z</time>
      </trkpt>
      <trkpt lat="50.7096" lon="3.00707">
        <ele>346</ele>
        <time>2017-12-30T09:26:38Z</time>
      </trkpt>
      <trkpt lat="50.70955" lon="3.00683">
        <ele>345</ele>
        <time>2017-12-30T09:26:42Z</time>
      </trkpt>
      <trkpt lat="50.70958" lon="3.00661">
        <ele>345</ele>
        <time>2017-12-30T09:26:46Z</time>
      </trkpt>
      <trkpt lat="50.70972" lon="3.00667">
        <ele>346</ele>
        <time>2017-12-30T09:26:50Z</time>
      </trkpt>
      <trkpt lat="50.70983" lon="3.0065">
        <ele>346</ele>
        <time>2017-12-30T09:26:54Z</time>
      </trkpt>
      <trkpt lat="50.70992" lon="3.00622">
        <ele>346</ele>
        <time>2017-12-30T09:26:58Z</time>
      </trkpt>
      <trkpt lat="50.71001" lon="3.00593">
        <ele>346</ele>
        <time>2017-12-30T09:27:02Z</time>
      </trkpt>
      <trkpt lat="50.71009" lon="3.00565">
        <ele>346</ele>
        <time>2017-12-30T09:27:06Z</time>
      </trkpt>
      <trkpt lat="50.71016" lon="3.00536">
        <ele>346</ele>
        <time>2017-12-30T09:27:10Z</time>
      </trkpt>
      <trkpt lat="50.7101" lon="3.00504">
        <ele>346</ele>
        <time>2017-12-30T09:27:14Z</time>
      </trkpt>
      <trkpt lat="50.71002" lon="3.00473">
        <ele>346</ele>
        <time>2017-12-30T09:27:18Z</time>
      </trkpt>
      <trkpt lat="50.71002" lon="3.00444">
        <ele>345</ele>
        <time>2017-12-30T09:27:22Z</time>
      </trkpt>
      <trkpt lat="50.7101" lon="3.00414">
        <ele>344</ele>
        <time>2017-12-30T09:27:26Z</time>
      </trkpt>
      <trkpt lat="50.71019" lon="3.00383">
        <ele>345</ele>
        <time>2017-12-30T09:27:30Z</time>
      </trkpt>
      <trkpt lat="50.71026" lon="3.00353">
        <ele>346</ele>
        <time>2017-12-30T09:27:34Z</time>
      </trkpt>
      <trkpt lat="50.71032" lon="3.00325">
        <ele>345</ele>
        <time>2017-12-30T09:27:38Z</time>
      </trkpt>
      <trkpt lat="50.7104" lon="3.00306">
        <ele>345</ele>
        <time>2017-12-30T09:27:42Z</time>
      </trkpt>
      <trkpt lat="50.71044" lon="3.00292">
        <ele>344</ele>
        <time>2017-12-30T09:27:46Z</time>
      </trkpt>
      <trkpt lat="50.71052" lon="3.00271">
        <ele>345</ele>
        <time>2017-12-30T09:27:50Z</time>
      </trkpt>
      <trkpt lat="50.71062" lon="3.00247">
        <ele>346</ele>
        <time>2017-12-30T09:27:54Z</time>
      </trkpt>
      <trkpt lat="50.71073" lon="3.00221">
        <ele>346</ele>
        <time>2017-12-30T09:27:58Z</time>
      </trkpt>
      <trkpt lat="50.7108" lon="3.00191">
        <ele>346</ele>
        <time>2017-12-30T09:28:02Z</time>
      </trkpt>
      <trkpt lat="50.71079" lon="3.00161">
        <ele>348</ele>
        <time>2017-12-30T09:28:06Z</time>
      </trkpt>
      <trkpt lat="50.71067" lon="3.00138">
        <ele>348</ele>
        <time>2017-12-30T09:28:10Z</time>
      </trkpt>
      <trkpt lat="50.71063" lon="3.00112">
        <ele>347</ele>
        <time>2017-12-30T09:28:14Z</time>
      </trkpt>
      <trkpt lat="50.71061" lon="3.00082">
        <ele>347</ele>
        <time>2017-12-30T09:28:18Z</time>
      </trkpt>
      <trkpt lat="50.71065" lon="3.00051">
        <ele>347</ele>
        <time>2017-12-30T09:28:22Z</time>
      </trkpt>
      <trkpt lat="50.71069" lon="3.0002">
        <ele>347</ele>
        <time>2017-12-30T09:28:26Z</time>
      </trkpt>
      <trkpt lat="50.71073" lon="2.99988">
        <ele>347</ele>
        <time>2017-12-30T09:28:30Z</time>
      </trkpt>
      <trkpt lat="50.71075" lon="2.9996">
        <ele>347</ele>
        <time>2017-12-30T09:28:34Z</time>
      </trkpt>
      <trkpt lat="50.71081" lon="2.99936">
        <ele>347</ele>
        <time>2017-12-30T09:28:38Z</time>
      </trkpt>
      <trkpt lat="50.71085" lon="2.99913">
        <ele>348</ele>
        <time>2017-12-30T09:28:42Z</time>
      </trkpt>
      <trkpt lat="50.71093" lon="2.99889">
        <ele>349</ele>
        <time>2017-12-30T09:28:46Z</time>
      </trkpt>
      <trkpt lat="50.71103" lon="2.99866">
        <ele>349</ele>
        <time>2017-12-30T09:28:50Z</time>
      </trkpt>
      <trkpt lat="50.71112" lon="2.99843">
        <ele>348</ele>
        <time>2017-12-30T09:28:54Z</time>
      </trkpt>
      <trkpt lat="50.71113" lon="2.99818">
        <ele>348</ele>
        <time>2017-12-30T09:28:58Z</time>
      </trkpt>
      <trkpt lat="50.71104" lon="2.99805">
        <ele>350</ele>
        <time>2017-12-30T09:29:02Z</time>
      </trkpt>
      <trkpt lat="50.71097" lon="2.99798">
        <ele>351</ele>
        <time>2017-12-30T09:29:06Z</time>
      </trkpt>
      <trkpt lat="50.71099" lon="2.99787">
        <ele>350</ele>
        <time>2017-12-30T09:29:10Z</time>
      </trkpt>
      <trkpt lat="50.71103" lon="2.99769">
        <ele>351</ele>
        <time>2017-12-30T09:29:14Z</time>
      </trkpt>
      <trkpt lat="50.71116" lon="2.99745">
        <ele>349</ele>
        <time>2017-12-30T09:29:18Z</time>
      </trkpt>
      <trkpt lat="50.71137" lon="2.9972">
        <ele>347</ele>
        <time>2017-12-30T09:29:22Z</time>
      </trkpt>
      <trkpt lat="50.7115" lon="2.99687">
        <ele>346</ele>
        <time>2017-12-30T09:29:26Z</time>
      </trkpt>
      <trkpt lat="50.71164" lon="2.99658">
        <ele>346</ele>
        <time>2017-12-30T09:29:30Z</time>
      </trkpt>
      <trkpt lat="50.71176" lon="2.9963">
        <ele>345</ele>
        <time>2017-12-30T09:29:34Z</time>
      </trkpt>
      <trkpt lat="50.71189" lon="2.99605">
        <ele>345</ele>
        <time>2017-12-30T09:29:38Z</time>
      </trkpt>
      <trkpt lat="50.71201" lon="2.99581">
        <ele>345</ele>
        <time>2017-12-30T09:29:42Z</time>
      </trkpt>
      <trkpt lat="50.71215" lon="2.99555">
        <ele>345</ele>
        <time>2017-12-30T09:29:46Z</time>
      </trkpt>
      <trkpt lat="50.71229" lon="2.99528">
        <ele>345</ele>
        <time>2017-12-30T09:29:50Z</time>
      </trkpt>
      <trkpt lat="50.71242" lon="2.99501">
        <ele>344</ele>
        <time>2017-12-30T09:29:54Z</time>
      </trkpt>
      <trkpt lat="50.71256" lon="2.99475">
        <ele>343</ele>
        <time>2017-12-30T09:29:58Z</time>
      </trkpt>
      <trkpt lat="50.7127" lon="2.99448">
        <ele>344</ele>
        <time>2017-12-30T09:30:02Z</time>
      </trkpt>
      <trkpt lat="50.71284" lon="2.99421">
        <ele>343</ele>
        <time>2017-12-30T09:30:06Z</time>
      </trkpt>
      <trkpt lat="50.71299" lon="2.99393">
        <ele>344</ele>
        <time>2017-12-30T09:30:10Z</time>
      </trkpt>
      <trkpt lat="50.71313" lon="2.99367">
        <ele>344</ele>
        <time>2017-12-30T09:30:14Z</time>
      </trkpt>
      <trkpt lat="50.71324" lon="2.99345">
        <ele>346</ele>
        <time>2017-12-30T09:30:18Z</time>
      </trkpt>
      <trkpt lat="50.71332" lon="2.99325">
        <ele>347</ele>
        <time>2017-12-30T09:30:22Z</time>
      </trkpt>
      <trkpt lat="50.71342" lon="2.993">
        <ele>346</ele>
        <time>2017-12-30T09:30:26Z</time>
      </trkpt>
      <trkpt lat="50.7135" lon="2.99274">
        <ele>345</ele>
        <time>2017-12-30T09:30:30Z</time>
      </trkpt>
      <trkpt lat="50.71359" lon="2.99245">
        <ele>345</ele>
        <time>2017-12-30T09:30:34Z</time>
      </trkpt>
      <trkpt lat="50.71364" lon="2.99215">
        <ele>345</ele>
        <time>2017-12-30T09:30:38Z</time>
      </trkpt>
      <trkpt lat="50.71368" lon="2.99189">
        <ele>346</ele>
        <time>2017-12-30T09:30:42Z</time>
      </trkpt>
      <trkpt lat="50.71379" lon="2.99177">
        <ele>344</ele>
        <time>2017-12-30T09:30:46Z</time>
      </trkpt>
      <trkpt lat="50.71396" lon="2.99172">
        <ele>345</ele>
        <time>2017-12-30T09:30:50Z</time>
      </trkpt>
      <trkpt lat="50.71407" lon="2.99149">
        <ele>345</ele>
        <time>2017-12-30T09:30:54Z</time>
      </trkpt>
      <trkpt lat="50.71418" lon="2.99122">
        <ele>346</ele>
        <time>2017-12-30T09:30:58Z</time>
      </trkpt>
      <trkpt lat="50.71428" lon="2.99094">
        <ele>345</ele>
        <time>2017-12-30T09:31:02Z</time>
      </trkpt>
      <trkpt lat="50.71439" lon="2.99066">
        <ele>345</ele>
        <time>2017-12-30T09:31:06Z</time>
      </trkpt>
      <trkpt lat="50.7145" lon="2.99036">
        <ele>345</ele>
        <time>2017-12-30T09:31:10Z</time>
      </trkpt>
      <trkpt lat="50.71461" lon="2.99006">
        <ele>345</ele>
        <time>2017-12-30T09:31:14Z</time>
      </trkpt>
      <trkpt lat="50.71472" lon="2.98975">
        <ele>345</ele>
        <time>2017-12-30T09:31:18Z</time>
      </trkpt>
      <trkpt lat="50.71483" lon="2.98945">
        <ele>346</ele>
        <time>2017-12-30T09:31:22Z</time>
      </trkpt>
      <trkpt lat="50.71493" lon="2.98916">
        <ele>345</ele>
        <time>2017-12-30T09:31:26Z</time>
      </trkpt>
      <trkpt lat="50.71503" lon="2.98888">
        <ele>345</ele>
        <time>2017-12-30T09:31:30Z</time>
      </trkpt>
      <trkpt lat="50.71513" lon="2.98859">
        <ele>345</ele>
        <time>2017-12-30T09:31:34Z</time>
      </trkpt>
      <trkpt lat="50.71523" lon="2.98832">
        <ele>344</ele>
        <time>2017-12-30T09:31:38Z</time>
      </trkpt>
      <trkpt lat="50.71531" lon="2.98807">
        <ele>346</ele>
        <time>2017-12-30T09:31:42Z</time>
      </trkpt>
      <trkpt lat="50.71541" lon="2.98779">
        <ele>346</ele>
        <time>2017-12-30T09:31:46Z</time>
      </trkpt>
      <trkpt lat="50.7155" lon="2.98749">
        <ele>345</ele>
        <time>2017-12-30T09:31:50Z</time>
      </trkpt>
      <trkpt lat="50.71558" lon="2.9872">
        <ele>345</ele>
        <time>2017-12-30T09:31:54Z</time>
      </trkpt>
      <trkpt lat="50.71567" lon="2.98691">
        <ele>345</ele>
        <time>2017-12-30T09:31:58Z</time>
      </trkpt>
      <trkpt lat="50.71574" lon="2.9866">
        <ele>345</ele>
        <time>2017-12-30T09:32:02Z</time>
      </trkpt>
      <trkpt lat="50.71581" lon="2.98629">
        <ele>346</ele>
        <time>2017-12-30T09:32:06Z</time>
      </trkpt>
      <trkpt lat="50.71588" lon="2.986">
        <ele>346</ele>
        <time>2017-12-30T09:32:10Z</time>
      </trkpt>
      <trkpt lat="50.71595" lon="2.9857">
        <ele>346</ele>
        <time>2017-12-30T09:32:14Z</time>
      </trkpt>
      <trkpt lat="50.71602" lon="2.9854">
        <ele>345</ele>
        <time>2017-12-30T09:32:18Z</time>
      </trkpt>
      <trkpt lat="50.71608" lon="2.98511">
        <ele>346</ele>
        <time>2017-12-30T09:32:22Z</time>
      </trkpt>
      <trkpt lat="50.71615" lon="2.98482">
        <ele>346</ele>
        <time>2017-12-30T09:32:26Z</time>
      </trkpt>
      <trkpt lat="50.71622" lon="2.98453">
        <ele>346</ele>
        <time>2017-12-30T09:32:30Z</time>
      </trkpt>
      <trkpt lat="50.71629" lon="2.98425">
        <ele>346</ele>
        <time>2017-12-30T09:32:34Z</time>
      </trkpt>
      <trkpt lat="50.71636" lon="2.98398">
        <ele>345</ele>
        <time>2017-12-30T09:32:38Z</time>
      </trkpt>
      <trkpt lat="50.71642" lon="2.98368">
        <ele>345</ele>
        <time>2017-12-30T09:32:42Z</time>
      </trkpt>
      <trkpt lat="50.71649" lon="2.98339">
        <ele>345</ele>
        <time>2017-12-30T09:32:46Z</time>
      </trkpt>
      <trkpt lat="50.71656" lon="2.98311">
        <ele>345</ele>
        <time>2017-12-30T09:32:50Z</time>
      </trkpt>
      <trkpt lat="50.71662" lon="2.98281">
        <ele>345</ele>
        <time>2017-12-30T09:32:54Z</time>
      </trkpt>
      <trkpt lat="50.7167" lon="2.98252">
        <ele>345</ele>
        <time>2017-12-30T09:32:58Z</time>
      </trkpt>
      <trkpt lat="50.71677" lon="2.98224">
        <ele>344</ele>
        <time>2017-12-30T09:33:02Z</time>
      </trkpt>
      <trkpt lat="50.71683" lon="2.98196">
        <ele>345</ele>
        <time>2017-12-30T09:33:06Z</time>
      </trkpt>
      <trkpt lat="50.7169" lon="2.98168">
        <ele>348</ele>
        <time>2017-12-30T09:33:10Z</time>
      </trkpt>
      <trkpt lat="50.71696" lon="2.98141">
        <ele>345</ele>
        <time>2017-12-30T09:33:14Z</time>
      </trkpt>
      <trkpt lat="50.71702" lon="2.98113">
        <ele>345</ele>
        <time>2017-12-30T09:33:18Z</time>
      </trkpt>
      <trkpt lat="50.71709" lon="2.98084">
        <ele>345</ele>
        <time>2017-12-30T09:33:22Z</time>
      </trkpt>
      <trkpt lat="50.71715" lon="2.98056">
        <ele>345</ele>
        <time>2017-12-30T09:33:26Z</time>
      </trkpt>
      <trkpt lat="50.7172" lon="2.98029">
        <ele>346</ele>
        <time>2017-12-30T09:33:30Z</time>
      </trkpt>
      <trkpt lat="50.71725" lon="2.98003">
        <ele>344</ele>
        <time>2017-12-30T09:33:34Z</time>
      </trkpt>
      <trkpt lat="50.71732" lon="2.97975">
        <ele>344</ele>
        <time>2017-12-30T09:33:38Z</time>
      </trkpt>
      <trkpt lat="50.7174" lon="2.97947">
        <ele>345</ele>
        <time>2017-12-30T09:33:42Z</time>
      </trkpt>
      <trkpt lat="50.71747" lon="2.97919">
        <ele>345</ele>
        <time>2017-12-30T09:33:46Z</time>
      </trkpt>
      <trkpt lat="50.71754" lon="2.9789">
        <ele>346</ele>
        <time>2017-12-30T09:33:50Z</time>
      </trkpt>
      <trkpt lat="50.71761" lon="2.9786">
        <ele>346</ele>
        <time>2017-12-30T09:33:54Z</time>
      </trkpt>
      <trkpt lat="50.71768" lon="2.97833">
        <ele>346</ele>
        <time>2017-12-30T09:33:58Z</time>
      </trkpt>
      <trkpt lat="50.71775" lon="2.97805">
        <ele>346</ele>
        <time>2017-12-30T09:34:02Z</time>
      </trkpt>
      <trkpt lat="50.71781" lon="2.97777">
        <ele>347</ele>
        <time>2017-12-30T09:34:06Z</time>
      </trkpt>
      <trkpt lat="50.71788" lon="2.97751">
        <ele>346</ele>
        <time>2017-12-30T09:34:10Z</time>
      </trkpt>
      <trkpt lat="50.71794" lon="2.97723">
        <ele>346</ele>
        <time>2017-12-30T09:34:14Z</time>
      </trkpt>
      <trkpt lat="50.71801" lon="2.97696">
        <ele>348</ele>
        <time>2017-12-30T09:34:18Z</time>
      </trkpt>
      <trkpt lat="50.71807" lon="2.97669">
        <ele>345</ele>
        <time>2017-12-30T09:34:22Z</time>
      </trkpt>
      <trkpt lat="50.71814" lon="2.97642">
        <ele>347</ele>
        <time>2017-12-30T09:34:26Z</time>
      </trkpt>
      <trkpt lat="50.71821" lon="2.97616">
        <ele>348</ele>
        <time>2017-12-30T09:34:30Z</time>
      </trkpt>
      <trkpt lat="50.71828" lon="2.97591">
        <ele>347</ele>
        <time>2017-12-30T09:34:34Z</time>
      </trkpt>
      <trkpt lat="50.71836" lon="2.97565">
        <ele>345</ele>
        <time>2017-12-30T09:34:38Z</time>
      </trkpt>
      <trkpt lat="50.71843" lon="2.97539">
        <ele>346</ele>
        <time>2017-12-30T09:34:42Z</time>
      </trkpt>
      <trkpt lat="50.71852" lon="2.97512">
        <ele>345</ele>
        <time>2017-12-30T09:34:46Z</time>
      </trkpt>
      <trkpt lat="50.7186" lon="2.97485">
        <ele>346</ele>
        <time>2017-12-30T09:34:50Z</time>
      </trkpt>
      <trkpt lat="50.71869" lon="2.97457">
        <ele>348</ele>
        <time>2017-12-30T09:34:54Z</time>
      </trkpt>
      <trkpt lat="50.71877" lon="2.97431">
        <ele>348</ele>
        <time>2017-12-30T09:34:58Z</time>
      </trkpt>
      <trkpt lat="50.71886" lon="2.97406">
        <ele>346</ele>
        <time>2017-12-30T09:35:02Z</time>
      </trkpt>
      <trkpt lat="50.71896" lon="2.97381">
        <ele>346</ele>
        <time>2017-12-30T09:35:06Z</time>
      </trkpt>
      <trkpt lat="50.71906" lon="2.97354">
        <ele>346</ele>
        <time>2017-12-30T09:35:10Z</time>
      </trkpt>
      <trkpt lat="50.71916" lon="2.97329">
        <ele>345</ele>
        <time>2017-12-30T09:35:14Z</time>
      </trkpt>
      <trkpt lat="50.71927" lon="2.97303">
        <ele>346</ele>
        <time>2017-12-30T09:35:18Z</time>
      </trkpt>
      <trkpt lat="50.71938" lon="2.97278">
        <ele>345</ele>
        <time>2017-12-30T09:35:22Z</time>
      </trkpt>
      <trkpt lat="50.71948" lon="2.97252">
        <ele>346</ele>
        <time>2017-12-30T09:35:26Z</time>
      </trkpt>
      <trkpt lat="50.71959" lon="2.97225">
        <ele>347</ele>
        <time>2017-12-30T09:35:30Z</time>
      </trkpt>
      <trkpt lat="50.71971" lon="2.97199">
        <ele>344</ele>
        <time>2017-12-30T09:35:34Z</time>
      </trkpt>
      <trkpt lat="50.71983" lon="2.97175">
        <ele>346</ele>
        <time>2017-12-30T09:35:38Z</time>
      </trkpt>
      <trkpt lat="50.71995" lon="2.97149">
        <ele>345</ele>
        <time>2017-12-30T09:35:42Z</time>
      </trkpt>
      <trkpt lat="50.72008" lon="2.97127">
        <ele>345</ele>
        <time>2017-12-30T09:35:46Z</time>
      </trkpt>
      <trkpt lat="50.7202" lon="2.97102">
        <ele>345</ele>
        <time>2017-12-30T09:35:50Z</time>
      </trkpt>
      <trkpt lat="50.72032" lon="2.97077">
        <ele>345</ele>
        <time>2017-12-30T09:35:54Z</time>
      </trkpt>
      <trkpt lat="50.72044" lon="2.97053">
        <ele>345</ele>
        <time>2017-12-30T09:35:58Z</time>
      </trkpt>
      <trkpt lat="50.72057" lon="2.97028">
        <ele>345</ele>
        <time>2017-12-30T09:36:02Z</time>
      </trkpt>
      <trkpt lat="50.72068" lon="2.97003">
        <ele>346</ele>
        <time>2017-12-30T09:36:06Z</time>
      </trkpt>
      <trkpt lat="50.7208" lon="2.96979">
        <ele>345</ele>
        <time>2017-12-30T09:36:10Z</time>
      </trkpt>
      <trkpt lat="50.72092" lon="2.96954">
        <ele>345</ele>
        <time>2017-12-30T09:36:14Z</time>
      </trkpt>
      <trkpt lat="50.72105" lon="2.96929">
        <ele>345</ele>
        <time>2017-12-30T09:36:18Z</time>
      </trkpt>
      <trkpt lat="50.72117" lon="2.96905">
        <ele>346</ele>
        <time>2017-12-30T09:36:22Z</time>
      </trkpt>
      <trkpt lat="50.72128" lon="2.9688">
        <ele>346</ele>
        <time>2017-12-30T09:36:26Z</time>
      </trkpt>
      <trkpt lat="50.72141" lon="2.96856">
        <ele>346</ele>
        <time>2017-12-30T09:36:30Z</time>
      </trkpt>
      <trkpt lat="50.72152" lon="2.96834">
        <ele>346</ele>
        <time>2017-12-30T09:36:34Z</time>
      </trkpt>
      <trkpt lat="50.7216" lon="2.96813">
        <ele>346</ele>
        <time>2017-12-30T09:36:38Z</time>
      </trkpt>
      <trkpt lat="50.72166" lon="2.96793">
        <ele>348</ele>
        <time>2017-12-30T09:36:42Z</time>
      </trkpt>
      <trkpt lat="50.72179" lon="2.96781">
        <ele>348</ele>
        <time>2017-12-30T09:36:46Z</time>
      </trkpt>
      <trkpt lat="50.72191" lon="2.96761">
        <ele>347</ele>
        <time>2017-12-30T09:36:50Z</time>
      </trkpt>
      <trkpt lat="50.72201" lon="2.96737">
        <ele>346</ele>
        <time>2017-12-30T09:36:54Z</time>
      </trkpt>
      <trkpt lat="50.72212" lon="2.96711">
        <ele>346</ele>
        <time>2017-12-30T09:36:58Z</time>
      </trkpt>
      <trkpt lat="50.72223" lon="2.96684">
        <ele>345</ele>
        <time>2017-12-30T09:37:02Z</time>
      </trkpt>
      <trkpt lat="50.72235" lon="2.96657">
        <ele>345</ele>
        <time>2017-12-30T09:37:06Z</time>
      </trkpt>
      <trkpt lat="50.72244" lon="2.96629">
        <ele>345</ele>
        <time>2017-12-30T09:37:10Z</time>
      </trkpt>
      <trkpt lat="50.72254" lon="2.96601">
        <ele>345</ele>
        <time>2017-12-30T09:37:14Z</time>
      </trkpt>
      <trkpt lat="50.72262" lon="2.96573">
        <ele>345</ele>
        <time>2017-12-30T09:37:18Z</time>
      </trkpt>
      <trkpt lat="50.72271" lon="2.96544">
        <ele>345</ele>
        <time>2017-12-30T09:37:22Z</time>
      </trkpt>
      <trkpt lat="50.72279" lon="2.96516">
        <ele>346</ele>
        <time>2017-12-30T09:37:26Z</time>
      </trkpt>
      <trkpt lat="50.72286" lon="2.96486">
        <ele>345</ele>
        <time>2017-12-30T09:37:30Z</time>
      </trkpt>
      <trkpt lat="50.72292" lon="2.96456">
        <ele>345</ele>
        <time>2017-12-30T09:37:34Z</time>
      </trkpt>
      <trkpt lat="50.72297" lon="2.96426">
        <ele>345</ele>
        <time>2017-12-30T09:37:38Z</time>
      </trkpt>
      <trkpt lat="50.72303" lon="2.96397">
        <ele>345</ele>
        <time>2017-12-30T09:37:42Z</time>
      </trkpt>
      <trkpt lat="50.72309" lon="2.96369">
        <ele>345</ele>
        <time>2017-12-30T09:37:46Z</time>
      </trkpt>
      <trkpt lat="50.72315" lon="2.9634">
        <ele>345</ele>
        <time>2017-12-30T09:37:50Z</time>
      </trkpt>
      <trkpt lat="50.7232" lon="2.96312">
        <ele>345</ele>
        <time>2017-12-30T09:37:54Z</time>
      </trkpt>
      <trkpt lat="50.72324" lon="2.96284">
        <ele>346</ele>
        <time>2017-12-30T09:37:58Z</time>
      </trkpt>
      <trkpt lat="50.72326" lon="2.96256">
        <ele>346</ele>
        <time>2017-12-30T09:38:02Z</time>
      </trkpt>
      <trkpt lat="50.72327" lon="2.96227">
        <ele>346</ele>
        <time>2017-12-30T09:38:06Z</time>
      </trkpt>
      <trkpt lat="50.72326" lon="2.96198">
        <ele>346</ele>
        <time>2017-12-30T09:38:10Z</time>
      </trkpt>
      <trkpt lat="50.72326" lon="2.96168">
        <ele>346</ele>
        <time>2017-12-30T09:38:14Z</time>
      </trkpt>
      <trkpt lat="50.72325" lon="2.9614">
        <ele>346</ele>
        <time>2017-12-30T09:38:18Z</time>
      </trkpt>
      <trkpt lat="50.72325" lon="2.96112">
        <ele>344</ele>
        <time>2017-12-30T09:38:22Z</time>
      </trkpt>
      <trkpt lat="50.72324" lon="2.96084">
        <ele>344</ele>
        <time>2017-12-30T09:38:26Z</time>
      </trkpt>
      <trkpt lat="50.72324" lon="2.96056">
        <ele>346</ele>
        <time>2017-12-30T09:38:30Z</time>
      </trkpt>
      <trkpt lat="50.72323" lon="2.96027">
        <ele>346</ele>
        <time>2017-12-30T09:38:34Z</time>
      </trkpt>
      <trkpt lat="50.72323" lon="2.95999">
        <ele>347</ele>
        <time>2017-12-30T09:38:38Z</time>
      </trkpt>
      <trkpt lat="50.72323" lon="2.95972">
        <ele>347</ele>
        <time>2017-12-30T09:38:42Z</time>
      </trkpt>
      <trkpt lat="50.72322" lon="2.95945">
        <ele>347</ele>
        <time>2017-12-30T09:38:46Z</time>
      </trkpt>
      <trkpt lat="50.72322" lon="2.95917">
        <ele>346</ele>
        <time>2017-12-30T09:38:50Z</time>
      </trkpt>
      <trkpt lat="50.72321" lon="2.95891">
        <ele>346</ele>
        <time>2017-12-30T09:38:54Z</time>
      </trkpt>
      <trkpt lat="50.72321" lon="2.95866">
        <ele>345</ele>
        <time>2017-12-30T09:38:58Z</time>
      </trkpt>
      <trkpt lat="50.72321" lon="2.9584">
        <ele>345</ele>
        <time>2017-12-30T09:39:02Z</time>
      </trkpt>
      <trkpt lat="50.72321" lon="2.95814">
        <ele>345</ele>
        <time>2017-12-30T09:39:06Z</time>
      </trkpt>
      <trkpt lat="50.72321" lon="2.95788">
        <ele>346</ele>
        <time>2017-12-30T09:39:10Z</time>
      </trkpt>
      <trkpt lat="50.7232" lon="2.95762">
        <ele>346</ele>
        <time>2017-12-30T09:39:14Z</time>
      </trkpt>
      <trkpt lat="50.7232" lon="2.95737">
        <ele>345</ele>
        <time>2017-12-30T09:39:18Z</time>
      </trkpt>
      <trkpt lat="50.7232" lon="2.9571">
        <ele>345</ele>
        <time>2017-12-30T09:39:22Z</time>
      </trkpt>
      <trkpt lat="50.72322" lon="2.95683">
        <ele>345</ele>
        <time>2017-12-30T09:39:26Z</time>
      </trkpt>
      <trkpt lat="50.72323" lon="2.95657">
        <ele>346</ele>
        <time>2017-12-30T09:39:30Z</time>
      </trkpt>
      <trkpt lat="50.72326" lon="2.95632">
        <ele>347</ele>
        <time>2017-12-30T09:39:34Z</time>
      </trkpt>
      <trkpt lat="50.72328" lon="2.95607">
        <ele>346</ele>
        <time>2017-12-30T09:39:38Z</time>
      </trkpt>
      <trkpt lat="50.7233" lon="2.95583">
        <ele>345</ele>
        <time>2017-12-30T09:39:42Z</time>
      </trkpt>
      <trkpt lat="50.72334" lon="2.95558">
        <ele>345</ele>
        <time>2017-12-30T09:39:46Z</time>
      </trkpt>
      <trkpt lat="50.72338" lon="2.95532">
        <ele>344</ele>
        <time>2017-12-30T09:39:50Z</time>
      </trkpt>
      <trkpt lat="50.72342" lon="2.95507">
        <ele>343</ele>
        <time>2017-12-30T09:39:54Z</time>
      </trkpt>
      <trkpt lat="50.72347" lon="2.95481">
        <ele>344</ele>
        <time>2017-12-30T09:39:58Z</time>
      </trkpt>
      <trkpt lat="50.72352" lon="2.95456">
        <ele>344</ele>
        <time>2017-12-30T09:40:02Z</time>
      </trkpt>
      <trkpt lat="50.72357" lon="2.95431">
        <ele>343</ele>
        <time>2017-12-30T09:40:06Z</time>
      </trkpt>
      <trkpt lat="50.72363" lon="2.95405">
        <ele>344</ele>
        <time>2017-12-30T09:40:10Z</time>
      </trkpt>
      <trkpt lat="50.7237" lon="2.9538">
        <ele>343</ele>
        <time>2017-12-30T09:40:14Z</time>
      </trkpt>
      <trkpt lat="50.72378" lon="2.95355">
        <ele>343</ele>
        <time>2017-12-30T09:40:18Z</time>
      </trkpt>
      <trkpt lat="50.72386" lon="2.9533">
        <ele>344</ele>
        <time>2017-12-30T09:40:22Z</time>
      </trkpt>
      <trkpt lat="50.72395" lon="2.95306">
        <ele>343</ele>
        <time>2017-12-30T09:40:26Z</time>
      </trkpt>
      <trkpt lat="50.72402" lon="2.95281">
        <ele>343</ele>
        <time>2017-12-30T09:40:30Z</time>
      </trkpt>
      <trkpt lat="50.72412" lon="2.95258">
        <ele>343</ele>
        <time>2017-12-30T09:40:34Z</time>
      </trkpt>
      <trkpt lat="50.72421" lon="2.95236">
        <ele>343</ele>
        <time>2017-12-30T09:40:38Z</time>
      </trkpt>
      <trkpt lat="50.72431" lon="2.95215">
        <ele>343</ele>
        <time>2017-12-30T09:40:42Z</time>
      </trkpt>
      <trkpt lat="50.72441" lon="2.95194">
        <ele>344</ele>
        <time>2017-12-30T09:40:46Z</time>
      </trkpt>
      <trkpt lat="50.72454" lon="2.95179">
        <ele>343</ele>
        <time>2017-12-30T09:40:50Z</time>
      </trkpt>
      <trkpt lat="50.72468" lon="2.95167">
        <ele>344</ele>
        <time>2017-12-30T09:40:54Z</time>
      </trkpt>
      <trkpt lat="50.72481" lon="2.95161">
        <ele>344</ele>
        <time>2017-12-30T09:40:58Z</time>
      </trkpt>
      <trkpt lat="50.72491" lon="2.95153">
        <ele>345</ele>
        <time>2017-12-30T09:41:02Z</time>
      </trkpt>
      <trkpt lat="50.725" lon="2.95142">
        <ele>344</ele>
        <time>2017-12-30T09:41:06Z</time>
      </trkpt>
      <trkpt lat="50.72501" lon="2.9512">
        <ele>345</ele>
        <time>2017-12-30T09:41:10Z</time>
      </trkpt>
      <trkpt lat="50.72507" lon="2.95097">
        <ele>343</ele>
        <time>2017-12-30T09:41:14Z</time>
      </trkpt>
      <trkpt lat="50.72525" lon="2.95085">
        <ele>343</ele>
        <time>2017-12-30T09:41:18Z</time>
      </trkpt>
      <trkpt lat="50.72545" lon="2.95079">
        <ele>343</ele>
        <time>2017-12-30T09:41:22Z</time>
      </trkpt>
      <trkpt lat="50.72566" lon="2.95085">
        <ele>344</ele>
        <time>2017-12-30T09:41:26Z</time>
      </trkpt>
      <trkpt lat="50.72586" lon="2.95093">
        <ele>343</ele>
        <time>2017-12-30T09:41:30Z</time>
      </trkpt>
      <trkpt lat="50.72607" lon="2.95099">
        <ele>343</ele>
        <time>2017-12-30T09:41:34Z</time>
      </trkpt>
      <trkpt lat="50.72627" lon="2.951">
        <ele>345</ele>
        <time>2017-12-30T09:41:38Z</time>
      </trkpt>
      <trkpt lat="50.72646" lon="2.95098">
        <ele>343</ele>
        <time>2017-12-30T09:41:42Z</time>
      </trkpt>
      <trkpt lat="50.72665" lon="2.95096">
        <ele>344</ele>
        <time>2017-12-30T09:41:46Z</time>
      </trkpt>
      <trkpt lat="50.72683" lon="2.95101">
        <ele>344</ele>
        <time>2017-12-30T09:41:50Z</time>
      </trkpt>
      <trkpt lat="50.72698" lon="2.95121">
        <ele>344</ele>
        <time>2017-12-30T09:41:54Z</time>
      </trkpt>
      <trkpt lat="50.72714" lon="2.95121">
        <ele>344</ele>
        <time>2017-12-30T09:41:58Z</time>
      </trkpt>
      <trkpt lat="50.7273" lon="2.95103">
        <ele>343</ele>
        <time>2017-12-30T09:42:02Z</time>
      </trkpt>
      <trkpt lat="50.72746" lon="2.95087">
        <ele>343</ele>
        <time>2017-12-30T09:42:06Z</time>
      </trkpt>
      <trkpt lat="50.72754" lon="2.95071">
        <ele>343</ele>
        <time>2017-12-30T09:42:10Z</time>
      </trkpt>
      <trkpt lat="50.72745" lon="2.95047">
        <ele>343</ele>
        <time>2017-12-30T09:42:14Z</time>
      </trkpt>
      <trkpt lat="50.72735" lon="2.95019">
        <ele>342</ele>
        <time>2017-12-30T09:42:18Z</time>
      </trkpt>
      <trkpt lat="50.72736" lon="2.94989">
        <ele>343</ele>
        <time>2017-12-30T09:42:22Z</time>
      </trkpt>
      <trkpt lat="50.72743" lon="2.9496">
        <ele>342</ele>
        <time>2017-12-30T09:42:26Z</time>
      </trkpt>
      <trkpt lat="50.7275" lon="2.94931">
        <ele>342</ele>
        <time>2017-12-30T09:42:30Z</time>
      </trkpt>
      <trkpt lat="50.72758" lon="2.94901">
        <ele>342</ele>
        <time>2017-12-30T09:42:34Z</time>
      </trkpt>
      <trkpt lat="50.72767" lon="2.94871">
        <ele>341</ele>
        <time>2017-12-30T09:42:38Z</time>
      </trkpt>
      <trkpt lat="50.72779" lon="2.94843">
        <ele>341</ele>
        <time>2017-12-30T09:42:42Z</time>
      </trkpt>
      <trkpt lat="50.72795" lon="2.94821">
        <ele>343</ele>
        <time>2017-12-30T09:42:46Z</time>
      </trkpt>
      <trkpt lat="50.72806" lon="2.94796">
        <ele>343</ele>
        <time>2017-12-30T09:42:50Z</time>
      </trkpt>
      <trkpt lat="50.72819" lon="2.94772">
        <ele>343</ele>
        <time>2017-12-30T09:42:54Z</time>
      </trkpt>
      <trkpt lat="50.72835" lon="2.94755">
        <ele>343</ele>
        <time>2017-12-30T09:42:58Z</time>
      </trkpt>
      <trkpt lat="50.72852" lon="2.9474">
        <ele>344</ele>
        <time>2017-12-30T09:43:02Z</time>
      </trkpt>
      <trkpt lat="50.7287" lon="2.94725">
        <ele>344</ele>
        <time>2017-12-30T09:43:06Z</time>
      </trkpt>
      <trkpt lat="50.72887" lon="2.94709">
        <ele>343</ele>
        <time>2017-12-30T09:43:10Z</time>
      </trkpt>
      <trkpt lat="50.72904" lon="2.94695">
        <ele>344</ele>
        <time>2017-12-30T09:43:14Z</time>
      </trkpt>
      <trkpt lat="50.72922" lon="2.94681">
        <ele>343</ele>
        <time>2017-12-30T09:43:18Z</time>
      </trkpt>
      <trkpt lat="50.72939" lon="2.94665">
        <ele>343</ele>
        <time>2017-12-30T09:43:22Z</time>
      </trkpt>
      <trkpt lat="50.72957" lon="2.9465">
        <ele>343</ele>
        <time>2017-12-30T09:43:26Z</time>
      </trkpt>
      <trkpt lat="50.72975" lon="2.94637">
        <ele>343</ele>
        <time>2017-12-30T09:43:30Z</time>
      </trkpt>
      <trkpt lat="50.72991" lon="2.94621">
        <ele>343</ele>
        <time>2017-12-30T09:43:34Z</time>
      </trkpt>
      <trkpt lat="50.73008" lon="2.94605">
        <ele>342</ele>
        <time>2017-12-30T09:43:38Z</time>
      </trkpt>
      <trkpt lat="50.73026" lon="2.9459">
        <ele>343</ele>
        <time>2017-12-30T09:43:42Z</time>
      </trkpt>
      <trkpt lat="50.73045" lon="2.94576">
        <ele>342</ele>
        <time>2017-12-30T09:43:46Z</time>
      </trkpt>
      <trkpt lat="50.73062" lon="2.9456">
        <ele>342</ele>
        <time>2017-12-30T09:43:50Z</time>
      </trkpt>
      <trkpt lat="50.7308" lon="2.94549">
        <ele>342</ele>
        <time>2017-12-30T09:43:54Z</time>
      </trkpt>
      <trkpt lat="50.731" lon="2.94541">
        <ele>342</ele>
        <time>2017-12-30T09:43:58Z</time>
      </trkpt>
      <trkpt lat="50.73119" lon="2.94539">
        <ele>344</ele>
        <time>2017-12-30T09:44:02Z</time>
      </trkpt>
      <trkpt lat="50.73138" lon="2.94547">
        <ele>344</ele>
        <time>2017-12-30T09:44:06Z</time>
      </trkpt>
      <trkpt lat="50.73158" lon="2.94554">
        <ele>345</ele>
        <time>2017-12-30T09:44:10Z</time>
      </trkpt>
      <trkpt lat="50.73178" lon="2.94562">
        <ele>346</ele>
        <time>2017-12-30T09:44:14Z</time>
      </trkpt>
      <trkpt lat="50.73198" lon="2.94565">
        <ele>344</ele>
        <time>2017-12-30T09:44:18Z</time>
      </trkpt>
      <trkpt lat="50.73217" lon="2.94565">
        <ele>344</ele>
        <time>2017-12-30T09:44:22Z</time>
      </trkpt>
      <trkpt lat="50.73233" lon="2.94556">
        <ele>345</ele>
        <time>2017-12-30T09:44:26Z</time>
      </trkpt>
      <trkpt lat="50.73245" lon="2.94541">
        <ele>345</ele>
        <time>2017-12-30T09:44:30Z</time>
      </trkpt>
      <trkpt lat="50.73262" lon="2.94516">
        <ele>344</ele>
        <time>2017-12-30T09:44:34Z</time>
      </trkpt>
      <trkpt lat="50.73279" lon="2.94493">
        <ele>342</ele>
        <time>2017-12-30T09:44:38Z</time>
      </trkpt>
      <trkpt lat="50.73298" lon="2.94475">
        <ele>340</ele>
        <time>2017-12-30T09:44:42Z</time>
      </trkpt>
      <trkpt lat="50.73316" lon="2.94459">
        <ele>340</ele>
        <time>2017-12-30T09:44:46Z</time>
      </trkpt>
      <trkpt lat="50.73334" lon="2.94445">
        <ele>340</ele>
        <time>2017-12-30T09:44:50Z</time>
      </trkpt>
      <trkpt lat="50.73353" lon="2.94432">
        <ele>341</ele>
        <time>2017-12-30T09:44:54Z</time>
      </trkpt>
      <trkpt lat="50.73371" lon="2.94419">
        <ele>342</ele>
        <time>2017-12-30T09:44:58Z</time>
      </trkpt>
      <trkpt lat="50.73389" lon="2.94409">
        <ele>341</ele>
        <time>2017-12-30T09:45:02Z</time>
      </trkpt>
      <trkpt lat="50.73407" lon="2.94407">
        <ele>343</ele>
        <time>2017-12-30T09:45:06Z</time>
      </trkpt>
      <trkpt lat="50.73423" lon="2.94401">
        <ele>345</ele>
        <time>2017-12-30T09:45:10Z</time>
      </trkpt>
      <trkpt lat="50.73443" lon="2.94396">
        <ele>342</ele>
        <time>2017-12-30T09:45:14Z</time>
      </trkpt>
      <trkpt lat="50.73461" lon="2.94389">
        <ele>342</ele>
        <time>2017-12-30T09:45:18Z</time>
      </trkpt>
      <trkpt lat="50.73478" lon="2.94373">
        <ele>342</ele>
        <time>2017-12-30T09:45:22Z</time>
      </trkpt>
      <trkpt lat="50.73495" lon="2.94362">
        <ele>342</ele>
        <time>2017-12-30T09:45:26Z</time>
      </trkpt>
      <trkpt lat="50.7351" lon="2.94364">
        <ele>342</ele>
        <time>2017-12-30T09:45:30Z</time>
      </trkpt>
      <trkpt lat="50.73513" lon="2.94347">
        <ele>342</ele>
        <time>2017-12-30T09:45:34Z</time>
      </trkpt>
      <trkpt lat="50.73514" lon="2.94322">
        <ele>342</ele>
        <time>2017-12-30T09:45:38Z</time>
      </trkpt>
      <trkpt lat="50.73517" lon="2.94303">
        <ele>342</ele>
        <time>2017-12-30T09:45:42Z</time>
      </trkpt>
      <trkpt lat="50.73521" lon="2.94281">
        <ele>342</ele>
        <time>2017-12-30T09:45:46Z</time>
      </trkpt>
      <trkpt lat="50.7353" lon="2.94255">
        <ele>342</ele>
        <time>2017-12-30T09:45:50Z</time>
      </trkpt>
      <trkpt lat="50.73543" lon="2.9423">
        <ele>342</ele>
        <time>2017-12-30T09:45:54Z</time>
      </trkpt>
      <trkpt lat="50.73559" lon="2.94212">
        <ele>343</ele>
        <time>2017-12-30T09:45:58Z</time>
      </trkpt>
      <trkpt lat="50.73573" lon="2.94189">
        <ele>343</ele>
        <time>2017-12-30T09:46:02Z</time>
      </trkpt>
      <trkpt lat="50.7358" lon="2.94165">
        <ele>343</ele>
        <time>2017-12-30T09:46:06Z</time>
      </trkpt>
      <trkpt lat="50.73589" lon="2.94139">
        <ele>343</ele>
        <time>2017-12-30T09:46:10Z</time>
      </trkpt>
      <trkpt lat="50.73602" lon="2.94117">
        <ele>343</ele>
        <time>2017-12-30T09:46:14Z</time>
      </trkpt>
      <trkpt lat="50.73617" lon="2.94097">
        <ele>345</ele>
        <time>2017-12-30T09:46:18Z</time>
      </trkpt>
      <trkpt lat="50.73634" lon="2.94082">
        <ele>344</ele>
        <time>2017-12-30T09:46:22Z</time>
      </trkpt>
      <trkpt lat="50.73653" lon="2.94072">
        <ele>343</ele>
        <time>2017-12-30T09:46:26Z</time>
      </trkpt>
      <trkpt lat="50.73671" lon="2.9406">
        <ele>342</ele>
        <time>2017-12-30T09:46:30Z</time>
      </trkpt>
      <trkpt lat="50.73691" lon="2.94048">
        <ele>343</ele>
        <time>2017-12-30T09:46:34Z</time>
      </trkpt>
      <trkpt lat="50.7371" lon="2.94037">
        <ele>344</ele>
        <time>2017-12-30T09:46:38Z</time>
      </trkpt>
      <trkpt lat="50.7373" lon="2.94026">
        <ele>342</ele>
        <time>2017-12-30T09:46:42Z</time>
      </trkpt>
      <trkpt lat="50.7375" lon="2.94016">
        <ele>345</ele>
        <time>2017-12-30T09:46:46Z</time>
      </trkpt>
      <trkpt lat="50.7377" lon="2.94006">
        <ele>343</ele>
        <time>2017-12-30T09:46:50Z</time>
      </trkpt>
      <trkpt lat="50.7379" lon="2.93997">
        <ele>344</ele>
        <time>2017-12-30T09:46:54Z</time>
      </trkpt>
      <trkpt lat="50.73812" lon="2.93991">
        <ele>345</ele>
        <time>2017-12-30T09:46:58Z</time>
      </trkpt>
      <trkpt lat="50.73834" lon="2.93985">
        <ele>348</ele>
        <time>2017-12-30T09:47:02Z</time>
      </trkpt>
      <trkpt lat="50.73857" lon="2.93979">
        <ele>345</ele>
        <time>2017-12-30T09:47:06Z</time>
      </trkpt>
      <trkpt lat="50.73879" lon="2.93973">
        <ele>343</ele>
        <time>2017-12-30T09:47:10Z</time>
      </trkpt>
      <trkpt lat="50.73901" lon="2.93966">
        <ele>343</ele>
        <time>2017-12-30T09:47:14Z</time>
      </trkpt>
      <trkpt lat="50.73923" lon="2.93964">
        <ele>344</ele>
        <time>2017-12-30T09:47:18Z</time>
      </trkpt>
      <trkpt lat="50.73946" lon="2.93962">
        <ele>344</ele>
        <time>2017-12-30T09:47:22Z</time>
      </trkpt>
      <trkpt lat="50.73969" lon="2.93959">
        <ele>344</ele>
        <time>2017-12-30T09:47:26Z</time>
      </trkpt>
      <trkpt lat="50.73993" lon="2.93957">
        <ele>344</ele>
        <time>2017-12-30T09:47:30Z</time>
      </trkpt>
      <trkpt lat="50.74017" lon="2.93957">
        <ele>345</ele>
        <time>2017-12-30T09:47:34Z</time>
      </trkpt>
      <trkpt lat="50.74042" lon="2.93957">
        <ele>343</ele>
        <time>2017-12-30T09:47:38Z</time>
      </trkpt>
      <trkpt lat="50.74068" lon="2.93958">
        <ele>343</ele>
        <time>2017-12-30T09:47:42Z</time>
      </trkpt>
      <trkpt lat="50.74093" lon="2.93961">
        <ele>343</ele>
        <time>2017-12-30T09:47:46Z</time>
      </trkpt>
      <trkpt lat="50.74119" lon="2.93966">
        <ele>343</ele>
        <time>2017-12-30T09:47:50Z</time>
      </trkpt>
      <trkpt lat="50.74145" lon="2.9397">
        <ele>342</ele>
        <time>2017-12-30T09:47:54Z</time>
      </trkpt>
      <trkpt lat="50.7417" lon="2.93975">
        <ele>343</ele>
        <time>2017-12-30T09:47:58Z</time>
      </trkpt>
      <trkpt lat="50.74195" lon="2.93982">
        <ele>345</ele>
        <time>2017-12-30T09:48:02Z</time>
      </trkpt>
      <trkpt lat="50.7422" lon="2.9399">
        <ele>343</ele>
        <time>2017-12-30T09:48:06Z</time>
      </trkpt>
      <trkpt lat="50.74244" lon="2.94">
        <ele>337</ele>
        <time>2017-12-30T09:48:10Z</time>
      </trkpt>
      <trkpt lat="50.74268" lon="2.94008">
        <ele>340</ele>
        <time>2017-12-30T09:48:14Z</time>
      </trkpt>
      <trkpt lat="50.74291" lon="2.94018">
        <ele>343</ele>
        <time>2017-12-30T09:48:18Z</time>
      </trkpt>
      <trkpt lat="50.74315" lon="2.94029">
        <ele>344</ele>
        <time>2017-12-30T09:48:22Z</time>
      </trkpt>
      <trkpt lat="50.74338" lon="2.94042">
        <ele>344</ele>
        <time>2017-12-30T09:48:26Z</time>
      </trkpt>
      <trkpt lat="50.74362" lon="2.94056">
        <ele>345</ele>
        <time>2017-12-30T09:48:30Z</time>
      </trkpt>
      <trkpt lat="50.74386" lon="2.94072">
        <ele>344</ele>
        <time>2017-12-30T09:48:34Z</time>
      </trkpt>
      <trkpt lat="50.74409" lon="2.94087">
        <ele>343</ele>
        <time>2017-12-30T09:48:38Z</time>
      </trkpt>
      <trkpt lat="50.74433" lon="2.94105">
        <ele>343</ele>
        <time>2017-12-30T09:48:42Z</time>
      </trkpt>
      <trkpt lat="50.74456" lon="2.94123">
        <ele>344</ele>
        <time>2017-12-30T09:48:46Z</time>
      </trkpt>
      <trkpt lat="50.74479" lon="2.94141">
        <ele>344</ele>
        <time>2017-12-30T09:48:50Z</time>
      </trkpt>
      <trkpt lat="50.74501" lon="2.94162">
        <ele>344</ele>
        <time>2017-12-30T09:48:54Z</time>
      </trkpt>
      <trkpt lat="50.74522" lon="2.94182">
        <ele>343</ele>
        <time>2017-12-30T09:48:58Z</time>
      </trkpt>
      <trkpt lat="50.74545" lon="2.94205">
        <ele>345</ele>
        <time>2017-12-30T09:49:02Z</time>
      </trkpt>
      <trkpt lat="50.74565" lon="2.94227">
        <ele>343</ele>
        <time>2017-12-30T09:49:06Z</time>
      </trkpt>
      <trkpt lat="50.74586" lon="2.9425">
        <ele>343</ele>
        <time>2017-12-30T09:49:10Z</time>
      </trkpt>
      <trkpt lat="50.74607" lon="2.94274">
        <ele>344</ele>
        <time>2017-12-30T09:49:14Z</time>
      </trkpt>
      <trkpt lat="50.74626" lon="2.94297">
        <ele>343</ele>
        <time>2017-12-30T09:49:18Z</time>
      </trkpt>
      <trkpt lat="50.74646" lon="2.94322">
        <ele>343</ele>
        <time>2017-12-30T09:49:22Z</time>
      </trkpt>
      <trkpt lat="50.74665" lon="2.9435">
        <ele>343</ele>
        <time>2017-12-30T09:49:26Z</time>
      </trkpt>
      <trkpt lat="50.74684" lon="2.9438">
        <ele>343</ele>
        <time>2017-12-30T09:49:30Z</time>
      </trkpt>
      <trkpt lat="50.747" lon="2.94414">
        <ele>343</ele>
        <time>2017-12-30T09:49:34Z</time>
      </trkpt>
      <trkpt lat="50.74715" lon="2.9445">
        <ele>342</ele>
        <time>2017-12-30T09:49:38Z</time>
      </trkpt>
      <trkpt lat="50.74729" lon="2.94487">
        <ele>343</ele>
        <time>2017-12-30T09:49:42Z</time>
      </trkpt>
      <trkpt lat="50.74743" lon="2.94524">
        <ele>343</ele>
        <time>2017-12-30T09:49:46Z</time>
      </trkpt>
      <trkpt lat="50.74759" lon="2.94558">
        <ele>343</ele>
        <time>2017-12-30T09:49:50Z</time>
      </trkpt>
      <trkpt lat="50.74776" lon="2.94591">
        <ele>342</ele>
        <time>2017-12-30T09:49:54Z</time>
      </trkpt>
      <trkpt lat="50.74794" lon="2.94624">
        <ele>343</ele>
        <time>2017-12-30T09:49:58Z</time>
      </trkpt>
      <trkpt lat="50.74811" lon="2.94656">
        <ele>343</ele>
        <time>2017-12-30T09:50:02Z</time>
      </trkpt>
      <trkpt lat="50.74829" lon="2.94687">
        <ele>343</ele>
        <time>2017-12-30T09:50:06Z</time>
      </trkpt>
      <trkpt lat="50.74848" lon="2.9472">
        <ele>343</ele>
        <time>2017-12-30T09:50:10Z</time>
      </trkpt>
      <trkpt lat="50.74863" lon="2.94754">
        <ele>343</ele>
        <time>2017-12-30T09:50:14Z</time>
      </trkpt>
      <trkpt lat="50.74878" lon="2.94789">
        <ele>343</ele>
        <time>2017-12-30T09:50:18Z</time>
      </trkpt>
      <trkpt lat="50.74889" lon="2.94827">
        <ele>342</ele>
        <time>2017-12-30T09:50:22Z</time>
      </trkpt>
      <trkpt lat="50.74899" lon="2.94866">
        <ele>342</ele>
        <time>2017-12-30T09:50:26Z</time>
      </trkpt>
      <trkpt lat="50.74909" lon="2.94904">
        <ele>343</ele>
        <time>2017-12-30T09:50:30Z</time>
      </trkpt>
      <trkpt lat="50.7492" lon="2.94943">
        <ele>342</ele>
        <time>2017-12-30T09:50:34Z</time>
      </trkpt>
      <trkpt lat="50.74928" lon="2.94982">
        <ele>342</ele>
        <time>2017-12-30T09:50:38Z</time>
      </trkpt>
      <trkpt lat="50.74936" lon="2.95022">
        <ele>342</ele>
        <time>2017-12-30T09:50:42Z</time>
      </trkpt>
      <trkpt lat="50.74944" lon="2.95064">
        <ele>342</ele>
        <time>2017-12-30T09:50:46Z</time>
      </trkpt>
      <trkpt lat="50.7495" lon="2.95105">
        <ele>343</ele>
        <time>2017-12-30T09:50:50Z</time>
      </trkpt>
      <trkpt lat="50.74956" lon="2.95146">
        <ele>343</ele>
        <time>2017-12-30T09:50:54Z</time>
      </trkpt>
      <trkpt lat="50.74963" lon="2.95189">
        <ele>343</ele>
        <time>2017-12-30T09:50:58Z</time>
      </trkpt>
      <trkpt lat="50.7497" lon="2.95232">
        <ele>343</ele>
        <time>2017-12-30T09:51:02Z</time>
      </trkpt>
      <trkpt lat="50.74976" lon="2.95274">
        <ele>344</ele>
        <time>2017-12-30T09:51:06Z</time>
      </trkpt>
      <trkpt lat="50.74983" lon="2.95315">
        <ele>344</ele>
        <time>2017-12-30T09:51:10Z</time>
      </trkpt>
      <trkpt lat="50.74989" lon="2.95355">
        <ele>344</ele>
        <time>2017-12-30T09:51:14Z</time>
      </trkpt>
      <trkpt lat="50.74995" lon="2.95395">
        <ele>344</ele>
        <time>2017-12-30T09:51:18Z</time>
      </trkpt>
      <trkpt lat="50.75001" lon="2.95434">
        <ele>343</ele>
        <time>2017-12-30T09:51:22Z</time>
      </trkpt>
      <trkpt lat="50.75007" lon="2.95474">
        <ele>343</ele>
        <time>2017-12-30T09:51:26Z</time>
      </trkpt>
      <trkpt lat="50.75013" lon="2.95515">
        <ele>342</ele>
        <time>2017-12-30T09:51:30Z</time>
      </trkpt>
      <trkpt lat="50.75018" lon="2.95555">
        <ele>343</ele>
        <time>2017-12-30T09:51:34Z</time>
      </trkpt>
      <trkpt lat="50.75024" lon="2.95595">
        <ele>342</ele>
        <time>2017-12-30T09:51:38Z</time>
      </trkpt>
      <trkpt lat="50.7503" lon="2.95636">
        <ele>342</ele>
        <time>2017-12-30T09:51:42Z</time>
      </trkpt>
      <trkpt lat="50.75036" lon="2.95679">
        <ele>342</ele>
        <time>2017-12-30T09:51:46Z</time>
      </trkpt>
      <trkpt lat="50.75043" lon="2.95721">
        <ele>342</ele>
        <time>2017-12-30T09:51:50Z</time>
      </trkpt>
      <trkpt lat="50.75049" lon="2.95763">
        <ele>342</ele>
        <time>2017-12-30T09:51:54Z</time>
      </trkpt>
      <trkpt lat="50.75056" lon="2.95805">
        <ele>342</ele>
        <time>2017-12-30T09:51:58Z</time>
      </trkpt>
      <trkpt lat="50.75062" lon="2.95847">
        <ele>342</ele>
        <time>2017-12-30T09:52:02Z</time>
      </trkpt>
      <trkpt lat="50.75069" lon="2.9589">
        <ele>341</ele>
        <time>2017-12-30T09:52:06Z</time>
      </trkpt>
      <trkpt lat="50.75075" lon="2.95931">
        <ele>341</ele>
        <time>2017-12-30T09:52:10Z</time>
      </trkpt>
      <trkpt lat="50.75081" lon="2.95972">
        <ele>342</ele>
        <time>2017-12-30T09:52:14Z</time>
      </trkpt>
      <trkpt lat="50.75088" lon="2.96013">
        <ele>342</ele>
        <time>2017-12-30T09:52:18Z</time>
      </trkpt>
      <trkpt lat="50.75095" lon="2.96056">
        <ele>342</ele>
        <time>2017-12-30T09:52:22Z</time>
      </trkpt>
      <trkpt lat="50.75101" lon="2.96098">
        <ele>341</ele>
        <time>2017-12-30T09:52:26Z</time>
      </trkpt>
      <trkpt lat="50.75107" lon="2.9614">
        <ele>341</ele>
        <time>2017-12-30T09:52:30Z</time>
      </trkpt>
      <trkpt lat="50.75114" lon="2.96182">
        <ele>341</ele>
        <time>2017-12-30T09:52:34Z</time>
      </trkpt>
      <trkpt lat="50.7512" lon="2.96224">
        <ele>341</ele>
        <time>2017-12-30T09:52:38Z</time>
      </trkpt>
      <trkpt lat="50.75126" lon="2.96266">
        <ele>341</ele>
        <time>2017-12-30T09:52:42Z</time>
      </trkpt>
      <trkpt lat="50.75133" lon="2.96308">
        <ele>341</ele>
        <time>2017-12-30T09:52:46Z</time>
      </trkpt>
      <trkpt lat="50.75139" lon="2.96347">
        <ele>341</ele>
        <time>2017-12-30T09:52:50Z</time>
      </trkpt>
      <trkpt lat="50.75145" lon="2.96385">
        <ele>341</ele>
        <time>2017-12-30T09:52:54Z</time>
      </trkpt>
      <trkpt lat="50.75138" lon="2.96411">
        <ele>342</ele>
        <time>2017-12-30T09:52:58Z</time>
      </trkpt>
      <trkpt lat="50.75135" lon="2.96434">
        <ele>344</ele>
        <time>2017-12-30T09:53:02Z</time>
      </trkpt>
      <trkpt lat="50.75129" lon="2.96455">
        <ele>346</ele>
        <time>2017-12-30T09:53:06Z</time>
      </trkpt>
      <trkpt lat="50.7512" lon="2.96479">
        <ele>345</ele>
        <time>2017-12-30T09:53:10Z</time>
      </trkpt>
      <trkpt lat="50.75117" lon="2.96504">
        <ele>345</ele>
        <time>2017-12-30T09:53:14Z</time>
      </trkpt>
      <trkpt lat="50.75111" lon="2.9653">
        <ele>346</ele>
        <time>2017-12-30T09:53:18Z</time>
      </trkpt>
      <trkpt lat="50.75101" lon="2.96555">
        <ele>346</ele>
        <time>2017-12-30T09:53:22Z</time>
      </trkpt>
      <trkpt lat="50.75095" lon="2.9658">
        <ele>346</ele>
        <time>2017-12-30T09:53:26Z</time>
      </trkpt>
      <trkpt lat="50.75092" lon="2.9661">
        <ele>347</ele>
        <time>2017-12-30T09:53:30Z</time>
      </trkpt>
      <trkpt lat="50.75085" lon="2.96641">
        <ele>347</ele>
        <time>2017-12-30T09:53:34Z</time>
      </trkpt>
      <trkpt lat="50.75075" lon="2.96666">
        <ele>346</ele>
        <time>2017-12-30T09:53:38Z</time>
      </trkpt>
      <trkpt lat="50.7506" lon="2.96688">
        <ele>346</ele>
        <time>2017-12-30T09:53:42Z</time>
      </trkpt>
      <trkpt lat="50.75041" lon="2.96713">
        <ele>346</ele>
        <time>2017-12-30T09:53:46Z</time>
      </trkpt>
      <trkpt lat="50.75028" lon="2.96743">
        <ele>345</ele>
        <time>2017-12-30T09:53:50Z</time>
      </trkpt>
      <trkpt lat="50.75023" lon="2.96783">
        <ele>346</ele>
        <time>2017-12-30T09:53:54Z</time>
      </trkpt>
      <trkpt lat="50.75023" lon="2.96821">
        <ele>346</ele>
        <time>2017-12-30T09:53:58Z</time>
      </trkpt>
      <trkpt lat="50.75024" lon="2.96857">
        <ele>346</ele>
        <time>2017-12-30T09:54:02Z</time>
      </trkpt>
      <trkpt lat="50.75026" lon="2.96893">
        <ele>346</ele>
        <time>2017-12-30T09:54:06Z</time>
      </trkpt>
      <trkpt lat="50.75029" lon="2.96932">
        <ele>347</ele>
        <time>2017-12-30T09:54:10Z</time>
      </trkpt>
      <trkpt lat="50.75034" lon="2.96967">
        <ele>347</ele>
        <time>2017-12-30T09:54:14Z</time>
      </trkpt>
      <trkpt lat="50.75039" lon="2.97003">
        <ele>347</ele>
        <time>2017-12-30T09:54:18Z</time>
      </trkpt>
      <trkpt lat="50.75045" lon="2.97039">
        <ele>347</ele>
        <time>2017-12-30T09:54:22Z</time>
      </trkpt>
      <trkpt lat="50.75052" lon="2.97074">
        <ele>346</ele>
        <time>2017-12-30T09:54:26Z</time>
      </trkpt>
      <trkpt lat="50.75057" lon="2.97109">
        <ele>347</ele>
        <time>2017-12-30T09:54:30Z</time>
      </trkpt>
      <trkpt lat="50.75064" lon="2.97143">
        <ele>347</ele>
        <time>2017-12-30T09:54:34Z</time>
      </trkpt>
      <trkpt lat="50.75072" lon="2.97177">
        <ele>347</ele>
        <time>2017-12-30T09:54:38Z</time>
      </trkpt>
      <trkpt lat="50.7508" lon="2.97211">
        <ele>347</ele>
        <time>2017-12-30T09:54:42Z</time>
      </trkpt>
      <trkpt lat="50.75089" lon="2.97244">
        <ele>347</ele>
        <time>2017-12-30T09:54:46Z</time>
      </trkpt>
      <trkpt lat="50.75099" lon="2.97276">
        <ele>347</ele>
        <time>2017-12-30T09:54:50Z</time>
      </trkpt>
      <trkpt lat="50.75111" lon="2.97304">
        <ele>348</ele>
        <time>2017-12-30T09:54:54Z</time>
      </trkpt>
      <trkpt lat="50.75123" lon="2.97332">
        <ele>348</ele>
        <time>2017-12-30T09:54:58Z</time>
      </trkpt>
      <trkpt lat="50.75137" lon="2.97361">
        <ele>348</ele>
        <time>2017-12-30T09:55:02Z</time>
      </trkpt>
      <trkpt lat="50.75148" lon="2.97387">
        <ele>347</ele>
        <time>2017-12-30T09:55:06Z</time>
      </trkpt>
      <trkpt lat="50.75162" lon="2.97412">
        <ele>346</ele>
        <time>2017-12-30T09:55:10Z</time>
      </trkpt>
      <trkpt lat="50.75175" lon="2.97401">
        <ele>346</ele>
        <time>2017-12-30T09:55:14Z</time>
      </trkpt>
      <trkpt lat="50.75192" lon="2.97386">
        <ele>346</ele>
        <time>2017-12-30T09:55:18Z</time>
      </trkpt>
      <trkpt lat="50.75211" lon="2.97372">
        <ele>346</ele>
        <time>2017-12-30T09:55:22Z</time>
      </trkpt>
      <trkpt lat="50.75227" lon="2.97358">
        <ele>346</ele>
        <time>2017-12-30T09:55:26Z</time>
      </trkpt>
      <trkpt lat="50.75244" lon="2.9735">
        <ele>346</ele>
        <time>2017-12-30T09:55:30Z</time>
      </trkpt>
      <trkpt lat="50.7526" lon="2.97342">
        <ele>346</ele>
        <time>2017-12-30T09:55:34Z</time>
      </trkpt>
      <trkpt lat="50.75277" lon="2.97327">
        <ele>347</ele>
        <time>2017-12-30T09:55:38Z</time>
      </trkpt>
      <trkpt lat="50.75295" lon="2.97312">
        <ele>347</ele>
        <time>2017-12-30T09:55:42Z</time>
      </trkpt>
      <trkpt lat="50.75315" lon="2.97293">
        <ele>347</ele>
        <time>2017-12-30T09:55:46Z</time>
      </trkpt>
      <trkpt lat="50.75331" lon="2.97293">
        <ele>346</ele>
        <time>2017-12-30T09:55:50Z</time>
      </trkpt>
      <trkpt lat="50.75338" lon="2.97318">
        <ele>345</ele>
        <time>2017-12-30T09:55:54Z</time>
      </trkpt>
      <trkpt lat="50.75349" lon="2.97342">
        <ele>343</ele>
        <time>2017-12-30T09:55:58Z</time>
      </trkpt>
      <trkpt lat="50.75355" lon="2.97337">
        <ele>343</ele>
        <time>2017-12-30T09:56:02Z</time>
      </trkpt>
      <trkpt lat="50.7535" lon="2.9732">
        <ele>342</ele>
        <time>2017-12-30T09:56:06Z</time>
      </trkpt>
      <trkpt lat="50.75352" lon="2.97297">
        <ele>341</ele>
        <time>2017-12-30T09:56:10Z</time>
      </trkpt>
      <trkpt lat="50.75359" lon="2.97286">
        <ele>342</ele>
        <time>2017-12-30T09:56:14Z</time>
      </trkpt>
      <trkpt lat="50.75367" lon="2.97307">
        <ele>342</ele>
        <time>2017-12-30T09:56:18Z</time>
      </trkpt>
      <trkpt lat="50.75379" lon="2.97333">
        <ele>342</ele>
        <time>2017-12-30T09:56:22Z</time>
      </trkpt>
      <trkpt lat="50.7539" lon="2.97362">
        <ele>342</ele>
        <time>2017-12-30T09:56:26Z</time>
      </trkpt>
      <trkpt lat="50.754" lon="2.97393">
        <ele>342</ele>
        <time>2017-12-30T09:56:30Z</time>
      </trkpt>
      <trkpt lat="50.75413" lon="2.97424">
        <ele>342</ele>
        <time>2017-12-30T09:56:34Z</time>
      </trkpt>
      <trkpt lat="50.75425" lon="2.97458">
        <ele>342</ele>
        <time>2017-12-30T09:56:38Z</time>
      </trkpt>
      <trkpt lat="50.75438" lon="2.97493">
        <ele>342</ele>
        <time>2017-12-30T09:56:42Z</time>
      </trkpt>
      <trkpt lat="50.75452" lon="2.97528">
        <ele>342</ele>
        <time>2017-12-30T09:56:46Z</time>
      </trkpt>
      <trkpt lat="50.75466" lon="2.97564">
        <ele>342</ele>
        <time>2017-12-30T09:56:50Z</time>
      </trkpt>
      <trkpt lat="50.75479" lon="2.97602">
        <ele>342</ele>
        <time>2017-12-30T09:56:54Z</time>
      </trkpt>
      <trkpt lat="50.75493" lon="2.97639">
        <ele>342</ele>
        <time>2017-12-30T09:56:58Z</time>
      </trkpt>
      <trkpt lat="50.75508" lon="2.97677">
        <ele>342</ele>
        <time>2017-12-30T09:57:02Z</time>
      </trkpt>
      <trkpt lat="50.75522" lon="2.97714">
        <ele>342</ele>
        <time>2017-12-30T09:57:06Z</time>
      </trkpt>
      <trkpt lat="50.75535" lon="2.97752">
        <ele>342</ele>
        <time>2017-12-30T09:57:10Z</time>
      </trkpt>
      <trkpt lat="50.75549" lon="2.9779">
        <ele>342</ele>
        <time>2017-12-30T09:57:14Z</time>
      </trkpt>
      <trkpt lat="50.75563" lon="2.97828">
        <ele>342</ele>
        <time>2017-12-30T09:57:18Z</time>
      </trkpt>
      <trkpt lat="50.75576" lon="2.97866">
        <ele>342</ele>
        <time>2017-12-30T09:57:22Z</time>
      </trkpt>
      <trkpt lat="50.7559" lon="2.97903">
        <ele>341</ele>
        <time>2017-12-30T09:57:26Z</time>
      </trkpt>
      <trkpt lat="50.75604" lon="2.97941">
        <ele>341</ele>
        <time>2017-12-30T09:57:30Z</time>
      </trkpt>
      <trkpt lat="50.75617" lon="2.9798">
        <ele>341</ele>
        <time>2017-12-30T09:57:34Z</time>
      </trkpt>
      <trkpt lat="50.75629" lon="2.98017">
        <ele>342</ele>
        <time>2017-12-30T09:57:38Z</time>
      </trkpt>
      <trkpt lat="50.7564" lon="2.98049">
        <ele>343</ele>
        <time>2017-12-30T09:57:42Z</time>
      </trkpt>
      <trkpt lat="50.7565" lon="2.98077">
        <ele>344</ele>
        <time>2017-12-30T09:57:46Z</time>
      </trkpt>
      <trkpt lat="50.7566" lon="2.98108">
        <ele>343</ele>
        <time>2017-12-30T09:57:50Z</time>
      </trkpt>
      <trkpt lat="50.75671" lon="2.98145">
        <ele>341</ele>
        <time>2017-12-30T09:57:54Z</time>
      </trkpt>
      <trkpt lat="50.75684" lon="2.98181">
        <ele>341</ele>
        <time>2017-12-30T09:57:58Z</time>
      </trkpt>
      <trkpt lat="50.75692" lon="2.98218">
        <ele>341</ele>
        <time>2017-12-30T09:58:02Z</time>
      </trkpt>
      <trkpt lat="50.75698" lon="2.98255">
        <ele>342</ele>
        <time>2017-12-30T09:58:06Z</time>
      </trkpt>
      <trkpt lat="50.75704" lon="2.98291">
        <ele>341</ele>
        <time>2017-12-30T09:58:10Z</time>
      </trkpt>
      <trkpt lat="50.75711" lon="2.98325">
        <ele>341</ele>
        <time>2017-12-30T09:58:14Z</time>
      </trkpt>
      <trkpt lat="50.75728" lon="2.98348">
        <ele>340</ele>
        <time>2017-12-30T09:58:18Z</time>
      </trkpt>
      <trkpt lat="50.75749" lon="2.98368">
        <ele>341</ele>
        <time>2017-12-30T09:58:22Z</time>
      </trkpt>
      <trkpt lat="50.75766" lon="2.98388">
        <ele>341</ele>
        <time>2017-12-30T09:58:26Z</time>
      </trkpt>
      <trkpt lat="50.75777" lon="2.98416">
        <ele>340</ele>
        <time>2017-12-30T09:58:30Z</time>
      </trkpt>
      <trkpt lat="50.75781" lon="2.98443">
        <ele>341</ele>
        <time>2017-12-30T09:58:34Z</time>
      </trkpt>
      <trkpt lat="50.75789" lon="2.98462">
        <ele>341</ele>
        <time>2017-12-30T09:58:38Z</time>
      </trkpt>
      <trkpt lat="50.75797" lon="2.98481">
        <ele>341</ele>
        <time>2017-12-30T09:58:42Z</time>
      </trkpt>
      <trkpt lat="50.75805" lon="2.98499">
        <ele>343</ele>
        <time>2017-12-30T09:58:46Z</time>
      </trkpt>
      <trkpt lat="50.75815" lon="2.98517">
        <ele>341</ele>
        <time>2017-12-30T09:58:50Z</time>
      </trkpt>
      <trkpt lat="50.7582" lon="2.9853">
        <ele>342</ele>
        <time>2017-12-30T09:58:54Z</time>
      </trkpt>
      <trkpt lat="50.75822" lon="2.98539">
        <ele>342</ele>
        <time>2017-12-30T09:58:58Z</time>
      </trkpt>
      <trkpt lat="50.75827" lon="2.98553">
        <ele>342</ele>
        <time>2017-12-30T09:59:02Z</time>
      </trkpt>
      <trkpt lat="50.75832" lon="2.98569">
        <ele>342</ele>
        <time>2017-12-30T09:59:06Z</time>
      </trkpt>
      <trkpt lat="50.75839" lon="2.98585">
        <ele>341</ele>
        <time>2017-12-30T09:59:10Z</time>
      </trkpt>
      <trkpt lat="50.75845" lon="2.98597">
        <ele>341</ele>
        <time>2017-12-30T09:59:14Z</time>
      </trkpt>
      <trkpt lat="50.75847" lon="2.98607">
        <ele>342</ele>
        <time>2017-12-30T09:59:18Z</time>
      </trkpt>
      <trkpt lat="50.75852" lon="2.98621">
        <ele>342</ele>
        <time>2017-12-30T09:59:22Z</time>
      </trkpt>
      <trkpt lat="50.75857" lon="2.98638">
        <ele>342</ele>
        <time>2017-12-30T09:59:26Z</time>
      </trkpt>
      <trkpt lat="50.75864" lon="2.98653">
        <ele>342</ele>
        <time>2017-12-30T09:59:30Z</time>
      </trkpt>
      <trkpt lat="50.75869" lon="2.98665">
        <ele>342</ele>
        <time>2017-12-30T09:59:34Z</time>
      </trkpt>
      <trkpt lat="50.75872" lon="2.98674">
        <ele>342</ele>
        <time>2017-12-30T09:59:38Z</time>
      </trkpt>
      <trkpt lat="50.75875" lon="2.98684">
        <ele>341</ele>
        <time>2017-12-30T09:59:42Z</time>
      </trkpt>
      <trkpt lat="50.75876" lon="2.98692">
        <ele>343</ele>
        <time>2017-12-30T09:59:46Z</time>
      </trkpt>
      <trkpt lat="50.75877" lon="2.98698">
        <ele>343</ele>
        <time>2017-12-30T09:59:50Z</time>
      </trkpt>
      <trkpt lat="50.75874" lon="2.98701">
        <ele>343</ele>
        <time>2017-12-30T09:59:54Z</time>
      </trkpt>
      <trkpt lat="50.75869" lon="2.98701">
        <ele>343</ele>
        <time>2017-12-30T09:59:58Z</time>
      </trkpt>
      <trkpt lat="50.75864" lon="2.98695">
        <ele>343</ele>
        <time>2017-12-30T10:00:02Z</time>
      </trkpt>
      <trkpt lat="50.75861" lon="2.98692">
        <ele>343</ele>
        <time>2017-12-30T10:00:10Z</time>
      </trkpt>
      <trkpt lat="50.75859" lon="2.98686">
        <ele>342</ele>
        <time>2017-12-30T10:00:14Z</time>
      </trkpt>
      <trkpt lat="50.75856" lon="2.98681">
        <ele>343</ele>
        <time>2017-12-30T10:00:18Z</time>
      </trkpt>
      <trkpt lat="50.75855" lon="2.98672">
        <ele>342</ele>
        <time>2017-12-30T10:00:22Z</time>
      </trkpt>
      <trkpt lat="50.75852" lon="2.9866">
        <ele>342</ele>
        <time>2017-12-30T10:00:26Z</time>
      </trkpt>
      <trkpt lat="50.75848" lon="2.98648">
        <ele>342</ele>
        <time>2017-12-30T10:00:30Z</time>
      </trkpt>
      <trkpt lat="50.75842" lon="2.98634">
        <ele>343</ele>
        <time>2017-12-30T10:00:34Z</time>
      </trkpt>
      <trkpt lat="50.75836" lon="2.98627">
        <ele>342</ele>
        <time>2017-12-30T10:00:38Z</time>
      </trkpt>
      <trkpt lat="50.75826" lon="2.98622">
        <ele>342</ele>
        <time>2017-12-30T10:00:42Z</time>
      </trkpt>
      <trkpt lat="50.75819" lon="2.98614">
        <ele>342</ele>
        <time>2017-12-30T10:00:46Z</time>
      </trkpt>
      <trkpt lat="50.75816" lon="2.98604">
        <ele>342</ele>
        <time>2017-12-30T10:00:50Z</time>
      </trkpt>
      <trkpt lat="50.7581" lon="2.98592">
        <ele>342</ele>
        <time>2017-12-30T10:00:54Z</time>
      </trkpt>
      <trkpt lat="50.75804" lon="2.98577">
        <ele>341</ele>
        <time>2017-12-30T10:00:58Z</time>
      </trkpt>
      <trkpt lat="50.75803" lon="2.98565">
        <ele>341</ele>
        <time>2017-12-30T10:01:02Z</time>
      </trkpt>
      <trkpt lat="50.75797" lon="2.98551">
        <ele>340</ele>
        <time>2017-12-30T10:01:06Z</time>
      </trkpt>
      <trkpt lat="50.75788" lon="2.98547">
        <ele>340</ele>
        <time>2017-12-30T10:01:10Z</time>
      </trkpt>
      <trkpt lat="50.75786" lon="2.98564">
        <ele>341</ele>
        <time>2017-12-30T10:01:14Z</time>
      </trkpt>
      <trkpt lat="50.75788" lon="2.9859">
        <ele>340</ele>
        <time>2017-12-30T10:01:18Z</time>
      </trkpt>
      <trkpt lat="50.75792" lon="2.98616">
        <ele>340</ele>
        <time>2017-12-30T10:01:22Z</time>
      </trkpt>
      <trkpt lat="50.75796" lon="2.98646">
        <ele>340</ele>
        <time>2017-12-30T10:01:26Z</time>
      </trkpt>
      <trkpt lat="50.75806" lon="2.98676">
        <ele>341</ele>
        <time>2017-12-30T10:01:30Z</time>
      </trkpt>
      <trkpt lat="50.75817" lon="2.98704">
        <ele>341</ele>
        <time>2017-12-30T10:01:34Z</time>
      </trkpt>
      <trkpt lat="50.75831" lon="2.98729">
        <ele>340</ele>
        <time>2017-12-30T10:01:38Z</time>
      </trkpt>
      <trkpt lat="50.75844" lon="2.98756">
        <ele>341</ele>
        <time>2017-12-30T10:01:42Z</time>
      </trkpt>
      <trkpt lat="50.75857" lon="2.98782">
        <ele>341</ele>
        <time>2017-12-30T10:01:46Z</time>
      </trkpt>
      <trkpt lat="50.7587" lon="2.98808">
        <ele>341</ele>
        <time>2017-12-30T10:01:50Z</time>
      </trkpt>
      <trkpt lat="50.75884" lon="2.98836">
        <ele>342</ele>
        <time>2017-12-30T10:01:54Z</time>
      </trkpt>
      <trkpt lat="50.75897" lon="2.98865">
        <ele>340</ele>
        <time>2017-12-30T10:01:58Z</time>
      </trkpt>
      <trkpt lat="50.75909" lon="2.98896">
        <ele>341</ele>
        <time>2017-12-30T10:02:02Z</time>
      </trkpt>
      <trkpt lat="50.75921" lon="2.98928">
        <ele>341</ele>
        <time>2017-12-30T10:02:06Z</time>
      </trkpt>
      <trkpt lat="50.75931" lon="2.98958">
        <ele>342</ele>
        <time>2017-12-30T10:02:10Z</time>
      </trkpt>
      <trkpt lat="50.75941" lon="2.98989">
        <ele>340</ele>
        <time>2017-12-30T10:02:14Z</time>
      </trkpt>
      <trkpt lat="50.7595" lon="2.99014">
        <ele>341</ele>
        <time>2017-12-30T10:02:18Z</time>
      </trkpt>
      <trkpt lat="50.7596" lon="2.99043">
        <ele>341</ele>
        <time>2017-12-30T10:02:22Z</time>
      </trkpt>
      <trkpt lat="50.75969" lon="2.99076">
        <ele>341</ele>
        <time>2017-12-30T10:02:26Z</time>
      </trkpt>
      <trkpt lat="50.75977" lon="2.99109">
        <ele>340</ele>
        <time>2017-12-30T10:02:30Z</time>
      </trkpt>
      <trkpt lat="50.75986" lon="2.99143">
        <ele>340</ele>
        <time>2017-12-30T10:02:34Z</time>
      </trkpt>
      <trkpt lat="50.75996" lon="2.99176">
        <ele>340</ele>
        <time>2017-12-30T10:02:38Z</time>
      </trkpt>
      <trkpt lat="50.76007" lon="2.99207">
        <ele>341</ele>
        <time>2017-12-30T10:02:42Z</time>
      </trkpt>
      <trkpt lat="50.76018" lon="2.99239">
        <ele>340</ele>
        <time>2017-12-30T10:02:46Z</time>
      </trkpt>
      <trkpt lat="50.76028" lon="2.99272">
        <ele>341</ele>
        <time>2017-12-30T10:02:50Z</time>
      </trkpt>
      <trkpt lat="50.76038" lon="2.99306">
        <ele>341</ele>
        <time>2017-12-30T10:02:54Z</time>
      </trkpt>
      <trkpt lat="50.76051" lon="2.99336">
        <ele>342</ele>
        <time>2017-12-30T10:02:58Z</time>
      </trkpt>
      <trkpt lat="50.76064" lon="2.99365">
        <ele>342</ele>
        <time>2017-12-30T10:03:02Z</time>
      </trkpt>
      <trkpt lat="50.76078" lon="2.99394">
        <ele>342</ele>
        <time>2017-12-30T10:03:06Z</time>
      </trkpt>
      <trkpt lat="50.76092" lon="2.99422">
        <ele>341</ele>
        <time>2017-12-30T10:03:10Z</time>
      </trkpt>
      <trkpt lat="50.76106" lon="2.99451">
        <ele>341</ele>
        <time>2017-12-30T10:03:14Z</time>
      </trkpt>
      <trkpt lat="50.7612" lon="2.99479">
        <ele>341</ele>
        <time>2017-12-30T10:03:18Z</time>
      </trkpt>
      <trkpt lat="50.76135" lon="2.99506">
        <ele>341</ele>
        <time>2017-12-30T10:03:22Z</time>
      </trkpt>
      <trkpt lat="50.76151" lon="2.99532">
        <ele>342</ele>
        <time>2017-12-30T10:03:26Z</time>
      </trkpt>
      <trkpt lat="50.76166" lon="2.99559">
        <ele>341</ele>
        <time>2017-12-30T10:03:30Z</time>
      </trkpt>
      <trkpt lat="50.76181" lon="2.99586">
        <ele>341</ele>
        <time>2017-12-30T10:03:34Z</time>
      </trkpt>
      <trkpt lat="50.76195" lon="2.99614">
        <ele>340</ele>
        <time>2017-12-30T10:03:38Z</time>
      </trkpt>
      <trkpt lat="50.76211" lon="2.99643">
        <ele>341</ele>
        <time>2017-12-30T10:03:42Z</time>
      </trkpt>
      <trkpt lat="50.76226" lon="2.99672">
        <ele>342</ele>
        <time>2017-12-30T10:03:46Z</time>
      </trkpt>
      <trkpt lat="50.76239" lon="2.99703">
        <ele>341</ele>
        <time>2017-12-30T10:03:50Z</time>
      </trkpt>
      <trkpt lat="50.76252" lon="2.99735">
        <ele>341</ele>
        <time>2017-12-30T10:03:54Z</time>
      </trkpt>
      <trkpt lat="50.76265" lon="2.99767">
        <ele>341</ele>
        <time>2017-12-30T10:03:58Z</time>
      </trkpt>
      <trkpt lat="50.76278" lon="2.998">
        <ele>342</ele>
        <time>2017-12-30T10:04:02Z</time>
      </trkpt>
      <trkpt lat="50.76291" lon="2.99832">
        <ele>342</ele>
        <time>2017-12-30T10:04:06Z</time>
      </trkpt>
      <trkpt lat="50.76305" lon="2.99865">
        <ele>341</ele>
        <time>2017-12-30T10:04:10Z</time>
      </trkpt>
      <trkpt lat="50.76318" lon="2.99898">
        <ele>341</ele>
        <time>2017-12-30T10:04:14Z</time>
      </trkpt>
      <trkpt lat="50.76328" lon="2.99932">
        <ele>341</ele>
        <time>2017-12-30T10:04:18Z</time>
      </trkpt>
      <trkpt lat="50.76341" lon="2.99966">
        <ele>341</ele>
        <time>2017-12-30T10:04:22Z</time>
      </trkpt>
      <trkpt lat="50.76354" lon="3">
        <ele>340</ele>
        <time>2017-12-30T10:04:26Z</time>
      </trkpt>
      <trkpt lat="50.7636" lon="3.00027">
        <ele>340</ele>
        <time>2017-12-30T10:04:30Z</time>
      </trkpt>
      <trkpt lat="50.76372" lon="3.00046">
        <ele>340</ele>
        <time>2017-12-30T10:04:34Z</time>
      </trkpt>
      <trkpt lat="50.76386" lon="3.00071">
        <ele>341</ele>
        <time>2017-12-30T10:04:38Z</time>
      </trkpt>
      <trkpt lat="50.76399" lon="3.00101">
        <ele>340</ele>
        <time>2017-12-30T10:04:42Z</time>
      </trkpt>
      <trkpt lat="50.76409" lon="3.00133">
        <ele>341</ele>
        <time>2017-12-30T10:04:46Z</time>
      </trkpt>
      <trkpt lat="50.76422" lon="3.00162">
        <ele>341</ele>
        <time>2017-12-30T10:04:50Z</time>
      </trkpt>
      <trkpt lat="50.76433" lon="3.00193">
        <ele>342</ele>
        <time>2017-12-30T10:04:54Z</time>
      </trkpt>
      <trkpt lat="50.76444" lon="3.00226">
        <ele>342</ele>
        <time>2017-12-30T10:04:58Z</time>
      </trkpt>
      <trkpt lat="50.76455" lon="3.00258">
        <ele>342</ele>
        <time>2017-12-30T10:05:02Z</time>
      </trkpt>
      <trkpt lat="50.76467" lon="3.0029">
        <ele>341</ele>
        <time>2017-12-30T10:05:06Z</time>
      </trkpt>
      <trkpt lat="50.76478" lon="3.00323">
        <ele>341</ele>
        <time>2017-12-30T10:05:10Z</time>
      </trkpt>
      <trkpt lat="50.76491" lon="3.00354">
        <ele>342</ele>
        <time>2017-12-30T10:05:14Z</time>
      </trkpt>
      <trkpt lat="50.76493" lon="3.00386">
        <ele>342</ele>
        <time>2017-12-30T10:05:18Z</time>
      </trkpt>
      <trkpt lat="50.76479" lon="3.00407">
        <ele>343</ele>
        <time>2017-12-30T10:05:22Z</time>
      </trkpt>
      <trkpt lat="50.76476" lon="3.0043">
        <ele>342</ele>
        <time>2017-12-30T10:05:26Z</time>
      </trkpt>
      <trkpt lat="50.76488" lon="3.00454">
        <ele>342</ele>
        <time>2017-12-30T10:05:30Z</time>
      </trkpt>
      <trkpt lat="50.76503" lon="3.00479">
        <ele>343</ele>
        <time>2017-12-30T10:05:34Z</time>
      </trkpt>
      <trkpt lat="50.76517" lon="3.00501">
        <ele>343</ele>
        <time>2017-12-30T10:05:38Z</time>
      </trkpt>
      <trkpt lat="50.7653" lon="3.00522">
        <ele>344</ele>
        <time>2017-12-30T10:05:42Z</time>
      </trkpt>
      <trkpt lat="50.7653" lon="3.00543">
        <ele>344</ele>
        <time>2017-12-30T10:05:46Z</time>
      </trkpt>
      <trkpt lat="50.76515" lon="3.0056">
        <ele>345</ele>
        <time>2017-12-30T10:05:50Z</time>
      </trkpt>
      <trkpt lat="50.765" lon="3.00578">
        <ele>345</ele>
        <time>2017-12-30T10:05:54Z</time>
      </trkpt>
      <trkpt lat="50.76489" lon="3.00594">
        <ele>344</ele>
        <time>2017-12-30T10:05:58Z</time>
      </trkpt>
      <trkpt lat="50.76484" lon="3.00605">
        <ele>346</ele>
        <time>2017-12-30T10:06:02Z</time>
      </trkpt>
      <trkpt lat="50.76482" lon="3.00608">
        <ele>346</ele>
        <time>2017-12-30T10:06:34Z</time>
      </trkpt>
      <trkpt lat="50.76481" lon="3.00623">
        <ele>346</ele>
        <time>2017-12-30T10:06:38Z</time>
      </trkpt>
      <trkpt lat="50.76493" lon="3.00647">
        <ele>345</ele>
        <time>2017-12-30T10:06:42Z</time>
      </trkpt>
      <trkpt lat="50.76509" lon="3.00672">
        <ele>346</ele>
        <time>2017-12-30T10:06:46Z</time>
      </trkpt>
      <trkpt lat="50.76518" lon="3.0071">
        <ele>346</ele>
        <time>2017-12-30T10:06:50Z</time>
      </trkpt>
      <trkpt lat="50.76522" lon="3.00738">
        <ele>345</ele>
        <time>2017-12-30T10:06:54Z</time>
      </trkpt>
      <trkpt lat="50.76526" lon="3.00752">
        <ele>344</ele>
        <time>2017-12-30T10:06:58Z</time>
      </trkpt>
      <trkpt lat="50.7654" lon="3.00776">
        <ele>345</ele>
        <time>2017-12-30T10:07:02Z</time>
      </trkpt>
      <trkpt lat="50.76554" lon="3.00808">
        <ele>343</ele>
        <time>2017-12-30T10:07:06Z</time>
      </trkpt>
      <trkpt lat="50.76571" lon="3.00841">
        <ele>343</ele>
        <time>2017-12-30T10:07:10Z</time>
      </trkpt>
      <trkpt lat="50.7659" lon="3.00873">
        <ele>343</ele>
        <time>2017-12-30T10:07:14Z</time>
      </trkpt>
      <trkpt lat="50.76605" lon="3.00913">
        <ele>342</ele>
        <time>2017-12-30T10:07:18Z</time>
      </trkpt>
      <trkpt lat="50.76622" lon="3.00951">
        <ele>342</ele>
        <time>2017-12-30T10:07:22Z</time>
      </trkpt>
      <trkpt lat="50.76636" lon="3.0099">
        <ele>342</ele>
        <time>2017-12-30T10:07:26Z</time>
      </trkpt>
      <trkpt lat="50.76636" lon="3.01035">
        <ele>342</ele>
        <time>2017-12-30T10:07:30Z</time>
      </trkpt>
      <trkpt lat="50.76636" lon="3.0108">
        <ele>342</ele>
        <time>2017-12-30T10:07:34Z</time>
      </trkpt>
      <trkpt lat="50.76637" lon="3.01123">
        <ele>342</ele>
        <time>2017-12-30T10:07:38Z</time>
      </trkpt>
      <trkpt lat="50.76638" lon="3.01165">
        <ele>343</ele>
        <time>2017-12-30T10:07:42Z</time>
      </trkpt>
      <trkpt lat="50.76639" lon="3.01204">
        <ele>342</ele>
        <time>2017-12-30T10:07:46Z</time>
      </trkpt>
      <trkpt lat="50.76641" lon="3.01242">
        <ele>342</ele>
        <time>2017-12-30T10:07:50Z</time>
      </trkpt>
      <trkpt lat="50.76643" lon="3.01277">
        <ele>343</ele>
        <time>2017-12-30T10:07:54Z</time>
      </trkpt>
      <trkpt lat="50.76659" lon="3.01294">
        <ele>344</ele>
        <time>2017-12-30T10:07:58Z</time>
      </trkpt>
      <trkpt lat="50.76681" lon="3.01293">
        <ele>343</ele>
        <time>2017-12-30T10:08:02Z</time>
      </trkpt>
      <trkpt lat="50.76704" lon="3.01291">
        <ele>343</ele>
        <time>2017-12-30T10:08:06Z</time>
      </trkpt>
      <trkpt lat="50.76728" lon="3.01288">
        <ele>343</ele>
        <time>2017-12-30T10:08:10Z</time>
      </trkpt>
      <trkpt lat="50.7675" lon="3.01282">
        <ele>342</ele>
        <time>2017-12-30T10:08:14Z</time>
      </trkpt>
      <trkpt lat="50.76771" lon="3.01266">
        <ele>343</ele>
        <time>2017-12-30T10:08:18Z</time>
      </trkpt>
      <trkpt lat="50.76791" lon="3.01244">
        <ele>341</ele>
        <time>2017-12-30T10:08:22Z</time>
      </trkpt>
      <trkpt lat="50.76812" lon="3.01231">
        <ele>343</ele>
        <time>2017-12-30T10:08:26Z</time>
      </trkpt>
      <trkpt lat="50.7683" lon="3.01221">
        <ele>343</ele>
        <time>2017-12-30T10:08:30Z</time>
      </trkpt>
      <trkpt lat="50.76846" lon="3.01237">
        <ele>343</ele>
        <time>2017-12-30T10:08:34Z</time>
      </trkpt>
      <trkpt lat="50.76858" lon="3.01263">
        <ele>343</ele>
        <time>2017-12-30T10:08:38Z</time>
      </trkpt>
      <trkpt lat="50.76869" lon="3.01291">
        <ele>342</ele>
        <time>2017-12-30T10:08:42Z</time>
      </trkpt>
      <trkpt lat="50.76878" lon="3.01321">
        <ele>341</ele>
        <time>2017-12-30T10:08:46Z</time>
      </trkpt>
      <trkpt lat="50.76887" lon="3.01343">
        <ele>341</ele>
        <time>2017-12-30T10:08:50Z</time>
      </trkpt>
      <trkpt lat="50.76903" lon="3.01343">
        <ele>342</ele>
        <time>2017-12-30T10:08:54Z</time>
      </trkpt>
      <trkpt lat="50.76923" lon="3.01342">
        <ele>342</ele>
        <time>2017-12-30T10:08:58Z</time>
      </trkpt>
      <trkpt lat="50.76946" lon="3.01341">
        <ele>341</ele>
        <time>2017-12-30T10:09:02Z</time>
      </trkpt>
      <trkpt lat="50.76967" lon="3.01344">
        <ele>342</ele>
        <time>2017-12-30T10:09:06Z</time>
      </trkpt>
      <trkpt lat="50.76985" lon="3.01363">
        <ele>342</ele>
        <time>2017-12-30T10:09:10Z</time>
      </trkpt>
      <trkpt lat="50.77004" lon="3.01385">
        <ele>342</ele>
        <time>2017-12-30T10:09:14Z</time>
      </trkpt>
      <trkpt lat="50.77021" lon="3.01408">
        <ele>342</ele>
        <time>2017-12-30T10:09:18Z</time>
      </trkpt>
      <trkpt lat="50.77039" lon="3.01432">
        <ele>343</ele>
        <time>2017-12-30T10:09:22Z</time>
      </trkpt>
      <trkpt lat="50.77058" lon="3.01455">
        <ele>343</ele>
        <time>2017-12-30T10:09:26Z</time>
      </trkpt>
      <trkpt lat="50.77075" lon="3.01479">
        <ele>343</ele>
        <time>2017-12-30T10:09:30Z</time>
      </trkpt>
      <trkpt lat="50.77094" lon="3.01503">
        <ele>343</ele>
        <time>2017-12-30T10:09:34Z</time>
      </trkpt>
      <trkpt lat="50.77112" lon="3.01525">
        <ele>342</ele>
        <time>2017-12-30T10:09:38Z</time>
      </trkpt>
      <trkpt lat="50.77129" lon="3.01548">
        <ele>343</ele>
        <time>2017-12-30T10:09:42Z</time>
      </trkpt>
      <trkpt lat="50.77147" lon="3.01571">
        <ele>342</ele>
        <time>2017-12-30T10:09:46Z</time>
      </trkpt>
      <trkpt lat="50.77166" lon="3.01594">
        <ele>342</ele>
        <time>2017-12-30T10:09:50Z</time>
      </trkpt>
      <trkpt lat="50.77184" lon="3.01618">
        <ele>343</ele>
        <time>2017-12-30T10:09:54Z</time>
      </trkpt>
      <trkpt lat="50.77202" lon="3.01644">
        <ele>342</ele>
        <time>2017-12-30T10:09:58Z</time>
      </trkpt>
      <trkpt lat="50.77216" lon="3.01672">
        <ele>342</ele>
        <time>2017-12-30T10:10:02Z</time>
      </trkpt>
      <trkpt lat="50.77229" lon="3.01701">
        <ele>342</ele>
        <time>2017-12-30T10:10:06Z</time>
      </trkpt>
      <trkpt lat="50.77241" lon="3.01731">
        <ele>342</ele>
        <time>2017-12-30T10:10:10Z</time>
      </trkpt>
      <trkpt lat="50.77253" lon="3.01762">
        <ele>342</ele>
        <time>2017-12-30T10:10:14Z</time>
      </trkpt>
      <trkpt lat="50.77265" lon="3.01794">
        <ele>341</ele>
        <time>2017-12-30T10:10:18Z</time>
      </trkpt>
      <trkpt lat="50.77271" lon="3.0183">
        <ele>341</ele>
        <time>2017-12-30T10:10:22Z</time>
      </trkpt>
      <trkpt lat="50.77276" lon="3.0187">
        <ele>341</ele>
        <time>2017-12-30T10:10:26Z</time>
      </trkpt>
      <trkpt lat="50.7729" lon="3.01901">
        <ele>341</ele>
        <time>2017-12-30T10:10:30Z</time>
      </trkpt>
      <trkpt lat="50.77303" lon="3.01932">
        <ele>341</ele>
        <time>2017-12-30T10:10:34Z</time>
      </trkpt>
      <trkpt lat="50.77309" lon="3.01968">
        <ele>341</ele>
        <time>2017-12-30T10:10:38Z</time>
      </trkpt>
      <trkpt lat="50.77315" lon="3.02005">
        <ele>341</ele>
        <time>2017-12-30T10:10:42Z</time>
      </trkpt>
      <trkpt lat="50.77318" lon="3.02036">
        <ele>342</ele>
        <time>2017-12-30T10:10:46Z</time>
      </trkpt>
      <trkpt lat="50.77304" lon="3.02047">
        <ele>341</ele>
        <time>2017-12-30T10:10:50Z</time>
      </trkpt>
      <trkpt lat="50.77289" lon="3.02075">
        <ele>341</ele>
        <time>2017-12-30T10:10:54Z</time>
      </trkpt>
      <trkpt lat="50.77279" lon="3.0211">
        <ele>341</ele>
        <time>2017-12-30T10:10:58Z</time>
      </trkpt>
      <trkpt lat="50.77266" lon="3.02143">
        <ele>341</ele>
        <time>2017-12-30T10:11:02Z</time>
      </trkpt>
      <trkpt lat="50.77252" lon="3.02174">
        <ele>341</ele>
        <time>2017-12-30T10:11:06Z</time>
      </trkpt>
      <trkpt lat="50.77237" lon="3.02205">
        <ele>341</ele>
        <time>2017-12-30T10:11:10Z</time>
      </trkpt>
      <trkpt lat="50.77221" lon="3.02235">
        <ele>341</ele>
        <time>2017-12-30T10:11:14Z</time>
      </trkpt>
      <trkpt lat="50.77206" lon="3.02265">
        <ele>341</ele>
        <time>2017-12-30T10:11:18Z</time>
      </trkpt>
      <trkpt lat="50.77191" lon="3.02292">
        <ele>340</ele>
        <time>2017-12-30T10:11:22Z</time>
      </trkpt>
      <trkpt lat="50.77182" lon="3.02309">
        <ele>343</ele>
        <time>2017-12-30T10:11:26Z</time>
      </trkpt>
      <trkpt lat="50.77168" lon="3.02333">
        <ele>342</ele>
        <time>2017-12-30T10:11:30Z</time>
      </trkpt>
      <trkpt lat="50.77149" lon="3.02361">
        <ele>341</ele>
        <time>2017-12-30T10:11:34Z</time>
      </trkpt>
      <trkpt lat="50.77132" lon="3.0239">
        <ele>342</ele>
        <time>2017-12-30T10:11:38Z</time>
      </trkpt>
      <trkpt lat="50.77116" lon="3.02419">
        <ele>343</ele>
        <time>2017-12-30T10:11:42Z</time>
      </trkpt>
      <trkpt lat="50.77104" lon="3.02451">
        <ele>340</ele>
        <time>2017-12-30T10:11:46Z</time>
      </trkpt>
      <trkpt lat="50.77094" lon="3.02487">
        <ele>340</ele>
        <time>2017-12-30T10:11:50Z</time>
      </trkpt>
      <trkpt lat="50.7709" lon="3.02525">
        <ele>340</ele>
        <time>2017-12-30T10:11:54Z</time>
      </trkpt>
      <trkpt lat="50.7709" lon="3.02565">
        <ele>340</ele>
        <time>2017-12-30T10:11:58Z</time>
      </trkpt>
      <trkpt lat="50.77094" lon="3.02605">
        <ele>341</ele>
        <time>2017-12-30T10:12:02Z</time>
      </trkpt>
      <trkpt lat="50.77099" lon="3.02645">
        <ele>341</ele>
        <time>2017-12-30T10:12:06Z</time>
      </trkpt>
      <trkpt lat="50.77102" lon="3.02683">
        <ele>341</ele>
        <time>2017-12-30T10:12:10Z</time>
      </trkpt>
      <trkpt lat="50.77106" lon="3.02722">
        <ele>340</ele>
        <time>2017-12-30T10:12:14Z</time>
      </trkpt>
      <trkpt lat="50.77106" lon="3.0276">
        <ele>339</ele>
        <time>2017-12-30T10:12:18Z</time>
      </trkpt>
      <trkpt lat="50.77106" lon="3.02797">
        <ele>340</ele>
        <time>2017-12-30T10:12:22Z</time>
      </trkpt>
      <trkpt lat="50.77103" lon="3.02831">
        <ele>340</ele>
        <time>2017-12-30T10:12:26Z</time>
      </trkpt>
      <trkpt lat="50.77098" lon="3.02865">
        <ele>339</ele>
        <time>2017-12-30T10:12:30Z</time>
      </trkpt>
      <trkpt lat="50.77094" lon="3.0289">
        <ele>339</ele>
        <time>2017-12-30T10:12:34Z</time>
      </trkpt>
      <trkpt lat="50.77094" lon="3.02906">
        <ele>339</ele>
        <time>2017-12-30T10:12:38Z</time>
      </trkpt>
      <trkpt lat="50.77098" lon="3.02929">
        <ele>340</ele>
        <time>2017-12-30T10:12:42Z</time>
      </trkpt>
      <trkpt lat="50.77092" lon="3.02951">
        <ele>338</ele>
        <time>2017-12-30T10:12:46Z</time>
      </trkpt>
      <trkpt lat="50.77097" lon="3.02953">
        <ele>342</ele>
        <time>2017-12-30T10:12:50Z</time>
      </trkpt>
      <trkpt lat="50.77103" lon="3.02939">
        <ele>344</ele>
        <time>2017-12-30T10:12:54Z</time>
      </trkpt>
      <trkpt lat="50.77111" lon="3.02936">
        <ele>344</ele>
        <time>2017-12-30T10:12:58Z</time>
      </trkpt>
      <trkpt lat="50.77109" lon="3.02953">
        <ele>345</ele>
        <time>2017-12-30T10:13:02Z</time>
      </trkpt>
      <trkpt lat="50.77102" lon="3.0297">
        <ele>345</ele>
        <time>2017-12-30T10:13:06Z</time>
      </trkpt>
      <trkpt lat="50.771" lon="3.02999">
        <ele>346</ele>
        <time>2017-12-30T10:13:10Z</time>
      </trkpt>
      <trkpt lat="50.7709" lon="3.03025">
        <ele>346</ele>
        <time>2017-12-30T10:13:14Z</time>
      </trkpt>
      <trkpt lat="50.7708" lon="3.03051">
        <ele>346</ele>
        <time>2017-12-30T10:13:18Z</time>
      </trkpt>
      <trkpt lat="50.77072" lon="3.03078">
        <ele>345</ele>
        <time>2017-12-30T10:13:22Z</time>
      </trkpt>
      <trkpt lat="50.77065" lon="3.03105">
        <ele>345</ele>
        <time>2017-12-30T10:13:26Z</time>
      </trkpt>
      <trkpt lat="50.77057" lon="3.03135">
        <ele>343</ele>
        <time>2017-12-30T10:13:30Z</time>
      </trkpt>
      <trkpt lat="50.77052" lon="3.03169">
        <ele>343</ele>
        <time>2017-12-30T10:13:34Z</time>
      </trkpt>
      <trkpt lat="50.77048" lon="3.03205">
        <ele>344</ele>
        <time>2017-12-30T10:13:38Z</time>
      </trkpt>
      <trkpt lat="50.77039" lon="3.03229">
        <ele>344</ele>
        <time>2017-12-30T10:13:42Z</time>
      </trkpt>
      <trkpt lat="50.77034" lon="3.03247">
        <ele>344</ele>
        <time>2017-12-30T10:13:46Z</time>
      </trkpt>
      <trkpt lat="50.77045" lon="3.0327">
        <ele>344</ele>
        <time>2017-12-30T10:13:50Z</time>
      </trkpt>
      <trkpt lat="50.77062" lon="3.03288">
        <ele>344</ele>
        <time>2017-12-30T10:13:54Z</time>
      </trkpt>
      <trkpt lat="50.77079" lon="3.03283">
        <ele>344</ele>
        <time>2017-12-30T10:13:58Z</time>
      </trkpt>
      <trkpt lat="50.771" lon="3.03278">
        <ele>345</ele>
        <time>2017-12-30T10:14:02Z</time>
      </trkpt>
      <trkpt lat="50.77121" lon="3.03278">
        <ele>344</ele>
        <time>2017-12-30T10:14:06Z</time>
      </trkpt>
      <trkpt lat="50.77142" lon="3.03283">
        <ele>344</ele>
        <time>2017-12-30T10:14:10Z</time>
      </trkpt>
      <trkpt lat="50.77161" lon="3.03288">
        <ele>344</ele>
        <time>2017-12-30T10:14:14Z</time>
      </trkpt>
      <trkpt lat="50.7718" lon="3.03293">
        <ele>344</ele>
        <time>2017-12-30T10:14:18Z</time>
      </trkpt>
      <trkpt lat="50.77201" lon="3.03298">
        <ele>344</ele>
        <time>2017-12-30T10:14:22Z</time>
      </trkpt>
      <trkpt lat="50.77222" lon="3.03303">
        <ele>344</ele>
        <time>2017-12-30T10:14:26Z</time>
      </trkpt>
      <trkpt lat="50.77243" lon="3.03309">
        <ele>346</ele>
        <time>2017-12-30T10:14:30Z</time>
      </trkpt>
      <trkpt lat="50.77258" lon="3.03312">
        <ele>347</ele>
        <time>2017-12-30T10:14:34Z</time>
      </trkpt>
      <trkpt lat="50.77273" lon="3.03316">
        <ele>348</ele>
        <time>2017-12-30T10:14:38Z</time>
      </trkpt>
      <trkpt lat="50.77286" lon="3.03329">
        <ele>348</ele>
        <time>2017-12-30T10:14:42Z</time>
      </trkpt>
      <trkpt lat="50.77287" lon="3.03358">
        <ele>348</ele>
        <time>2017-12-30T10:14:46Z</time>
      </trkpt>
      <trkpt lat="50.77289" lon="3.0339">
        <ele>347</ele>
        <time>2017-12-30T10:14:50Z</time>
      </trkpt>
      <trkpt lat="50.77289" lon="3.03423">
        <ele>347</ele>
        <time>2017-12-30T10:14:54Z</time>
      </trkpt>
      <trkpt lat="50.77289" lon="3.03457">
        <ele>347</ele>
        <time>2017-12-30T10:14:58Z</time>
      </trkpt>
      <trkpt lat="50.7729" lon="3.03484">
        <ele>347</ele>
        <time>2017-12-30T10:15:02Z</time>
      </trkpt>
      <trkpt lat="50.77286" lon="3.0349">
        <ele>347</ele>
        <time>2017-12-30T10:15:06Z</time>
      </trkpt>
      <trkpt lat="50.77283" lon="3.03487">
        <ele>347</ele>
        <time>2017-12-30T10:15:10Z</time>
      </trkpt>
      <trkpt lat="50.77287" lon="3.03482">
        <ele>347</ele>
        <time>2017-12-30T10:15:14Z</time>
      </trkpt>
      <trkpt lat="50.77293" lon="3.03487">
        <ele>347</ele>
        <time>2017-12-30T10:15:18Z</time>
      </trkpt>
      <trkpt lat="50.77307" lon="3.03481">
        <ele>347</ele>
        <time>2017-12-30T10:15:22Z</time>
      </trkpt>
      <trkpt lat="50.77324" lon="3.03473">
        <ele>347</ele>
        <time>2017-12-30T10:15:26Z</time>
      </trkpt>
      <trkpt lat="50.77342" lon="3.03465">
        <ele>344</ele>
        <time>2017-12-30T10:15:30Z</time>
      </trkpt>
      <trkpt lat="50.77356" lon="3.03461">
        <ele>345</ele>
        <time>2017-12-30T10:15:34Z</time>
      </trkpt>
      <trkpt lat="50.77367" lon="3.03453">
        <ele>345</ele>
        <time>2017-12-30T10:15:38Z</time>
      </trkpt>
      <trkpt lat="50.77381" lon="3.03448">
        <ele>346</ele>
        <time>2017-12-30T10:15:42Z</time>
      </trkpt>
      <trkpt lat="50.77394" lon="3.03442">
        <ele>347</ele>
        <time>2017-12-30T10:15:46Z</time>
      </trkpt>
      <trkpt lat="50.77405" lon="3.03436">
        <ele>348</ele>
        <time>2017-12-30T10:15:50Z</time>
      </trkpt>
      <trkpt lat="50.77414" lon="3.03431">
        <ele>348</ele>
        <time>2017-12-30T10:15:54Z</time>
      </trkpt>
      <trkpt lat="50.77421" lon="3.03428">
        <ele>348</ele>
        <time>2017-12-30T10:15:58Z</time>
      </trkpt>
      <trkpt lat="50.77427" lon="3.03427">
        <ele>348</ele>
        <time>2017-12-30T10:22:46Z</time>
      </trkpt>
      <trkpt lat="50.77434" lon="3.03423">
        <ele>349</ele>
        <time>2017-12-30T10:22:50Z</time>
      </trkpt>
      <trkpt lat="50.77445" lon="3.03419">
        <ele>351</ele>
        <time>2017-12-30T10:22:54Z</time>
      </trkpt>
      <trkpt lat="50.77456" lon="3.03413">
        <ele>349</ele>
        <time>2017-12-30T10:22:58Z</time>
      </trkpt>
      <trkpt lat="50.77469" lon="3.03408">
        <ele>351</ele>
        <time>2017-12-30T10:23:02Z</time>
      </trkpt>
      <trkpt lat="50.77481" lon="3.03406">
        <ele>347</ele>
        <time>2017-12-30T10:23:06Z</time>
      </trkpt>
      <trkpt lat="50.77489" lon="3.0342">
        <ele>343</ele>
        <time>2017-12-30T10:24:09Z</time>
      </trkpt>
      <trkpt lat="50.77489" lon="3.03428">
        <ele>344</ele>
        <time>2017-12-30T10:24:13Z</time>
      </trkpt>
      <trkpt lat="50.77492" lon="3.0345">
        <ele>343</ele>
        <time>2017-12-30T10:24:17Z</time>
      </trkpt>
      <trkpt lat="50.77498" lon="3.03478">
        <ele>343</ele>
        <time>2017-12-30T10:24:21Z</time>
      </trkpt>
      <trkpt lat="50.77505" lon="3.03509">
        <ele>342</ele>
        <time>2017-12-30T10:24:25Z</time>
      </trkpt>
      <trkpt lat="50.77513" lon="3.03543">
        <ele>341</ele>
        <time>2017-12-30T10:24:29Z</time>
      </trkpt>
      <trkpt lat="50.7752" lon="3.03575">
        <ele>340</ele>
        <time>2017-12-30T10:24:33Z</time>
      </trkpt>
      <trkpt lat="50.77514" lon="3.03575">
        <ele>341</ele>
        <time>2017-12-30T10:24:37Z</time>
      </trkpt>
      <trkpt lat="50.77509" lon="3.03551">
        <ele>341</ele>
        <time>2017-12-30T10:24:41Z</time>
      </trkpt>
      <trkpt lat="50.77502" lon="3.03522">
        <ele>341</ele>
        <time>2017-12-30T10:24:45Z</time>
      </trkpt>
      <trkpt lat="50.77495" lon="3.03492">
        <ele>340</ele>
        <time>2017-12-30T10:24:49Z</time>
      </trkpt>
      <trkpt lat="50.77487" lon="3.03462">
        <ele>340</ele>
        <time>2017-12-30T10:24:53Z</time>
      </trkpt>
      <trkpt lat="50.77479" lon="3.0343">
        <ele>341</ele>
        <time>2017-12-30T10:24:57Z</time>
      </trkpt>
      <trkpt lat="50.77472" lon="3.03399">
        <ele>341</ele>
        <time>2017-12-30T10:25:01Z</time>
      </trkpt>
      <trkpt lat="50.77465" lon="3.03367">
        <ele>341</ele>
        <time>2017-12-30T10:25:05Z</time>
      </trkpt>
      <trkpt lat="50.77459" lon="3.03335">
        <ele>341</ele>
        <time>2017-12-30T10:25:09Z</time>
      </trkpt>
      <trkpt lat="50.77452" lon="3.03303">
        <ele>342</ele>
        <time>2017-12-30T10:25:13Z</time>
      </trkpt>
      <trkpt lat="50.77446" lon="3.03271">
        <ele>342</ele>
        <time>2017-12-30T10:25:17Z</time>
      </trkpt>
      <trkpt lat="50.77441" lon="3.03239">
        <ele>342</ele>
        <time>2017-12-30T10:25:21Z</time>
      </trkpt>
      <trkpt lat="50.77437" lon="3.03209">
        <ele>341</ele>
        <time>2017-12-30T10:25:25Z</time>
      </trkpt>
      <trkpt lat="50.77433" lon="3.03178">
        <ele>341</ele>
        <time>2017-12-30T10:25:29Z</time>
      </trkpt>
      <trkpt lat="50.77429" lon="3.03146">
        <ele>342</ele>
        <time>2017-12-30T10:25:33Z</time>
      </trkpt>
      <trkpt lat="50.77425" lon="3.03113">
        <ele>342</ele>
        <time>2017-12-30T10:25:37Z</time>
      </trkpt>
      <trkpt lat="50.77422" lon="3.0308">
        <ele>341</ele>
        <time>2017-12-30T10:25:41Z</time>
      </trkpt>
      <trkpt lat="50.77419" lon="3.03047">
        <ele>341</ele>
        <time>2017-12-30T10:25:45Z</time>
      </trkpt>
      <trkpt lat="50.77417" lon="3.03012">
        <ele>341</ele>
        <time>2017-12-30T10:25:49Z</time>
      </trkpt>
      <trkpt lat="50.77414" lon="3.02977">
        <ele>342</ele>
        <time>2017-12-30T10:25:53Z</time>
      </trkpt>
      <trkpt lat="50.77413" lon="3.02943">
        <ele>341</ele>
        <time>2017-12-30T10:25:57Z</time>
      </trkpt>
      <trkpt lat="50.77411" lon="3.02909">
        <ele>341</ele>
        <time>2017-12-30T10:26:01Z</time>
      </trkpt>
      <trkpt lat="50.7741" lon="3.02874">
        <ele>342</ele>
        <time>2017-12-30T10:26:05Z</time>
      </trkpt>
      <trkpt lat="50.77411" lon="3.0284">
        <ele>341</ele>
        <time>2017-12-30T10:26:09Z</time>
      </trkpt>
      <trkpt lat="50.77412" lon="3.02806">
        <ele>340</ele>
        <time>2017-12-30T10:26:13Z</time>
      </trkpt>
      <trkpt lat="50.77412" lon="3.02772">
        <ele>340</ele>
        <time>2017-12-30T10:26:17Z</time>
      </trkpt>
      <trkpt lat="50.77414" lon="3.02737">
        <ele>341</ele>
        <time>2017-12-30T10:26:21Z</time>
      </trkpt>
      <trkpt lat="50.77415" lon="3.02702">
        <ele>340</ele>
        <time>2017-12-30T10:26:25Z</time>
      </trkpt>
      <trkpt lat="50.77417" lon="3.02667">
        <ele>339</ele>
        <time>2017-12-30T10:26:29Z</time>
      </trkpt>
      <trkpt lat="50.77419" lon="3.02632">
        <ele>340</ele>
        <time>2017-12-30T10:26:33Z</time>
      </trkpt>
      <trkpt lat="50.77421" lon="3.02596">
        <ele>341</ele>
        <time>2017-12-30T10:26:37Z</time>
      </trkpt>
      <trkpt lat="50.77422" lon="3.02559">
        <ele>340</ele>
        <time>2017-12-30T10:26:41Z</time>
      </trkpt>
      <trkpt lat="50.77424" lon="3.02522">
        <ele>340</ele>
        <time>2017-12-30T10:26:45Z</time>
      </trkpt>
      <trkpt lat="50.77425" lon="3.02485">
        <ele>339</ele>
        <time>2017-12-30T10:26:49Z</time>
      </trkpt>
      <trkpt lat="50.77425" lon="3.02448">
        <ele>342</ele>
        <time>2017-12-30T10:26:53Z</time>
      </trkpt>
      <trkpt lat="50.77425" lon="3.02415">
        <ele>341</ele>
        <time>2017-12-30T10:26:57Z</time>
      </trkpt>
      <trkpt lat="50.77424" lon="3.02382">
        <ele>342</ele>
        <time>2017-12-30T10:27:01Z</time>
      </trkpt>
      <trkpt lat="50.77423" lon="3.02349">
        <ele>341</ele>
        <time>2017-12-30T10:27:05Z</time>
      </trkpt>
      <trkpt lat="50.77422" lon="3.02316">
        <ele>342</ele>
        <time>2017-12-30T10:27:09Z</time>
      </trkpt>
      <trkpt lat="50.7742" lon="3.02285">
        <ele>342</ele>
        <time>2017-12-30T10:27:13Z</time>
      </trkpt>
      <trkpt lat="50.77418" lon="3.02253">
        <ele>342</ele>
        <time>2017-12-30T10:27:17Z</time>
      </trkpt>
      <trkpt lat="50.77415" lon="3.02221">
        <ele>342</ele>
        <time>2017-12-30T10:27:21Z</time>
      </trkpt>
      <trkpt lat="50.77412" lon="3.0219">
        <ele>342</ele>
        <time>2017-12-30T10:27:25Z</time>
      </trkpt>
      <trkpt lat="50.77409" lon="3.02159">
        <ele>342</ele>
        <time>2017-12-30T10:27:29Z</time>
      </trkpt>
      <trkpt lat="50.77405" lon="3.02127">
        <ele>342</ele>
        <time>2017-12-30T10:27:33Z</time>
      </trkpt>
      <trkpt lat="50.77401" lon="3.02098">
        <ele>343</ele>
        <time>2017-12-30T10:27:37Z</time>
      </trkpt>
      <trkpt lat="50.77397" lon="3.0207">
        <ele>343</ele>
        <time>2017-12-30T10:27:41Z</time>
      </trkpt>
      <trkpt lat="50.77392" lon="3.02039">
        <ele>341</ele>
        <time>2017-12-30T10:27:45Z</time>
      </trkpt>
      <trkpt lat="50.77388" lon="3.02008">
        <ele>342</ele>
        <time>2017-12-30T10:27:49Z</time>
      </trkpt>
      <trkpt lat="50.77383" lon="3.01977">
        <ele>342</ele>
        <time>2017-12-30T10:27:53Z</time>
      </trkpt>
      <trkpt lat="50.77378" lon="3.01947">
        <ele>343</ele>
        <time>2017-12-30T10:27:57Z</time>
      </trkpt>
      <trkpt lat="50.77371" lon="3.01919">
        <ele>341</ele>
        <time>2017-12-30T10:28:01Z</time>
      </trkpt>
      <trkpt lat="50.77365" lon="3.01889">
        <ele>344</ele>
        <time>2017-12-30T10:28:05Z</time>
      </trkpt>
      <trkpt lat="50.7736" lon="3.0186">
        <ele>346</ele>
        <time>2017-12-30T10:28:09Z</time>
      </trkpt>
      <trkpt lat="50.77358" lon="3.01832">
        <ele>344</ele>
        <time>2017-12-30T10:28:13Z</time>
      </trkpt>
      <trkpt lat="50.77358" lon="3.01804">
        <ele>341</ele>
        <time>2017-12-30T10:28:17Z</time>
      </trkpt>
      <trkpt lat="50.77348" lon="3.0178">
        <ele>342</ele>
        <time>2017-12-30T10:28:21Z</time>
      </trkpt>
      <trkpt lat="50.77337" lon="3.01757">
        <ele>342</ele>
        <time>2017-12-30T10:28:25Z</time>
      </trkpt>
      <trkpt lat="50.77327" lon="3.01732">
        <ele>341</ele>
        <time>2017-12-30T10:28:29Z</time>
      </trkpt>
      <trkpt lat="50.77318" lon="3.01706">
        <ele>341</ele>
        <time>2017-12-30T10:28:33Z</time>
      </trkpt>
      <trkpt lat="50.77305" lon="3.01685">
        <ele>339</ele>
        <time>2017-12-30T10:28:37Z</time>
      </trkpt>
      <trkpt lat="50.77286" lon="3.01668">
        <ele>340</ele>
        <time>2017-12-30T10:28:41Z</time>
      </trkpt>
      <trkpt lat="50.77268" lon="3.0165">
        <ele>340</ele>
        <time>2017-12-30T10:28:45Z</time>
      </trkpt>
      <trkpt lat="50.77253" lon="3.01625">
        <ele>339</ele>
        <time>2017-12-30T10:28:49Z</time>
      </trkpt>
      <trkpt lat="50.7724" lon="3.016">
        <ele>341</ele>
        <time>2017-12-30T10:28:53Z</time>
      </trkpt>
      <trkpt lat="50.77226" lon="3.01575">
        <ele>341</ele>
        <time>2017-12-30T10:28:57Z</time>
      </trkpt>
      <trkpt lat="50.77209" lon="3.01552">
        <ele>340</ele>
        <time>2017-12-30T10:29:01Z</time>
      </trkpt>
      <trkpt lat="50.77192" lon="3.01529">
        <ele>340</ele>
        <time>2017-12-30T10:29:05Z</time>
      </trkpt>
      <trkpt lat="50.77173" lon="3.01506">
        <ele>341</ele>
        <time>2017-12-30T10:29:09Z</time>
      </trkpt>
      <trkpt lat="50.77155" lon="3.01483">
        <ele>339</ele>
        <time>2017-12-30T10:29:13Z</time>
      </trkpt>
      <trkpt lat="50.77136" lon="3.01461">
        <ele>340</ele>
        <time>2017-12-30T10:29:17Z</time>
      </trkpt>
      <trkpt lat="50.77117" lon="3.0144">
        <ele>341</ele>
        <time>2017-12-30T10:29:21Z</time>
      </trkpt>
      <trkpt lat="50.77098" lon="3.01419">
        <ele>341</ele>
        <time>2017-12-30T10:29:25Z</time>
      </trkpt>
      <trkpt lat="50.77079" lon="3.01396">
        <ele>340</ele>
        <time>2017-12-30T10:29:29Z</time>
      </trkpt>
      <trkpt lat="50.7706" lon="3.01373">
        <ele>340</ele>
        <time>2017-12-30T10:29:33Z</time>
      </trkpt>
      <trkpt lat="50.77042" lon="3.01349">
        <ele>341</ele>
        <time>2017-12-30T10:29:37Z</time>
      </trkpt>
      <trkpt lat="50.77025" lon="3.01325">
        <ele>339</ele>
        <time>2017-12-30T10:29:41Z</time>
      </trkpt>
      <trkpt lat="50.77008" lon="3.01303">
        <ele>339</ele>
        <time>2017-12-30T10:29:45Z</time>
      </trkpt>
      <trkpt lat="50.7699" lon="3.01283">
        <ele>340</ele>
        <time>2017-12-30T10:29:49Z</time>
      </trkpt>
      <trkpt lat="50.76974" lon="3.01261">
        <ele>340</ele>
        <time>2017-12-30T10:29:53Z</time>
      </trkpt>
      <trkpt lat="50.76958" lon="3.01237">
        <ele>339</ele>
        <time>2017-12-30T10:29:57Z</time>
      </trkpt>
      <trkpt lat="50.76944" lon="3.01212">
        <ele>340</ele>
        <time>2017-12-30T10:30:01Z</time>
      </trkpt>
      <trkpt lat="50.7693" lon="3.01186">
        <ele>339</ele>
        <time>2017-12-30T10:30:05Z</time>
      </trkpt>
      <trkpt lat="50.76918" lon="3.01159">
        <ele>340</ele>
        <time>2017-12-30T10:30:09Z</time>
      </trkpt>
      <trkpt lat="50.76906" lon="3.01131">
        <ele>339</ele>
        <time>2017-12-30T10:30:13Z</time>
      </trkpt>
      <trkpt lat="50.76893" lon="3.01105">
        <ele>339</ele>
        <time>2017-12-30T10:30:17Z</time>
      </trkpt>
      <trkpt lat="50.7688" lon="3.01078">
        <ele>342</ele>
        <time>2017-12-30T10:30:21Z</time>
      </trkpt>
      <trkpt lat="50.76868" lon="3.01052">
        <ele>340</ele>
        <time>2017-12-30T10:30:25Z</time>
      </trkpt>
      <trkpt lat="50.76857" lon="3.01029">
        <ele>340</ele>
        <time>2017-12-30T10:30:29Z</time>
      </trkpt>
      <trkpt lat="50.76845" lon="3.01007">
        <ele>339</ele>
        <time>2017-12-30T10:30:33Z</time>
      </trkpt>
      <trkpt lat="50.76834" lon="3.00983">
        <ele>339</ele>
        <time>2017-12-30T10:30:37Z</time>
      </trkpt>
      <trkpt lat="50.76824" lon="3.00956">
        <ele>339</ele>
        <time>2017-12-30T10:30:41Z</time>
      </trkpt>
      <trkpt lat="50.76814" lon="3.00932">
        <ele>339</ele>
        <time>2017-12-30T10:30:45Z</time>
      </trkpt>
      <trkpt lat="50.76803" lon="3.00906">
        <ele>339</ele>
        <time>2017-12-30T10:30:49Z</time>
      </trkpt>
      <trkpt lat="50.76792" lon="3.00881">
        <ele>339</ele>
        <time>2017-12-30T10:30:53Z</time>
      </trkpt>
      <trkpt lat="50.76781" lon="3.00856">
        <ele>339</ele>
        <time>2017-12-30T10:30:57Z</time>
      </trkpt>
      <trkpt lat="50.7677" lon="3.0083">
        <ele>338</ele>
        <time>2017-12-30T10:31:01Z</time>
      </trkpt>
      <trkpt lat="50.76758" lon="3.00804">
        <ele>341</ele>
        <time>2017-12-30T10:31:05Z</time>
      </trkpt>
      <trkpt lat="50.76746" lon="3.00778">
        <ele>341</ele>
        <time>2017-12-30T10:31:09Z</time>
      </trkpt>
      <trkpt lat="50.76735" lon="3.00753">
        <ele>339</ele>
        <time>2017-12-30T10:31:13Z</time>
      </trkpt>
      <trkpt lat="50.76722" lon="3.00729">
        <ele>340</ele>
        <time>2017-12-30T10:31:17Z</time>
      </trkpt>
      <trkpt lat="50.7671" lon="3.00704">
        <ele>340</ele>
        <time>2017-12-30T10:31:21Z</time>
      </trkpt>
      <trkpt lat="50.76698" lon="3.00679">
        <ele>341</ele>
        <time>2017-12-30T10:31:25Z</time>
      </trkpt>
      <trkpt lat="50.76686" lon="3.00654">
        <ele>341</ele>
        <time>2017-12-30T10:31:29Z</time>
      </trkpt>
      <trkpt lat="50.76675" lon="3.0063">
        <ele>341</ele>
        <time>2017-12-30T10:31:33Z</time>
      </trkpt>
      <trkpt lat="50.76664" lon="3.00608">
        <ele>340</ele>
        <time>2017-12-30T10:31:37Z</time>
      </trkpt>
      <trkpt lat="50.76654" lon="3.00583">
        <ele>339</ele>
        <time>2017-12-30T10:31:41Z</time>
      </trkpt>
      <trkpt lat="50.76643" lon="3.00558">
        <ele>340</ele>
        <time>2017-12-30T10:31:45Z</time>
      </trkpt>
      <trkpt lat="50.7663" lon="3.00535">
        <ele>340</ele>
        <time>2017-12-30T10:31:49Z</time>
      </trkpt>
      <trkpt lat="50.76616" lon="3.00512">
        <ele>340</ele>
        <time>2017-12-30T10:31:53Z</time>
      </trkpt>
      <trkpt lat="50.76601" lon="3.0049">
        <ele>341</ele>
        <time>2017-12-30T10:31:57Z</time>
      </trkpt>
      <trkpt lat="50.76585" lon="3.00468">
        <ele>341</ele>
        <time>2017-12-30T10:32:01Z</time>
      </trkpt>
      <trkpt lat="50.76571" lon="3.00446">
        <ele>340</ele>
        <time>2017-12-30T10:32:05Z</time>
      </trkpt>
      <trkpt lat="50.76558" lon="3.00421">
        <ele>341</ele>
        <time>2017-12-30T10:32:09Z</time>
      </trkpt>
      <trkpt lat="50.76553" lon="3.00391">
        <ele>341</ele>
        <time>2017-12-30T10:32:13Z</time>
      </trkpt>
      <trkpt lat="50.76552" lon="3.00366">
        <ele>341</ele>
        <time>2017-12-30T10:32:17Z</time>
      </trkpt>
      <trkpt lat="50.76543" lon="3.00339">
        <ele>342</ele>
        <time>2017-12-30T10:32:21Z</time>
      </trkpt>
      <trkpt lat="50.76537" lon="3.00308">
        <ele>341</ele>
        <time>2017-12-30T10:32:25Z</time>
      </trkpt>
      <trkpt lat="50.7653" lon="3.00278">
        <ele>342</ele>
        <time>2017-12-30T10:32:29Z</time>
      </trkpt>
      <trkpt lat="50.76527" lon="3.00248">
        <ele>341</ele>
        <time>2017-12-30T10:32:33Z</time>
      </trkpt>
      <trkpt lat="50.76527" lon="3.00217">
        <ele>341</ele>
        <time>2017-12-30T10:32:37Z</time>
      </trkpt>
      <trkpt lat="50.76522" lon="3.0019">
        <ele>341</ele>
        <time>2017-12-30T10:32:41Z</time>
      </trkpt>
      <trkpt lat="50.76513" lon="3.00167">
        <ele>339</ele>
        <time>2017-12-30T10:32:45Z</time>
      </trkpt>
      <trkpt lat="50.76501" lon="3.00146">
        <ele>339</ele>
        <time>2017-12-30T10:32:49Z</time>
      </trkpt>
      <trkpt lat="50.76488" lon="3.00122">
        <ele>342</ele>
        <time>2017-12-30T10:32:53Z</time>
      </trkpt>
      <trkpt lat="50.76477" lon="3.001">
        <ele>341</ele>
        <time>2017-12-30T10:32:57Z</time>
      </trkpt>
      <trkpt lat="50.76467" lon="3.00076">
        <ele>341</ele>
        <time>2017-12-30T10:33:01Z</time>
      </trkpt>
      <trkpt lat="50.76456" lon="3.00051">
        <ele>341</ele>
        <time>2017-12-30T10:33:05Z</time>
      </trkpt>
      <trkpt lat="50.76446" lon="3.00027">
        <ele>342</ele>
        <time>2017-12-30T10:33:09Z</time>
      </trkpt>
      <trkpt lat="50.76437" lon="3.00003">
        <ele>342</ele>
        <time>2017-12-30T10:33:13Z</time>
      </trkpt>
      <trkpt lat="50.76428" lon="2.99979">
        <ele>341</ele>
        <time>2017-12-30T10:33:17Z</time>
      </trkpt>
      <trkpt lat="50.76419" lon="2.99954">
        <ele>341</ele>
        <time>2017-12-30T10:33:21Z</time>
      </trkpt>
      <trkpt lat="50.7641" lon="2.99928">
        <ele>340</ele>
        <time>2017-12-30T10:33:25Z</time>
      </trkpt>
      <trkpt lat="50.76401" lon="2.99904">
        <ele>343</ele>
        <time>2017-12-30T10:33:29Z</time>
      </trkpt>
      <trkpt lat="50.76393" lon="2.9988">
        <ele>342</ele>
        <time>2017-12-30T10:33:33Z</time>
      </trkpt>
      <trkpt lat="50.76385" lon="2.99858">
        <ele>341</ele>
        <time>2017-12-30T10:33:37Z</time>
      </trkpt>
      <trkpt lat="50.76376" lon="2.99835">
        <ele>340</ele>
        <time>2017-12-30T10:33:41Z</time>
      </trkpt>
      <trkpt lat="50.76367" lon="2.9981">
        <ele>340</ele>
        <time>2017-12-30T10:33:45Z</time>
      </trkpt>
      <trkpt lat="50.76358" lon="2.99786">
        <ele>340</ele>
        <time>2017-12-30T10:33:49Z</time>
      </trkpt>
      <trkpt lat="50.76348" lon="2.99761">
        <ele>339</ele>
        <time>2017-12-30T10:33:53Z</time>
      </trkpt>
      <trkpt lat="50.76339" lon="2.99735">
        <ele>339</ele>
        <time>2017-12-30T10:33:57Z</time>
      </trkpt>
      <trkpt lat="50.7633" lon="2.9971">
        <ele>339</ele>
        <time>2017-12-30T10:34:01Z</time>
      </trkpt>
      <trkpt lat="50.7632" lon="2.99683">
        <ele>340</ele>
        <time>2017-12-30T10:34:05Z</time>
      </trkpt>
      <trkpt lat="50.76311" lon="2.99655">
        <ele>339</ele>
        <time>2017-12-30T10:34:09Z</time>
      </trkpt>
      <trkpt lat="50.76301" lon="2.99628">
        <ele>339</ele>
        <time>2017-12-30T10:34:13Z</time>
      </trkpt>
      <trkpt lat="50.76291" lon="2.99601">
        <ele>339</ele>
        <time>2017-12-30T10:34:17Z</time>
      </trkpt>
      <trkpt lat="50.76282" lon="2.99575">
        <ele>338</ele>
        <time>2017-12-30T10:34:21Z</time>
      </trkpt>
      <trkpt lat="50.76272" lon="2.9955">
        <ele>339</ele>
        <time>2017-12-30T10:34:25Z</time>
      </trkpt>
      <trkpt lat="50.76263" lon="2.99523">
        <ele>339</ele>
        <time>2017-12-30T10:34:29Z</time>
      </trkpt>
      <trkpt lat="50.76255" lon="2.99496">
        <ele>340</ele>
        <time>2017-12-30T10:34:33Z</time>
      </trkpt>
      <trkpt lat="50.76245" lon="2.99469">
        <ele>339</ele>
        <time>2017-12-30T10:34:37Z</time>
      </trkpt>
      <trkpt lat="50.76236" lon="2.99444">
        <ele>340</ele>
        <time>2017-12-30T10:34:41Z</time>
      </trkpt>
      <trkpt lat="50.76225" lon="2.99419">
        <ele>339</ele>
        <time>2017-12-30T10:34:45Z</time>
      </trkpt>
      <trkpt lat="50.76215" lon="2.99392">
        <ele>339</ele>
        <time>2017-12-30T10:34:49Z</time>
      </trkpt>
      <trkpt lat="50.76206" lon="2.99364">
        <ele>340</ele>
        <time>2017-12-30T10:34:53Z</time>
      </trkpt>
      <trkpt lat="50.76196" lon="2.99337">
        <ele>341</ele>
        <time>2017-12-30T10:34:57Z</time>
      </trkpt>
      <trkpt lat="50.76186" lon="2.9931">
        <ele>340</ele>
        <time>2017-12-30T10:35:01Z</time>
      </trkpt>
      <trkpt lat="50.76175" lon="2.99284">
        <ele>340</ele>
        <time>2017-12-30T10:35:05Z</time>
      </trkpt>
      <trkpt lat="50.76165" lon="2.99258">
        <ele>340</ele>
        <time>2017-12-30T10:35:09Z</time>
      </trkpt>
      <trkpt lat="50.76156" lon="2.99233">
        <ele>340</ele>
        <time>2017-12-30T10:35:13Z</time>
      </trkpt>
      <trkpt lat="50.76147" lon="2.99207">
        <ele>339</ele>
        <time>2017-12-30T10:35:17Z</time>
      </trkpt>
      <trkpt lat="50.7614" lon="2.99183">
        <ele>338</ele>
        <time>2017-12-30T10:35:21Z</time>
      </trkpt>
      <trkpt lat="50.76131" lon="2.99161">
        <ele>341</ele>
        <time>2017-12-30T10:35:25Z</time>
      </trkpt>
      <trkpt lat="50.76122" lon="2.9914">
        <ele>341</ele>
        <time>2017-12-30T10:35:29Z</time>
      </trkpt>
      <trkpt lat="50.76115" lon="2.99118">
        <ele>341</ele>
        <time>2017-12-30T10:35:33Z</time>
      </trkpt>
      <trkpt lat="50.76106" lon="2.99093">
        <ele>342</ele>
        <time>2017-12-30T10:35:37Z</time>
      </trkpt>
      <trkpt lat="50.76097" lon="2.99068">
        <ele>341</ele>
        <time>2017-12-30T10:35:41Z</time>
      </trkpt>
      <trkpt lat="50.76087" lon="2.99042">
        <ele>342</ele>
        <time>2017-12-30T10:35:45Z</time>
      </trkpt>
      <trkpt lat="50.76078" lon="2.99016">
        <ele>341</ele>
        <time>2017-12-30T10:35:49Z</time>
      </trkpt>
      <trkpt lat="50.76069" lon="2.98991">
        <ele>342</ele>
        <time>2017-12-30T10:35:53Z</time>
      </trkpt>
      <trkpt lat="50.7606" lon="2.98966">
        <ele>342</ele>
        <time>2017-12-30T10:35:57Z</time>
      </trkpt>
      <trkpt lat="50.76053" lon="2.98942">
        <ele>340</ele>
        <time>2017-12-30T10:36:01Z</time>
      </trkpt>
      <trkpt lat="50.76044" lon="2.98919">
        <ele>341</ele>
        <time>2017-12-30T10:36:05Z</time>
      </trkpt>
      <trkpt lat="50.76035" lon="2.98896">
        <ele>341</ele>
        <time>2017-12-30T10:36:09Z</time>
      </trkpt>
      <trkpt lat="50.76027" lon="2.98872">
        <ele>340</ele>
        <time>2017-12-30T10:36:13Z</time>
      </trkpt>
      <trkpt lat="50.76019" lon="2.98849">
        <ele>341</ele>
        <time>2017-12-30T10:36:17Z</time>
      </trkpt>
      <trkpt lat="50.76009" lon="2.98827">
        <ele>341</ele>
        <time>2017-12-30T10:36:21Z</time>
      </trkpt>
      <trkpt lat="50.76" lon="2.98803">
        <ele>342</ele>
        <time>2017-12-30T10:36:25Z</time>
      </trkpt>
      <trkpt lat="50.7599" lon="2.98779">
        <ele>341</ele>
        <time>2017-12-30T10:36:29Z</time>
      </trkpt>
      <trkpt lat="50.75982" lon="2.98755">
        <ele>341</ele>
        <time>2017-12-30T10:36:33Z</time>
      </trkpt>
      <trkpt lat="50.75973" lon="2.98729">
        <ele>340</ele>
        <time>2017-12-30T10:36:37Z</time>
      </trkpt>
      <trkpt lat="50.75963" lon="2.98703">
        <ele>340</ele>
        <time>2017-12-30T10:36:41Z</time>
      </trkpt>
      <trkpt lat="50.75953" lon="2.98677">
        <ele>342</ele>
        <time>2017-12-30T10:36:45Z</time>
      </trkpt>
      <trkpt lat="50.75945" lon="2.9865">
        <ele>341</ele>
        <time>2017-12-30T10:36:49Z</time>
      </trkpt>
      <trkpt lat="50.75936" lon="2.98625">
        <ele>342</ele>
        <time>2017-12-30T10:36:53Z</time>
      </trkpt>
      <trkpt lat="50.75928" lon="2.98602">
        <ele>342</ele>
        <time>2017-12-30T10:36:57Z</time>
      </trkpt>
      <trkpt lat="50.75919" lon="2.98578">
        <ele>341</ele>
        <time>2017-12-30T10:37:01Z</time>
      </trkpt>
      <trkpt lat="50.7591" lon="2.98556">
        <ele>341</ele>
        <time>2017-12-30T10:37:05Z</time>
      </trkpt>
      <trkpt lat="50.75902" lon="2.98533">
        <ele>342</ele>
        <time>2017-12-30T10:37:09Z</time>
      </trkpt>
      <trkpt lat="50.75894" lon="2.98511">
        <ele>340</ele>
        <time>2017-12-30T10:37:13Z</time>
      </trkpt>
      <trkpt lat="50.75884" lon="2.98491">
        <ele>339</ele>
        <time>2017-12-30T10:37:17Z</time>
      </trkpt>
      <trkpt lat="50.75876" lon="2.98471">
        <ele>340</ele>
        <time>2017-12-30T10:37:21Z</time>
      </trkpt>
      <trkpt lat="50.75869" lon="2.98449">
        <ele>339</ele>
        <time>2017-12-30T10:37:25Z</time>
      </trkpt>
      <trkpt lat="50.7586" lon="2.98427">
        <ele>339</ele>
        <time>2017-12-30T10:37:29Z</time>
      </trkpt>
      <trkpt lat="50.75852" lon="2.98405">
        <ele>339</ele>
        <time>2017-12-30T10:37:33Z</time>
      </trkpt>
      <trkpt lat="50.75844" lon="2.98383">
        <ele>339</ele>
        <time>2017-12-30T10:37:37Z</time>
      </trkpt>
      <trkpt lat="50.75835" lon="2.98362">
        <ele>340</ele>
        <time>2017-12-30T10:37:41Z</time>
      </trkpt>
      <trkpt lat="50.75827" lon="2.98342">
        <ele>342</ele>
        <time>2017-12-30T10:37:45Z</time>
      </trkpt>
      <trkpt lat="50.75821" lon="2.98323">
        <ele>338</ele>
        <time>2017-12-30T10:37:49Z</time>
      </trkpt>
      <trkpt lat="50.75813" lon="2.98301">
        <ele>340</ele>
        <time>2017-12-30T10:37:53Z</time>
      </trkpt>
      <trkpt lat="50.75805" lon="2.9828">
        <ele>339</ele>
        <time>2017-12-30T10:37:57Z</time>
      </trkpt>
      <trkpt lat="50.75796" lon="2.98259">
        <ele>339</ele>
        <time>2017-12-30T10:38:01Z</time>
      </trkpt>
      <trkpt lat="50.75789" lon="2.98241">
        <ele>339</ele>
        <time>2017-12-30T10:38:05Z</time>
      </trkpt>
      <trkpt lat="50.75782" lon="2.98227">
        <ele>338</ele>
        <time>2017-12-30T10:38:09Z</time>
      </trkpt>
      <trkpt lat="50.75777" lon="2.98208">
        <ele>340</ele>
        <time>2017-12-30T10:38:13Z</time>
      </trkpt>
      <trkpt lat="50.75769" lon="2.98188">
        <ele>340</ele>
        <time>2017-12-30T10:38:17Z</time>
      </trkpt>
      <trkpt lat="50.75761" lon="2.98167">
        <ele>339</ele>
        <time>2017-12-30T10:38:21Z</time>
      </trkpt>
      <trkpt lat="50.75753" lon="2.98144">
        <ele>338</ele>
        <time>2017-12-30T10:38:25Z</time>
      </trkpt>
      <trkpt lat="50.75744" lon="2.9812">
        <ele>339</ele>
        <time>2017-12-30T10:38:29Z</time>
      </trkpt>
      <trkpt lat="50.75733" lon="2.98095">
        <ele>338</ele>
        <time>2017-12-30T10:38:33Z</time>
      </trkpt>
      <trkpt lat="50.75722" lon="2.9807">
        <ele>339</ele>
        <time>2017-12-30T10:38:37Z</time>
      </trkpt>
      <trkpt lat="50.75713" lon="2.98044">
        <ele>339</ele>
        <time>2017-12-30T10:38:41Z</time>
      </trkpt>
      <trkpt lat="50.75703" lon="2.98018">
        <ele>338</ele>
        <time>2017-12-30T10:38:45Z</time>
      </trkpt>
      <trkpt lat="50.75693" lon="2.9799">
        <ele>338</ele>
        <time>2017-12-30T10:38:49Z</time>
      </trkpt>
      <trkpt lat="50.75683" lon="2.97963">
        <ele>339</ele>
        <time>2017-12-30T10:38:53Z</time>
      </trkpt>
      <trkpt lat="50.75672" lon="2.97937">
        <ele>338</ele>
        <time>2017-12-30T10:38:57Z</time>
      </trkpt>
      <trkpt lat="50.75663" lon="2.9791">
        <ele>338</ele>
        <time>2017-12-30T10:39:01Z</time>
      </trkpt>
      <trkpt lat="50.75652" lon="2.97883">
        <ele>338</ele>
        <time>2017-12-30T10:39:05Z</time>
      </trkpt>
      <trkpt lat="50.75642" lon="2.97855">
        <ele>338</ele>
        <time>2017-12-30T10:39:09Z</time>
      </trkpt>
      <trkpt lat="50.75632" lon="2.97826">
        <ele>338</ele>
        <time>2017-12-30T10:39:13Z</time>
      </trkpt>
      <trkpt lat="50.75621" lon="2.97797">
        <ele>338</ele>
        <time>2017-12-30T10:39:17Z</time>
      </trkpt>
      <trkpt lat="50.7561" lon="2.97767">
        <ele>339</ele>
        <time>2017-12-30T10:39:21Z</time>
      </trkpt>
      <trkpt lat="50.75599" lon="2.97737">
        <ele>339</ele>
        <time>2017-12-30T10:39:25Z</time>
      </trkpt>
      <trkpt lat="50.75588" lon="2.97708">
        <ele>339</ele>
        <time>2017-12-30T10:39:29Z</time>
      </trkpt>
      <trkpt lat="50.75578" lon="2.97679">
        <ele>338</ele>
        <time>2017-12-30T10:39:33Z</time>
      </trkpt>
      <trkpt lat="50.75567" lon="2.97651">
        <ele>338</ele>
        <time>2017-12-30T10:39:37Z</time>
      </trkpt>
      <trkpt lat="50.75557" lon="2.97621">
        <ele>339</ele>
        <time>2017-12-30T10:39:41Z</time>
      </trkpt>
      <trkpt lat="50.75545" lon="2.97592">
        <ele>338</ele>
        <time>2017-12-30T10:39:45Z</time>
      </trkpt>
      <trkpt lat="50.75536" lon="2.97562">
        <ele>338</ele>
        <time>2017-12-30T10:39:49Z</time>
      </trkpt>
      <trkpt lat="50.75525" lon="2.97533">
        <ele>338</ele>
        <time>2017-12-30T10:39:53Z</time>
      </trkpt>
      <trkpt lat="50.75514" lon="2.97504">
        <ele>338</ele>
        <time>2017-12-30T10:39:57Z</time>
      </trkpt>
      <trkpt lat="50.75504" lon="2.97475">
        <ele>339</ele>
        <time>2017-12-30T10:40:01Z</time>
      </trkpt>
      <trkpt lat="50.75493" lon="2.97446">
        <ele>339</ele>
        <time>2017-12-30T10:40:05Z</time>
      </trkpt>
      <trkpt lat="50.75481" lon="2.97417">
        <ele>339</ele>
        <time>2017-12-30T10:40:09Z</time>
      </trkpt>
      <trkpt lat="50.7547" lon="2.97387">
        <ele>338</ele>
        <time>2017-12-30T10:40:13Z</time>
      </trkpt>
      <trkpt lat="50.7546" lon="2.97357">
        <ele>340</ele>
        <time>2017-12-30T10:40:17Z</time>
      </trkpt>
      <trkpt lat="50.7545" lon="2.97327">
        <ele>338</ele>
        <time>2017-12-30T10:40:21Z</time>
      </trkpt>
      <trkpt lat="50.75439" lon="2.97298">
        <ele>339</ele>
        <time>2017-12-30T10:40:25Z</time>
      </trkpt>
      <trkpt lat="50.75429" lon="2.9727">
        <ele>339</ele>
        <time>2017-12-30T10:40:29Z</time>
      </trkpt>
      <trkpt lat="50.75419" lon="2.97242">
        <ele>338</ele>
        <time>2017-12-30T10:40:33Z</time>
      </trkpt>
      <trkpt lat="50.75409" lon="2.97214">
        <ele>338</ele>
        <time>2017-12-30T10:40:37Z</time>
      </trkpt>
      <trkpt lat="50.75398" lon="2.97186">
        <ele>339</ele>
        <time>2017-12-30T10:40:41Z</time>
      </trkpt>
      <trkpt lat="50.75388" lon="2.97157">
        <ele>338</ele>
        <time>2017-12-30T10:40:45Z</time>
      </trkpt>
      <trkpt lat="50.75378" lon="2.9713">
        <ele>338</ele>
        <time>2017-12-30T10:40:49Z</time>
      </trkpt>
      <trkpt lat="50.75368" lon="2.97103">
        <ele>338</ele>
        <time>2017-12-30T10:40:53Z</time>
      </trkpt>
      <trkpt lat="50.75359" lon="2.97076">
        <ele>339</ele>
        <time>2017-12-30T10:40:57Z</time>
      </trkpt>
      <trkpt lat="50.75349" lon="2.97047">
        <ele>338</ele>
        <time>2017-12-30T10:41:01Z</time>
      </trkpt>
      <trkpt lat="50.75339" lon="2.97019">
        <ele>339</ele>
        <time>2017-12-30T10:41:05Z</time>
      </trkpt>
      <trkpt lat="50.7533" lon="2.96992">
        <ele>339</ele>
        <time>2017-12-30T10:41:09Z</time>
      </trkpt>
      <trkpt lat="50.7532" lon="2.96964">
        <ele>341</ele>
        <time>2017-12-30T10:41:13Z</time>
      </trkpt>
      <trkpt lat="50.75312" lon="2.96938">
        <ele>341</ele>
        <time>2017-12-30T10:41:17Z</time>
      </trkpt>
      <trkpt lat="50.75306" lon="2.96912">
        <ele>340</ele>
        <time>2017-12-30T10:41:21Z</time>
      </trkpt>
      <trkpt lat="50.75299" lon="2.96887">
        <ele>340</ele>
        <time>2017-12-30T10:41:25Z</time>
      </trkpt>
      <trkpt lat="50.75292" lon="2.96861">
        <ele>338</ele>
        <time>2017-12-30T10:41:29Z</time>
      </trkpt>
      <trkpt lat="50.75285" lon="2.96833">
        <ele>339</ele>
        <time>2017-12-30T10:41:33Z</time>
      </trkpt>
      <trkpt lat="50.75279" lon="2.96805">
        <ele>338</ele>
        <time>2017-12-30T10:41:37Z</time>
      </trkpt>
      <trkpt lat="50.75273" lon="2.96776">
        <ele>339</ele>
        <time>2017-12-30T10:41:41Z</time>
      </trkpt>
      <trkpt lat="50.75268" lon="2.96748">
        <ele>339</ele>
        <time>2017-12-30T10:41:45Z</time>
      </trkpt>
      <trkpt lat="50.75262" lon="2.9672">
        <ele>339</ele>
        <time>2017-12-30T10:41:49Z</time>
      </trkpt>
      <trkpt lat="50.75257" lon="2.96693">
        <ele>340</ele>
        <time>2017-12-30T10:41:53Z</time>
      </trkpt>
      <trkpt lat="50.75253" lon="2.96666">
        <ele>339</ele>
        <time>2017-12-30T10:41:57Z</time>
      </trkpt>
      <trkpt lat="50.75248" lon="2.96638">
        <ele>338</ele>
        <time>2017-12-30T10:42:01Z</time>
      </trkpt>
      <trkpt lat="50.75244" lon="2.96611">
        <ele>340</ele>
        <time>2017-12-30T10:42:05Z</time>
      </trkpt>
      <trkpt lat="50.7524" lon="2.96585">
        <ele>340</ele>
        <time>2017-12-30T10:42:09Z</time>
      </trkpt>
      <trkpt lat="50.75236" lon="2.96558">
        <ele>340</ele>
        <time>2017-12-30T10:42:13Z</time>
      </trkpt>
      <trkpt lat="50.75232" lon="2.9653">
        <ele>340</ele>
        <time>2017-12-30T10:42:17Z</time>
      </trkpt>
      <trkpt lat="50.75227" lon="2.96503">
        <ele>340</ele>
        <time>2017-12-30T10:42:21Z</time>
      </trkpt>
      <trkpt lat="50.75223" lon="2.96478">
        <ele>339</ele>
        <time>2017-12-30T10:42:25Z</time>
      </trkpt>
      <trkpt lat="50.75219" lon="2.96454">
        <ele>339</ele>
        <time>2017-12-30T10:42:29Z</time>
      </trkpt>
      <trkpt lat="50.75215" lon="2.96428">
        <ele>338</ele>
        <time>2017-12-30T10:42:33Z</time>
      </trkpt>
      <trkpt lat="50.75211" lon="2.96402">
        <ele>338</ele>
        <time>2017-12-30T10:42:37Z</time>
      </trkpt>
      <trkpt lat="50.75207" lon="2.96374">
        <ele>338</ele>
        <time>2017-12-30T10:42:41Z</time>
      </trkpt>
      <trkpt lat="50.75204" lon="2.96347">
        <ele>337</ele>
        <time>2017-12-30T10:42:45Z</time>
      </trkpt>
      <trkpt lat="50.75213" lon="2.96321">
        <ele>336</ele>
        <time>2017-12-30T10:42:49Z</time>
      </trkpt>
      <trkpt lat="50.75229" lon="2.96304">
        <ele>336</ele>
        <time>2017-12-30T10:42:53Z</time>
      </trkpt>
      <trkpt lat="50.75244" lon="2.96286">
        <ele>336</ele>
        <time>2017-12-30T10:42:57Z</time>
      </trkpt>
      <trkpt lat="50.7526" lon="2.96268">
        <ele>336</ele>
        <time>2017-12-30T10:43:01Z</time>
      </trkpt>
      <trkpt lat="50.75276" lon="2.96248">
        <ele>336</ele>
        <time>2017-12-30T10:43:05Z</time>
      </trkpt>
      <trkpt lat="50.75291" lon="2.96228">
        <ele>336</ele>
        <time>2017-12-30T10:43:09Z</time>
      </trkpt>
      <trkpt lat="50.75303" lon="2.96202">
        <ele>335</ele>
        <time>2017-12-30T10:43:13Z</time>
      </trkpt>
      <trkpt lat="50.75313" lon="2.96174">
        <ele>335</ele>
        <time>2017-12-30T10:43:17Z</time>
      </trkpt>
      <trkpt lat="50.75323" lon="2.96146">
        <ele>336</ele>
        <time>2017-12-30T10:43:21Z</time>
      </trkpt>
      <trkpt lat="50.75332" lon="2.96118">
        <ele>336</ele>
        <time>2017-12-30T10:43:25Z</time>
      </trkpt>
      <trkpt lat="50.7534" lon="2.9609">
        <ele>336</ele>
        <time>2017-12-30T10:43:29Z</time>
      </trkpt>
      <trkpt lat="50.7535" lon="2.96064">
        <ele>336</ele>
        <time>2017-12-30T10:43:33Z</time>
      </trkpt>
      <trkpt lat="50.75359" lon="2.96037">
        <ele>337</ele>
        <time>2017-12-30T10:43:37Z</time>
      </trkpt>
      <trkpt lat="50.75367" lon="2.96009">
        <ele>337</ele>
        <time>2017-12-30T10:43:41Z</time>
      </trkpt>
      <trkpt lat="50.75375" lon="2.95981">
        <ele>337</ele>
        <time>2017-12-30T10:43:45Z</time>
      </trkpt>
      <trkpt lat="50.75381" lon="2.95953">
        <ele>337</ele>
        <time>2017-12-30T10:43:49Z</time>
      </trkpt>
      <trkpt lat="50.75382" lon="2.95925">
        <ele>336</ele>
        <time>2017-12-30T10:43:53Z</time>
      </trkpt>
      <trkpt lat="50.75383" lon="2.95897">
        <ele>336</ele>
        <time>2017-12-30T10:43:57Z</time>
      </trkpt>
      <trkpt lat="50.75383" lon="2.95868">
        <ele>337</ele>
        <time>2017-12-30T10:44:01Z</time>
      </trkpt>
      <trkpt lat="50.75383" lon="2.95839">
        <ele>337</ele>
        <time>2017-12-30T10:44:05Z</time>
      </trkpt>
      <trkpt lat="50.75382" lon="2.95812">
        <ele>336</ele>
        <time>2017-12-30T10:44:09Z</time>
      </trkpt>
      <trkpt lat="50.75379" lon="2.95785">
        <ele>336</ele>
        <time>2017-12-30T10:44:13Z</time>
      </trkpt>
      <trkpt lat="50.75375" lon="2.95758">
        <ele>336</ele>
        <time>2017-12-30T10:44:17Z</time>
      </trkpt>
      <trkpt lat="50.7537" lon="2.95731">
        <ele>335</ele>
        <time>2017-12-30T10:44:21Z</time>
      </trkpt>
      <trkpt lat="50.75364" lon="2.95705">
        <ele>335</ele>
        <time>2017-12-30T10:44:25Z</time>
      </trkpt>
      <trkpt lat="50.75357" lon="2.9568">
        <ele>336</ele>
        <time>2017-12-30T10:44:29Z</time>
      </trkpt>
      <trkpt lat="50.75348" lon="2.95654">
        <ele>335</ele>
        <time>2017-12-30T10:44:33Z</time>
      </trkpt>
      <trkpt lat="50.75339" lon="2.95629">
        <ele>335</ele>
        <time>2017-12-30T10:44:37Z</time>
      </trkpt>
      <trkpt lat="50.75331" lon="2.95603">
        <ele>335</ele>
        <time>2017-12-30T10:44:41Z</time>
      </trkpt>
      <trkpt lat="50.75321" lon="2.95578">
        <ele>335</ele>
        <time>2017-12-30T10:44:45Z</time>
      </trkpt>
      <trkpt lat="50.75313" lon="2.95551">
        <ele>334</ele>
        <time>2017-12-30T10:44:49Z</time>
      </trkpt>
      <trkpt lat="50.75304" lon="2.95524">
        <ele>335</ele>
        <time>2017-12-30T10:44:53Z</time>
      </trkpt>
      <trkpt lat="50.75295" lon="2.95496">
        <ele>334</ele>
        <time>2017-12-30T10:44:57Z</time>
      </trkpt>
      <trkpt lat="50.75287" lon="2.95468">
        <ele>335</ele>
        <time>2017-12-30T10:45:01Z</time>
      </trkpt>
      <trkpt lat="50.7528" lon="2.9544">
        <ele>334</ele>
        <time>2017-12-30T10:45:05Z</time>
      </trkpt>
      <trkpt lat="50.75276" lon="2.95412">
        <ele>336</ele>
        <time>2017-12-30T10:45:09Z</time>
      </trkpt>
      <trkpt lat="50.75274" lon="2.95385">
        <ele>335</ele>
        <time>2017-12-30T10:45:13Z</time>
      </trkpt>
      <trkpt lat="50.75272" lon="2.95358">
        <ele>335</ele>
        <time>2017-12-30T10:45:17Z</time>
      </trkpt>
      <trkpt lat="50.75269" lon="2.95331">
        <ele>336</ele>
        <time>2017-12-30T10:45:21Z</time>
      </trkpt>
      <trkpt lat="50.75267" lon="2.95305">
        <ele>336</ele>
        <time>2017-12-30T10:45:25Z</time>
      </trkpt>
      <trkpt lat="50.75264" lon="2.95278">
        <ele>335</ele>
        <time>2017-12-30T10:45:29Z</time>
      </trkpt>
      <trkpt lat="50.7526" lon="2.9525">
        <ele>335</ele>
        <time>2017-12-30T10:45:33Z</time>
      </trkpt>
      <trkpt lat="50.75255" lon="2.95222">
        <ele>334</ele>
        <time>2017-12-30T10:45:37Z</time>
      </trkpt>
      <trkpt lat="50.75248" lon="2.95195">
        <ele>334</ele>
        <time>2017-12-30T10:45:41Z</time>
      </trkpt>
      <trkpt lat="50.75239" lon="2.95168">
        <ele>334</ele>
        <time>2017-12-30T10:45:45Z</time>
      </trkpt>
      <trkpt lat="50.75229" lon="2.95142">
        <ele>335</ele>
        <time>2017-12-30T10:45:49Z</time>
      </trkpt>
      <trkpt lat="50.75218" lon="2.95117">
        <ele>336</ele>
        <time>2017-12-30T10:45:53Z</time>
      </trkpt>
      <trkpt lat="50.75207" lon="2.95093">
        <ele>335</ele>
        <time>2017-12-30T10:45:57Z</time>
      </trkpt>
      <trkpt lat="50.75196" lon="2.95069">
        <ele>335</ele>
        <time>2017-12-30T10:46:01Z</time>
      </trkpt>
      <trkpt lat="50.75183" lon="2.95046">
        <ele>336</ele>
        <time>2017-12-30T10:46:05Z</time>
      </trkpt>
      <trkpt lat="50.75172" lon="2.95025">
        <ele>336</ele>
        <time>2017-12-30T10:46:09Z</time>
      </trkpt>
      <trkpt lat="50.75162" lon="2.95003">
        <ele>335</ele>
        <time>2017-12-30T10:46:13Z</time>
      </trkpt>
      <trkpt lat="50.75151" lon="2.94983">
        <ele>335</ele>
        <time>2017-12-30T10:46:17Z</time>
      </trkpt>
      <trkpt lat="50.75139" lon="2.94966">
        <ele>335</ele>
        <time>2017-12-30T10:46:21Z</time>
      </trkpt>
      <trkpt lat="50.75125" lon="2.94948">
        <ele>335</ele>
        <time>2017-12-30T10:46:25Z</time>
      </trkpt>
      <trkpt lat="50.7511" lon="2.9493">
        <ele>335</ele>
        <time>2017-12-30T10:46:29Z</time>
      </trkpt>
      <trkpt lat="50.75095" lon="2.94912">
        <ele>335</ele>
        <time>2017-12-30T10:46:33Z</time>
      </trkpt>
      <trkpt lat="50.75079" lon="2.94895">
        <ele>336</ele>
        <time>2017-12-30T10:46:37Z</time>
      </trkpt>
      <trkpt lat="50.75063" lon="2.94878">
        <ele>335</ele>
        <time>2017-12-30T10:46:41Z</time>
      </trkpt>
      <trkpt lat="50.75047" lon="2.9486">
        <ele>334</ele>
        <time>2017-12-30T10:46:45Z</time>
      </trkpt>
      <trkpt lat="50.7503" lon="2.94842">
        <ele>336</ele>
        <time>2017-12-30T10:46:49Z</time>
      </trkpt>
      <trkpt lat="50.75012" lon="2.94825">
        <ele>336</ele>
        <time>2017-12-30T10:46:53Z</time>
      </trkpt>
      <trkpt lat="50.74994" lon="2.94809">
        <ele>336</ele>
        <time>2017-12-30T10:46:57Z</time>
      </trkpt>
      <trkpt lat="50.74976" lon="2.94793">
        <ele>335</ele>
        <time>2017-12-30T10:47:01Z</time>
      </trkpt>
      <trkpt lat="50.74959" lon="2.94777">
        <ele>334</ele>
        <time>2017-12-30T10:47:05Z</time>
      </trkpt>
      <trkpt lat="50.74944" lon="2.94759">
        <ele>335</ele>
        <time>2017-12-30T10:47:09Z</time>
      </trkpt>
      <trkpt lat="50.74932" lon="2.94733">
        <ele>335</ele>
        <time>2017-12-30T10:47:13Z</time>
      </trkpt>
      <trkpt lat="50.74923" lon="2.94706">
        <ele>334</ele>
        <time>2017-12-30T10:47:17Z</time>
      </trkpt>
      <trkpt lat="50.74913" lon="2.94679">
        <ele>335</ele>
        <time>2017-12-30T10:47:21Z</time>
      </trkpt>
      <trkpt lat="50.74903" lon="2.94652">
        <ele>335</ele>
        <time>2017-12-30T10:47:25Z</time>
      </trkpt>
      <trkpt lat="50.74893" lon="2.94623">
        <ele>335</ele>
        <time>2017-12-30T10:47:29Z</time>
      </trkpt>
      <trkpt lat="50.74882" lon="2.94594">
        <ele>335</ele>
        <time>2017-12-30T10:47:33Z</time>
      </trkpt>
      <trkpt lat="50.74871" lon="2.94566">
        <ele>335</ele>
        <time>2017-12-30T10:47:37Z</time>
      </trkpt>
      <trkpt lat="50.74859" lon="2.94539">
        <ele>335</ele>
        <time>2017-12-30T10:47:41Z</time>
      </trkpt>
      <trkpt lat="50.74847" lon="2.94512">
        <ele>335</ele>
        <time>2017-12-30T10:47:45Z</time>
      </trkpt>
      <trkpt lat="50.74834" lon="2.94485">
        <ele>335</ele>
        <time>2017-12-30T10:47:49Z</time>
      </trkpt>
      <trkpt lat="50.7482" lon="2.94459">
        <ele>335</ele>
        <time>2017-12-30T10:47:53Z</time>
      </trkpt>
      <trkpt lat="50.74808" lon="2.94434">
        <ele>335</ele>
        <time>2017-12-30T10:47:57Z</time>
      </trkpt>
      <trkpt lat="50.74793" lon="2.9441">
        <ele>335</ele>
        <time>2017-12-30T10:48:01Z</time>
      </trkpt>
      <trkpt lat="50.7478" lon="2.94385">
        <ele>335</ele>
        <time>2017-12-30T10:48:05Z</time>
      </trkpt>
      <trkpt lat="50.74764" lon="2.9436">
        <ele>335</ele>
        <time>2017-12-30T10:48:09Z</time>
      </trkpt>
      <trkpt lat="50.74751" lon="2.94336">
        <ele>336</ele>
        <time>2017-12-30T10:48:13Z</time>
      </trkpt>
      <trkpt lat="50.74735" lon="2.94312">
        <ele>335</ele>
        <time>2017-12-30T10:48:17Z</time>
      </trkpt>
      <trkpt lat="50.7472" lon="2.94289">
        <ele>335</ele>
        <time>2017-12-30T10:48:21Z</time>
      </trkpt>
      <trkpt lat="50.74705" lon="2.94265">
        <ele>335</ele>
        <time>2017-12-30T10:48:25Z</time>
      </trkpt>
      <trkpt lat="50.74689" lon="2.94243">
        <ele>335</ele>
        <time>2017-12-30T10:48:29Z</time>
      </trkpt>
      <trkpt lat="50.74674" lon="2.94221">
        <ele>334</ele>
        <time>2017-12-30T10:48:33Z</time>
      </trkpt>
      <trkpt lat="50.74659" lon="2.94198">
        <ele>335</ele>
        <time>2017-12-30T10:48:37Z</time>
      </trkpt>
      <trkpt lat="50.74647" lon="2.94171">
        <ele>336</ele>
        <time>2017-12-30T10:48:41Z</time>
      </trkpt>
      <trkpt lat="50.74636" lon="2.94142">
        <ele>335</ele>
        <time>2017-12-30T10:48:45Z</time>
      </trkpt>
      <trkpt lat="50.74624" lon="2.94113">
        <ele>335</ele>
        <time>2017-12-30T10:48:49Z</time>
      </trkpt>
      <trkpt lat="50.74613" lon="2.94085">
        <ele>335</ele>
        <time>2017-12-30T10:48:53Z</time>
      </trkpt>
      <trkpt lat="50.74603" lon="2.94059">
        <ele>336</ele>
        <time>2017-12-30T10:48:57Z</time>
      </trkpt>
      <trkpt lat="50.74594" lon="2.94032">
        <ele>335</ele>
        <time>2017-12-30T10:49:01Z</time>
      </trkpt>
      <trkpt lat="50.74584" lon="2.94006">
        <ele>335</ele>
        <time>2017-12-30T10:49:05Z</time>
      </trkpt>
      <trkpt lat="50.74575" lon="2.93979">
        <ele>336</ele>
        <time>2017-12-30T10:49:09Z</time>
      </trkpt>
      <trkpt lat="50.74567" lon="2.9395">
        <ele>335</ele>
        <time>2017-12-30T10:49:13Z</time>
      </trkpt>
      <trkpt lat="50.7456" lon="2.9392">
        <ele>335</ele>
        <time>2017-12-30T10:49:17Z</time>
      </trkpt>
      <trkpt lat="50.74552" lon="2.9389">
        <ele>336</ele>
        <time>2017-12-30T10:49:21Z</time>
      </trkpt>
      <trkpt lat="50.74542" lon="2.93863">
        <ele>336</ele>
        <time>2017-12-30T10:49:25Z</time>
      </trkpt>
      <trkpt lat="50.74529" lon="2.93838">
        <ele>335</ele>
        <time>2017-12-30T10:49:29Z</time>
      </trkpt>
      <trkpt lat="50.74514" lon="2.93819">
        <ele>335</ele>
        <time>2017-12-30T10:49:33Z</time>
      </trkpt>
      <trkpt lat="50.74494" lon="2.93805">
        <ele>335</ele>
        <time>2017-12-30T10:49:37Z</time>
      </trkpt>
      <trkpt lat="50.74477" lon="2.93786">
        <ele>335</ele>
        <time>2017-12-30T10:49:41Z</time>
      </trkpt>
      <trkpt lat="50.74459" lon="2.93769">
        <ele>335</ele>
        <time>2017-12-30T10:49:45Z</time>
      </trkpt>
      <trkpt lat="50.74439" lon="2.93758">
        <ele>335</ele>
        <time>2017-12-30T10:49:49Z</time>
      </trkpt>
      <trkpt lat="50.74418" lon="2.93746">
        <ele>336</ele>
        <time>2017-12-30T10:49:53Z</time>
      </trkpt>
      <trkpt lat="50.74398" lon="2.93736">
        <ele>337</ele>
        <time>2017-12-30T10:49:57Z</time>
      </trkpt>
      <trkpt lat="50.74378" lon="2.93728">
        <ele>337</ele>
        <time>2017-12-30T10:50:01Z</time>
      </trkpt>
      <trkpt lat="50.74356" lon="2.93723">
        <ele>336</ele>
        <time>2017-12-30T10:50:05Z</time>
      </trkpt>
      <trkpt lat="50.74334" lon="2.93716">
        <ele>336</ele>
        <time>2017-12-30T10:50:09Z</time>
      </trkpt>
      <trkpt lat="50.74313" lon="2.93711">
        <ele>336</ele>
        <time>2017-12-30T10:50:13Z</time>
      </trkpt>
      <trkpt lat="50.74294" lon="2.93703">
        <ele>337</ele>
        <time>2017-12-30T10:50:17Z</time>
      </trkpt>
      <trkpt lat="50.74272" lon="2.93695">
        <ele>337</ele>
        <time>2017-12-30T10:50:21Z</time>
      </trkpt>
      <trkpt lat="50.74251" lon="2.93694">
        <ele>337</ele>
        <time>2017-12-30T10:50:25Z</time>
      </trkpt>
      <trkpt lat="50.74231" lon="2.93699">
        <ele>336</ele>
        <time>2017-12-30T10:50:29Z</time>
      </trkpt>
      <trkpt lat="50.74211" lon="2.93705">
        <ele>337</ele>
        <time>2017-12-30T10:50:33Z</time>
      </trkpt>
      <trkpt lat="50.74191" lon="2.93711">
        <ele>337</ele>
        <time>2017-12-30T10:50:37Z</time>
      </trkpt>
      <trkpt lat="50.7417" lon="2.93719">
        <ele>337</ele>
        <time>2017-12-30T10:50:41Z</time>
      </trkpt>
      <trkpt lat="50.7415" lon="2.93731">
        <ele>338</ele>
        <time>2017-12-30T10:50:45Z</time>
      </trkpt>
      <trkpt lat="50.7413" lon="2.9374">
        <ele>337</ele>
        <time>2017-12-30T10:50:49Z</time>
      </trkpt>
      <trkpt lat="50.7411" lon="2.9375">
        <ele>337</ele>
        <time>2017-12-30T10:50:53Z</time>
      </trkpt>
      <trkpt lat="50.7409" lon="2.93758">
        <ele>338</ele>
        <time>2017-12-30T10:50:57Z</time>
      </trkpt>
      <trkpt lat="50.74068" lon="2.93764">
        <ele>338</ele>
        <time>2017-12-30T10:51:01Z</time>
      </trkpt>
      <trkpt lat="50.74045" lon="2.93767">
        <ele>337</ele>
        <time>2017-12-30T10:51:05Z</time>
      </trkpt>
      <trkpt lat="50.74023" lon="2.9377">
        <ele>338</ele>
        <time>2017-12-30T10:51:09Z</time>
      </trkpt>
      <trkpt lat="50.74001" lon="2.93774">
        <ele>337</ele>
        <time>2017-12-30T10:51:13Z</time>
      </trkpt>
      <trkpt lat="50.73979" lon="2.93774">
        <ele>338</ele>
        <time>2017-12-30T10:51:17Z</time>
      </trkpt>
      <trkpt lat="50.73957" lon="2.93771">
        <ele>340</ele>
        <time>2017-12-30T10:51:21Z</time>
      </trkpt>
      <trkpt lat="50.73937" lon="2.93764">
        <ele>341</ele>
        <time>2017-12-30T10:51:25Z</time>
      </trkpt>
      <trkpt lat="50.73915" lon="2.93759">
        <ele>341</ele>
        <time>2017-12-30T10:51:29Z</time>
      </trkpt>
      <trkpt lat="50.73893" lon="2.93762">
        <ele>341</ele>
        <time>2017-12-30T10:51:33Z</time>
      </trkpt>
      <trkpt lat="50.73871" lon="2.93769">
        <ele>337</ele>
        <time>2017-12-30T10:51:37Z</time>
      </trkpt>
      <trkpt lat="50.73851" lon="2.93781">
        <ele>334</ele>
        <time>2017-12-30T10:51:41Z</time>
      </trkpt>
      <trkpt lat="50.73832" lon="2.938">
        <ele>335</ele>
        <time>2017-12-30T10:51:45Z</time>
      </trkpt>
      <trkpt lat="50.73815" lon="2.93821">
        <ele>335</ele>
        <time>2017-12-30T10:51:49Z</time>
      </trkpt>
      <trkpt lat="50.73799" lon="2.93846">
        <ele>335</ele>
        <time>2017-12-30T10:51:53Z</time>
      </trkpt>
      <trkpt lat="50.73787" lon="2.93875">
        <ele>335</ele>
        <time>2017-12-30T10:51:57Z</time>
      </trkpt>
      <trkpt lat="50.73772" lon="2.939">
        <ele>336</ele>
        <time>2017-12-30T10:52:01Z</time>
      </trkpt>
      <trkpt lat="50.73752" lon="2.93912">
        <ele>336</ele>
        <time>2017-12-30T10:52:05Z</time>
      </trkpt>
      <trkpt lat="50.73732" lon="2.93921">
        <ele>336</ele>
        <time>2017-12-30T10:52:09Z</time>
      </trkpt>
      <trkpt lat="50.73712" lon="2.93931">
        <ele>336</ele>
        <time>2017-12-30T10:52:13Z</time>
      </trkpt>
      <trkpt lat="50.73692" lon="2.93941">
        <ele>336</ele>
        <time>2017-12-30T10:52:17Z</time>
      </trkpt>
      <trkpt lat="50.73671" lon="2.93953">
        <ele>337</ele>
        <time>2017-12-30T10:52:21Z</time>
      </trkpt>
      <trkpt lat="50.73652" lon="2.93964">
        <ele>336</ele>
        <time>2017-12-30T10:52:25Z</time>
      </trkpt>
      <trkpt lat="50.73632" lon="2.93976">
        <ele>337</ele>
        <time>2017-12-30T10:52:29Z</time>
      </trkpt>
      <trkpt lat="50.73613" lon="2.93989">
        <ele>335</ele>
        <time>2017-12-30T10:52:33Z</time>
      </trkpt>
      <trkpt lat="50.73593" lon="2.94002">
        <ele>335</ele>
        <time>2017-12-30T10:52:37Z</time>
      </trkpt>
      <trkpt lat="50.73573" lon="2.94017">
        <ele>335</ele>
        <time>2017-12-30T10:52:41Z</time>
      </trkpt>
      <trkpt lat="50.73553" lon="2.94034">
        <ele>334</ele>
        <time>2017-12-30T10:52:45Z</time>
      </trkpt>
      <trkpt lat="50.73533" lon="2.94049">
        <ele>336</ele>
        <time>2017-12-30T10:52:49Z</time>
      </trkpt>
      <trkpt lat="50.73514" lon="2.94065">
        <ele>336</ele>
        <time>2017-12-30T10:52:53Z</time>
      </trkpt>
      <trkpt lat="50.73496" lon="2.94081">
        <ele>335</ele>
        <time>2017-12-30T10:52:57Z</time>
      </trkpt>
      <trkpt lat="50.73477" lon="2.94097">
        <ele>337</ele>
        <time>2017-12-30T10:53:01Z</time>
      </trkpt>
      <trkpt lat="50.73459" lon="2.94113">
        <ele>336</ele>
        <time>2017-12-30T10:53:05Z</time>
      </trkpt>
      <trkpt lat="50.73439" lon="2.94131">
        <ele>335</ele>
        <time>2017-12-30T10:53:09Z</time>
      </trkpt>
      <trkpt lat="50.73421" lon="2.94146">
        <ele>333</ele>
        <time>2017-12-30T10:53:13Z</time>
      </trkpt>
      <trkpt lat="50.73402" lon="2.94163">
        <ele>336</ele>
        <time>2017-12-30T10:53:17Z</time>
      </trkpt>
      <trkpt lat="50.73381" lon="2.9418">
        <ele>335</ele>
        <time>2017-12-30T10:53:21Z</time>
      </trkpt>
      <trkpt lat="50.73362" lon="2.94196">
        <ele>335</ele>
        <time>2017-12-30T10:53:25Z</time>
      </trkpt>
      <trkpt lat="50.73343" lon="2.94212">
        <ele>335</ele>
        <time>2017-12-30T10:53:29Z</time>
      </trkpt>
      <trkpt lat="50.73324" lon="2.94229">
        <ele>334</ele>
        <time>2017-12-30T10:53:33Z</time>
      </trkpt>
      <trkpt lat="50.73305" lon="2.94246">
        <ele>336</ele>
        <time>2017-12-30T10:53:37Z</time>
      </trkpt>
      <trkpt lat="50.73286" lon="2.94262">
        <ele>335</ele>
        <time>2017-12-30T10:53:41Z</time>
      </trkpt>
      <trkpt lat="50.73268" lon="2.9428">
        <ele>337</ele>
        <time>2017-12-30T10:53:45Z</time>
      </trkpt>
      <trkpt lat="50.73248" lon="2.94295">
        <ele>338</ele>
        <time>2017-12-30T10:53:49Z</time>
      </trkpt>
      <trkpt lat="50.73229" lon="2.94303">
        <ele>336</ele>
        <time>2017-12-30T10:53:53Z</time>
      </trkpt>
      <trkpt lat="50.73208" lon="2.94304">
        <ele>338</ele>
        <time>2017-12-30T10:53:57Z</time>
      </trkpt>
      <trkpt lat="50.73189" lon="2.943">
        <ele>340</ele>
        <time>2017-12-30T10:54:01Z</time>
      </trkpt>
      <trkpt lat="50.73171" lon="2.94292">
        <ele>337</ele>
        <time>2017-12-30T10:54:05Z</time>
      </trkpt>
      <trkpt lat="50.73154" lon="2.94281">
        <ele>336</ele>
        <time>2017-12-30T10:54:09Z</time>
      </trkpt>
      <trkpt lat="50.7314" lon="2.94264">
        <ele>336</ele>
        <time>2017-12-30T10:54:13Z</time>
      </trkpt>
      <trkpt lat="50.73126" lon="2.94245">
        <ele>334</ele>
        <time>2017-12-30T10:54:17Z</time>
      </trkpt>
      <trkpt lat="50.73115" lon="2.94221">
        <ele>335</ele>
        <time>2017-12-30T10:54:21Z</time>
      </trkpt>
      <trkpt lat="50.73105" lon="2.94194">
        <ele>335</ele>
        <time>2017-12-30T10:54:25Z</time>
      </trkpt>
      <trkpt lat="50.73097" lon="2.94168">
        <ele>334</ele>
        <time>2017-12-30T10:54:29Z</time>
      </trkpt>
      <trkpt lat="50.73088" lon="2.94141">
        <ele>334</ele>
        <time>2017-12-30T10:54:33Z</time>
      </trkpt>
      <trkpt lat="50.73079" lon="2.94112">
        <ele>334</ele>
        <time>2017-12-30T10:54:37Z</time>
      </trkpt>
      <trkpt lat="50.73071" lon="2.94082">
        <ele>334</ele>
        <time>2017-12-30T10:54:41Z</time>
      </trkpt>
      <trkpt lat="50.73064" lon="2.94052">
        <ele>334</ele>
        <time>2017-12-30T10:54:45Z</time>
      </trkpt>
      <trkpt lat="50.73058" lon="2.94021">
        <ele>334</ele>
        <time>2017-12-30T10:54:49Z</time>
      </trkpt>
      <trkpt lat="50.73055" lon="2.9399">
        <ele>335</ele>
        <time>2017-12-30T10:54:53Z</time>
      </trkpt>
      <trkpt lat="50.73052" lon="2.93964">
        <ele>334</ele>
        <time>2017-12-30T10:54:57Z</time>
      </trkpt>
      <trkpt lat="50.73051" lon="2.9394">
        <ele>334</ele>
        <time>2017-12-30T10:55:01Z</time>
      </trkpt>
      <trkpt lat="50.73049" lon="2.93913">
        <ele>334</ele>
        <time>2017-12-30T10:55:05Z</time>
      </trkpt>
      <trkpt lat="50.73048" lon="2.93885">
        <ele>334</ele>
        <time>2017-12-30T10:55:09Z</time>
      </trkpt>
      <trkpt lat="50.73046" lon="2.93857">
        <ele>334</ele>
        <time>2017-12-30T10:55:13Z</time>
      </trkpt>
      <trkpt lat="50.73044" lon="2.93828">
        <ele>334</ele>
        <time>2017-12-30T10:55:17Z</time>
      </trkpt>
      <trkpt lat="50.73043" lon="2.93799">
        <ele>334</ele>
        <time>2017-12-30T10:55:21Z</time>
      </trkpt>
      <trkpt lat="50.73042" lon="2.93769">
        <ele>334</ele>
        <time>2017-12-30T10:55:25Z</time>
      </trkpt>
      <trkpt lat="50.73041" lon="2.93739">
        <ele>334</ele>
        <time>2017-12-30T10:55:29Z</time>
      </trkpt>
      <trkpt lat="50.73038" lon="2.93712">
        <ele>334</ele>
        <time>2017-12-30T10:55:33Z</time>
      </trkpt>
      <trkpt lat="50.73035" lon="2.93687">
        <ele>336</ele>
        <time>2017-12-30T10:55:37Z</time>
      </trkpt>
      <trkpt lat="50.73035" lon="2.93664">
        <ele>337</ele>
        <time>2017-12-30T10:55:41Z</time>
      </trkpt>
      <trkpt lat="50.73036" lon="2.93646">
        <ele>339</ele>
        <time>2017-12-30T10:55:45Z</time>
      </trkpt>
      <trkpt lat="50.7304" lon="2.93631">
        <ele>337</ele>
        <time>2017-12-30T10:55:49Z</time>
      </trkpt>
      <trkpt lat="50.73035" lon="2.93634">
        <ele>338</ele>
        <time>2017-12-30T10:55:53Z</time>
      </trkpt>
      <trkpt lat="50.73029" lon="2.93648">
        <ele>339</ele>
        <time>2017-12-30T10:55:57Z</time>
      </trkpt>
      <trkpt lat="50.73022" lon="2.93666">
        <ele>339</ele>
        <time>2017-12-30T10:56:01Z</time>
      </trkpt>
      <trkpt lat="50.73012" lon="2.93687">
        <ele>335</ele>
        <time>2017-12-30T10:56:05Z</time>
      </trkpt>
      <trkpt lat="50.73" lon="2.93709">
        <ele>338</ele>
        <time>2017-12-30T10:56:09Z</time>
      </trkpt>
      <trkpt lat="50.72987" lon="2.93734">
        <ele>338</ele>
        <time>2017-12-30T10:56:13Z</time>
      </trkpt>
      <trkpt lat="50.72977" lon="2.93765">
        <ele>338</ele>
        <time>2017-12-30T10:56:17Z</time>
      </trkpt>
      <trkpt lat="50.72985" lon="2.93804">
        <ele>336</ele>
        <time>2017-12-30T10:56:21Z</time>
      </trkpt>
      <trkpt lat="50.72994" lon="2.93852">
        <ele>333</ele>
        <time>2017-12-30T10:56:25Z</time>
      </trkpt>
      <trkpt lat="50.72997" lon="2.93899">
        <ele>332</ele>
        <time>2017-12-30T10:56:29Z</time>
      </trkpt>
      <trkpt lat="50.72998" lon="2.93943">
        <ele>333</ele>
        <time>2017-12-30T10:56:33Z</time>
      </trkpt>
      <trkpt lat="50.72998" lon="2.93985">
        <ele>332</ele>
        <time>2017-12-30T10:56:37Z</time>
      </trkpt>
      <trkpt lat="50.73" lon="2.94024">
        <ele>332</ele>
        <time>2017-12-30T10:56:41Z</time>
      </trkpt>
      <trkpt lat="50.73001" lon="2.94062">
        <ele>333</ele>
        <time>2017-12-30T10:56:45Z</time>
      </trkpt>
      <trkpt lat="50.73007" lon="2.94096">
        <ele>332</ele>
        <time>2017-12-30T10:56:49Z</time>
      </trkpt>
      <trkpt lat="50.73018" lon="2.94129">
        <ele>331</ele>
        <time>2017-12-30T10:56:53Z</time>
      </trkpt>
      <trkpt lat="50.73031" lon="2.94162">
        <ele>332</ele>
        <time>2017-12-30T10:56:57Z</time>
      </trkpt>
      <trkpt lat="50.73041" lon="2.94198">
        <ele>332</ele>
        <time>2017-12-30T10:57:01Z</time>
      </trkpt>
      <trkpt lat="50.73051" lon="2.94234">
        <ele>333</ele>
        <time>2017-12-30T10:57:05Z</time>
      </trkpt>
      <trkpt lat="50.7306" lon="2.9427">
        <ele>333</ele>
        <time>2017-12-30T10:57:09Z</time>
      </trkpt>
      <trkpt lat="50.73067" lon="2.94309">
        <ele>333</ele>
        <time>2017-12-30T10:57:13Z</time>
      </trkpt>
      <trkpt lat="50.73067" lon="2.9435">
        <ele>333</ele>
        <time>2017-12-30T10:57:17Z</time>
      </trkpt>
      <trkpt lat="50.73063" lon="2.94388">
        <ele>333</ele>
        <time>2017-12-30T10:57:21Z</time>
      </trkpt>
      <trkpt lat="50.73052" lon="2.94422">
        <ele>334</ele>
        <time>2017-12-30T10:57:25Z</time>
      </trkpt>
      <trkpt lat="50.73038" lon="2.94454">
        <ele>334</ele>
        <time>2017-12-30T10:57:29Z</time>
      </trkpt>
      <trkpt lat="50.73022" lon="2.94482">
        <ele>333</ele>
        <time>2017-12-30T10:57:33Z</time>
      </trkpt>
      <trkpt lat="50.73" lon="2.94503">
        <ele>338</ele>
        <time>2017-12-30T10:57:37Z</time>
      </trkpt>
      <trkpt lat="50.72978" lon="2.94516">
        <ele>334</ele>
        <time>2017-12-30T10:57:41Z</time>
      </trkpt>
      <trkpt lat="50.72956" lon="2.94531">
        <ele>334</ele>
        <time>2017-12-30T10:57:45Z</time>
      </trkpt>
      <trkpt lat="50.72934" lon="2.9455">
        <ele>336</ele>
        <time>2017-12-30T10:57:49Z</time>
      </trkpt>
      <trkpt lat="50.72913" lon="2.94568">
        <ele>333</ele>
        <time>2017-12-30T10:57:53Z</time>
      </trkpt>
      <trkpt lat="50.7289" lon="2.94587">
        <ele>334</ele>
        <time>2017-12-30T10:57:57Z</time>
      </trkpt>
      <trkpt lat="50.72868" lon="2.94606">
        <ele>334</ele>
        <time>2017-12-30T10:58:01Z</time>
      </trkpt>
      <trkpt lat="50.72847" lon="2.94625">
        <ele>334</ele>
        <time>2017-12-30T10:58:05Z</time>
      </trkpt>
      <trkpt lat="50.72827" lon="2.94641">
        <ele>334</ele>
        <time>2017-12-30T10:58:09Z</time>
      </trkpt>
      <trkpt lat="50.72807" lon="2.94658">
        <ele>335</ele>
        <time>2017-12-30T10:58:13Z</time>
      </trkpt>
      <trkpt lat="50.72788" lon="2.94674">
        <ele>335</ele>
        <time>2017-12-30T10:58:17Z</time>
      </trkpt>
      <trkpt lat="50.72767" lon="2.94691">
        <ele>335</ele>
        <time>2017-12-30T10:58:21Z</time>
      </trkpt>
      <trkpt lat="50.72747" lon="2.94708">
        <ele>334</ele>
        <time>2017-12-30T10:58:25Z</time>
      </trkpt>
      <trkpt lat="50.72727" lon="2.94725">
        <ele>334</ele>
        <time>2017-12-30T10:58:29Z</time>
      </trkpt>
      <trkpt lat="50.72707" lon="2.94742">
        <ele>333</ele>
        <time>2017-12-30T10:58:33Z</time>
      </trkpt>
      <trkpt lat="50.72687" lon="2.94758">
        <ele>335</ele>
        <time>2017-12-30T10:58:37Z</time>
      </trkpt>
      <trkpt lat="50.72667" lon="2.94775">
        <ele>336</ele>
        <time>2017-12-30T10:58:41Z</time>
      </trkpt>
      <trkpt lat="50.72647" lon="2.94791">
        <ele>338</ele>
        <time>2017-12-30T10:58:45Z</time>
      </trkpt>
      <trkpt lat="50.72628" lon="2.94806">
        <ele>337</ele>
        <time>2017-12-30T10:58:49Z</time>
      </trkpt>
      <trkpt lat="50.7261" lon="2.94821">
        <ele>336</ele>
        <time>2017-12-30T10:58:53Z</time>
      </trkpt>
      <trkpt lat="50.72591" lon="2.94836">
        <ele>334</ele>
        <time>2017-12-30T10:58:57Z</time>
      </trkpt>
      <trkpt lat="50.72574" lon="2.9485">
        <ele>334</ele>
        <time>2017-12-30T10:59:01Z</time>
      </trkpt>
      <trkpt lat="50.72558" lon="2.94866">
        <ele>333</ele>
        <time>2017-12-30T10:59:05Z</time>
      </trkpt>
      <trkpt lat="50.72544" lon="2.94884">
        <ele>333</ele>
        <time>2017-12-30T10:59:09Z</time>
      </trkpt>
      <trkpt lat="50.72525" lon="2.9489">
        <ele>334</ele>
        <time>2017-12-30T10:59:13Z</time>
      </trkpt>
      <trkpt lat="50.72506" lon="2.94885">
        <ele>334</ele>
        <time>2017-12-30T10:59:17Z</time>
      </trkpt>
      <trkpt lat="50.72487" lon="2.94889">
        <ele>340</ele>
        <time>2017-12-30T10:59:21Z</time>
      </trkpt>
      <trkpt lat="50.72468" lon="2.94901">
        <ele>336</ele>
        <time>2017-12-30T10:59:25Z</time>
      </trkpt>
      <trkpt lat="50.7245" lon="2.94912">
        <ele>334</ele>
        <time>2017-12-30T10:59:29Z</time>
      </trkpt>
      <trkpt lat="50.72435" lon="2.94921">
        <ele>335</ele>
        <time>2017-12-30T10:59:33Z</time>
      </trkpt>
      <trkpt lat="50.72424" lon="2.94931">
        <ele>332</ele>
        <time>2017-12-30T10:59:37Z</time>
      </trkpt>
      <trkpt lat="50.72424" lon="2.94957">
        <ele>332</ele>
        <time>2017-12-30T10:59:41Z</time>
      </trkpt>
      <trkpt lat="50.7243" lon="2.94987">
        <ele>332</ele>
        <time>2017-12-30T10:59:45Z</time>
      </trkpt>
      <trkpt lat="50.72416" lon="2.95007">
        <ele>333</ele>
        <time>2017-12-30T10:59:49Z</time>
      </trkpt>
      <trkpt lat="50.72396" lon="2.95022">
        <ele>332</ele>
        <time>2017-12-30T10:59:53Z</time>
      </trkpt>
      <trkpt lat="50.72376" lon="2.95036">
        <ele>332</ele>
        <time>2017-12-30T10:59:57Z</time>
      </trkpt>
      <trkpt lat="50.72357" lon="2.95055">
        <ele>333</ele>
        <time>2017-12-30T11:00:01Z</time>
      </trkpt>
      <trkpt lat="50.72337" lon="2.95073">
        <ele>334</ele>
        <time>2017-12-30T11:00:05Z</time>
      </trkpt>
      <trkpt lat="50.72316" lon="2.95088">
        <ele>334</ele>
        <time>2017-12-30T11:00:09Z</time>
      </trkpt>
      <trkpt lat="50.72297" lon="2.95104">
        <ele>333</ele>
        <time>2017-12-30T11:00:13Z</time>
      </trkpt>
      <trkpt lat="50.72286" lon="2.95134">
        <ele>332</ele>
        <time>2017-12-30T11:00:17Z</time>
      </trkpt>
      <trkpt lat="50.72285" lon="2.9517">
        <ele>332</ele>
        <time>2017-12-30T11:00:21Z</time>
      </trkpt>
      <trkpt lat="50.72282" lon="2.95206">
        <ele>332</ele>
        <time>2017-12-30T11:00:25Z</time>
      </trkpt>
      <trkpt lat="50.72284" lon="2.9524">
        <ele>332</ele>
        <time>2017-12-30T11:00:29Z</time>
      </trkpt>
      <trkpt lat="50.72292" lon="2.95271">
        <ele>333</ele>
        <time>2017-12-30T11:00:33Z</time>
      </trkpt>
      <trkpt lat="50.72303" lon="2.95297">
        <ele>334</ele>
        <time>2017-12-30T11:00:37Z</time>
      </trkpt>
      <trkpt lat="50.72306" lon="2.9532">
        <ele>333</ele>
        <time>2017-12-30T11:00:41Z</time>
      </trkpt>
      <trkpt lat="50.72297" lon="2.95348">
        <ele>333</ele>
        <time>2017-12-30T11:00:45Z</time>
      </trkpt>
      <trkpt lat="50.72289" lon="2.95382">
        <ele>332</ele>
        <time>2017-12-30T11:00:49Z</time>
      </trkpt>
      <trkpt lat="50.72283" lon="2.95418">
        <ele>331</ele>
        <time>2017-12-30T11:00:53Z</time>
      </trkpt>
      <trkpt lat="50.72276" lon="2.95456">
        <ele>333</ele>
        <time>2017-12-30T11:00:57Z</time>
      </trkpt>
      <trkpt lat="50.72268" lon="2.95493">
        <ele>333</ele>
        <time>2017-12-30T11:01:01Z</time>
      </trkpt>
      <trkpt lat="50.72263" lon="2.95531">
        <ele>333</ele>
        <time>2017-12-30T11:01:05Z</time>
      </trkpt>
      <trkpt lat="50.72258" lon="2.95569">
        <ele>333</ele>
        <time>2017-12-30T11:01:09Z</time>
      </trkpt>
      <trkpt lat="50.72254" lon="2.9561">
        <ele>332</ele>
        <time>2017-12-30T11:01:13Z</time>
      </trkpt>
      <trkpt lat="50.72251" lon="2.95651">
        <ele>331</ele>
        <time>2017-12-30T11:01:17Z</time>
      </trkpt>
      <trkpt lat="50.72249" lon="2.95693">
        <ele>331</ele>
        <time>2017-12-30T11:01:21Z</time>
      </trkpt>
      <trkpt lat="50.72247" lon="2.95735">
        <ele>331</ele>
        <time>2017-12-30T11:01:25Z</time>
      </trkpt>
      <trkpt lat="50.72247" lon="2.95777">
        <ele>331</ele>
        <time>2017-12-30T11:01:29Z</time>
      </trkpt>
      <trkpt lat="50.72247" lon="2.95818">
        <ele>332</ele>
        <time>2017-12-30T11:01:33Z</time>
      </trkpt>
      <trkpt lat="50.72248" lon="2.95861">
        <ele>331</ele>
        <time>2017-12-30T11:01:37Z</time>
      </trkpt>
      <trkpt lat="50.72249" lon="2.95904">
        <ele>331</ele>
        <time>2017-12-30T11:01:41Z</time>
      </trkpt>
      <trkpt lat="50.72241" lon="2.95942">
        <ele>331</ele>
        <time>2017-12-30T11:01:45Z</time>
      </trkpt>
      <trkpt lat="50.72225" lon="2.95974">
        <ele>331</ele>
        <time>2017-12-30T11:01:49Z</time>
      </trkpt>
      <trkpt lat="50.72224" lon="2.96015">
        <ele>331</ele>
        <time>2017-12-30T11:01:53Z</time>
      </trkpt>
      <trkpt lat="50.72231" lon="2.96052">
        <ele>331</ele>
        <time>2017-12-30T11:01:57Z</time>
      </trkpt>
      <trkpt lat="50.72247" lon="2.96086">
        <ele>331</ele>
        <time>2017-12-30T11:02:01Z</time>
      </trkpt>
      <trkpt lat="50.72252" lon="2.96125">
        <ele>331</ele>
        <time>2017-12-30T11:02:05Z</time>
      </trkpt>
      <trkpt lat="50.72251" lon="2.96165">
        <ele>332</ele>
        <time>2017-12-30T11:02:09Z</time>
      </trkpt>
      <trkpt lat="50.72249" lon="2.96208">
        <ele>331</ele>
        <time>2017-12-30T11:02:13Z</time>
      </trkpt>
      <trkpt lat="50.72247" lon="2.9625">
        <ele>330</ele>
        <time>2017-12-30T11:02:17Z</time>
      </trkpt>
      <trkpt lat="50.72243" lon="2.96292">
        <ele>330</ele>
        <time>2017-12-30T11:02:21Z</time>
      </trkpt>
      <trkpt lat="50.72238" lon="2.96335">
        <ele>330</ele>
        <time>2017-12-30T11:02:25Z</time>
      </trkpt>
      <trkpt lat="50.72232" lon="2.96376">
        <ele>330</ele>
        <time>2017-12-30T11:02:29Z</time>
      </trkpt>
      <trkpt lat="50.72224" lon="2.96418">
        <ele>329</ele>
        <time>2017-12-30T11:02:33Z</time>
      </trkpt>
      <trkpt lat="50.72215" lon="2.9646">
        <ele>330</ele>
        <time>2017-12-30T11:02:37Z</time>
      </trkpt>
      <trkpt lat="50.72205" lon="2.96497">
        <ele>331</ele>
        <time>2017-12-30T11:02:41Z</time>
      </trkpt>
      <trkpt lat="50.72195" lon="2.96536">
        <ele>332</ele>
        <time>2017-12-30T11:02:45Z</time>
      </trkpt>
      <trkpt lat="50.72182" lon="2.96571">
        <ele>331</ele>
        <time>2017-12-30T11:02:49Z</time>
      </trkpt>
      <trkpt lat="50.72168" lon="2.96608">
        <ele>331</ele>
        <time>2017-12-30T11:02:53Z</time>
      </trkpt>
      <trkpt lat="50.72154" lon="2.96643">
        <ele>331</ele>
        <time>2017-12-30T11:02:57Z</time>
      </trkpt>
      <trkpt lat="50.72139" lon="2.96676">
        <ele>331</ele>
        <time>2017-12-30T11:03:01Z</time>
      </trkpt>
      <trkpt lat="50.72123" lon="2.9671">
        <ele>331</ele>
        <time>2017-12-30T11:03:05Z</time>
      </trkpt>
      <trkpt lat="50.72106" lon="2.96742">
        <ele>331</ele>
        <time>2017-12-30T11:03:09Z</time>
      </trkpt>
      <trkpt lat="50.72089" lon="2.96776">
        <ele>331</ele>
        <time>2017-12-30T11:03:13Z</time>
      </trkpt>
      <trkpt lat="50.72073" lon="2.9681">
        <ele>330</ele>
        <time>2017-12-30T11:03:17Z</time>
      </trkpt>
      <trkpt lat="50.72055" lon="2.96842">
        <ele>331</ele>
        <time>2017-12-30T11:03:21Z</time>
      </trkpt>
      <trkpt lat="50.72037" lon="2.96874">
        <ele>330</ele>
        <time>2017-12-30T11:03:25Z</time>
      </trkpt>
      <trkpt lat="50.7202" lon="2.96907">
        <ele>330</ele>
        <time>2017-12-30T11:03:29Z</time>
      </trkpt>
      <trkpt lat="50.72002" lon="2.96939">
        <ele>330</ele>
        <time>2017-12-30T11:03:33Z</time>
      </trkpt>
      <trkpt lat="50.71985" lon="2.96972">
        <ele>331</ele>
        <time>2017-12-30T11:03:37Z</time>
      </trkpt>
      <trkpt lat="50.71969" lon="2.97007">
        <ele>329</ele>
        <time>2017-12-30T11:03:41Z</time>
      </trkpt>
      <trkpt lat="50.71954" lon="2.97042">
        <ele>330</ele>
        <time>2017-12-30T11:03:45Z</time>
      </trkpt>
      <trkpt lat="50.71939" lon="2.97077">
        <ele>331</ele>
        <time>2017-12-30T11:03:49Z</time>
      </trkpt>
      <trkpt lat="50.71924" lon="2.97111">
        <ele>330</ele>
        <time>2017-12-30T11:03:53Z</time>
      </trkpt>
      <trkpt lat="50.71909" lon="2.97146">
        <ele>330</ele>
        <time>2017-12-30T11:03:57Z</time>
      </trkpt>
      <trkpt lat="50.71894" lon="2.97181">
        <ele>330</ele>
        <time>2017-12-30T11:04:01Z</time>
      </trkpt>
      <trkpt lat="50.71878" lon="2.97216">
        <ele>331</ele>
        <time>2017-12-30T11:04:05Z</time>
      </trkpt>
      <trkpt lat="50.71864" lon="2.97251">
        <ele>331</ele>
        <time>2017-12-30T11:04:09Z</time>
      </trkpt>
      <trkpt lat="50.7185" lon="2.97287">
        <ele>331</ele>
        <time>2017-12-30T11:04:13Z</time>
      </trkpt>
      <trkpt lat="50.71836" lon="2.97323">
        <ele>330</ele>
        <time>2017-12-30T11:04:17Z</time>
      </trkpt>
      <trkpt lat="50.71823" lon="2.97359">
        <ele>329</ele>
        <time>2017-12-30T11:04:21Z</time>
      </trkpt>
      <trkpt lat="50.7181" lon="2.97397">
        <ele>329</ele>
        <time>2017-12-30T11:04:25Z</time>
      </trkpt>
      <trkpt lat="50.71797" lon="2.97436">
        <ele>329</ele>
        <time>2017-12-30T11:04:29Z</time>
      </trkpt>
      <trkpt lat="50.71786" lon="2.97475">
        <ele>330</ele>
        <time>2017-12-30T11:04:33Z</time>
      </trkpt>
      <trkpt lat="50.71774" lon="2.97514">
        <ele>330</ele>
        <time>2017-12-30T11:04:37Z</time>
      </trkpt>
      <trkpt lat="50.71763" lon="2.97552">
        <ele>330</ele>
        <time>2017-12-30T11:04:41Z</time>
      </trkpt>
      <trkpt lat="50.71752" lon="2.97592">
        <ele>331</ele>
        <time>2017-12-30T11:04:45Z</time>
      </trkpt>
      <trkpt lat="50.71742" lon="2.97631">
        <ele>330</ele>
        <time>2017-12-30T11:04:49Z</time>
      </trkpt>
      <trkpt lat="50.71732" lon="2.9767">
        <ele>331</ele>
        <time>2017-12-30T11:04:53Z</time>
      </trkpt>
      <trkpt lat="50.71722" lon="2.97709">
        <ele>330</ele>
        <time>2017-12-30T11:04:57Z</time>
      </trkpt>
      <trkpt lat="50.71715" lon="2.97744">
        <ele>331</ele>
        <time>2017-12-30T11:05:01Z</time>
      </trkpt>
      <trkpt lat="50.71707" lon="2.97782">
        <ele>331</ele>
        <time>2017-12-30T11:05:05Z</time>
      </trkpt>
      <trkpt lat="50.71699" lon="2.97821">
        <ele>330</ele>
        <time>2017-12-30T11:05:09Z</time>
      </trkpt>
      <trkpt lat="50.7169" lon="2.97859">
        <ele>329</ele>
        <time>2017-12-30T11:05:13Z</time>
      </trkpt>
      <trkpt lat="50.71681" lon="2.97898">
        <ele>330</ele>
        <time>2017-12-30T11:05:17Z</time>
      </trkpt>
      <trkpt lat="50.71672" lon="2.97937">
        <ele>331</ele>
        <time>2017-12-30T11:05:21Z</time>
      </trkpt>
      <trkpt lat="50.71663" lon="2.97977">
        <ele>331</ele>
        <time>2017-12-30T11:05:25Z</time>
      </trkpt>
      <trkpt lat="50.71654" lon="2.98015">
        <ele>330</ele>
        <time>2017-12-30T11:05:29Z</time>
      </trkpt>
      <trkpt lat="50.71645" lon="2.98053">
        <ele>330</ele>
        <time>2017-12-30T11:05:33Z</time>
      </trkpt>
      <trkpt lat="50.71637" lon="2.98094">
        <ele>331</ele>
        <time>2017-12-30T11:05:37Z</time>
      </trkpt>
      <trkpt lat="50.71629" lon="2.98135">
        <ele>331</ele>
        <time>2017-12-30T11:05:41Z</time>
      </trkpt>
      <trkpt lat="50.7162" lon="2.98175">
        <ele>330</ele>
        <time>2017-12-30T11:05:45Z</time>
      </trkpt>
      <trkpt lat="50.71609" lon="2.98217">
        <ele>330</ele>
        <time>2017-12-30T11:05:49Z</time>
      </trkpt>
      <trkpt lat="50.71599" lon="2.98259">
        <ele>330</ele>
        <time>2017-12-30T11:05:53Z</time>
      </trkpt>
      <trkpt lat="50.7159" lon="2.98302">
        <ele>329</ele>
        <time>2017-12-30T11:05:57Z</time>
      </trkpt>
      <trkpt lat="50.71579" lon="2.98344">
        <ele>330</ele>
        <time>2017-12-30T11:06:01Z</time>
      </trkpt>
      <trkpt lat="50.7157" lon="2.98383">
        <ele>329</ele>
        <time>2017-12-30T11:06:05Z</time>
      </trkpt>
      <trkpt lat="50.71559" lon="2.98425">
        <ele>330</ele>
        <time>2017-12-30T11:06:09Z</time>
      </trkpt>
      <trkpt lat="50.71548" lon="2.98468">
        <ele>330</ele>
        <time>2017-12-30T11:06:13Z</time>
      </trkpt>
      <trkpt lat="50.71537" lon="2.98508">
        <ele>330</ele>
        <time>2017-12-30T11:06:17Z</time>
      </trkpt>
      <trkpt lat="50.71523" lon="2.98544">
        <ele>331</ele>
        <time>2017-12-30T11:06:21Z</time>
      </trkpt>
      <trkpt lat="50.71506" lon="2.98575">
        <ele>331</ele>
        <time>2017-12-30T11:06:25Z</time>
      </trkpt>
      <trkpt lat="50.71488" lon="2.98607">
        <ele>330</ele>
        <time>2017-12-30T11:06:29Z</time>
      </trkpt>
      <trkpt lat="50.71471" lon="2.98638">
        <ele>330</ele>
        <time>2017-12-30T11:06:33Z</time>
      </trkpt>
      <trkpt lat="50.71454" lon="2.98666">
        <ele>331</ele>
        <time>2017-12-30T11:06:37Z</time>
      </trkpt>
      <trkpt lat="50.71438" lon="2.98693">
        <ele>331</ele>
        <time>2017-12-30T11:06:41Z</time>
      </trkpt>
      <trkpt lat="50.71421" lon="2.98722">
        <ele>331</ele>
        <time>2017-12-30T11:06:45Z</time>
      </trkpt>
      <trkpt lat="50.71407" lon="2.98751">
        <ele>330</ele>
        <time>2017-12-30T11:06:49Z</time>
      </trkpt>
      <trkpt lat="50.714" lon="2.98784">
        <ele>330</ele>
        <time>2017-12-30T11:06:53Z</time>
      </trkpt>
      <trkpt lat="50.71393" lon="2.98821">
        <ele>330</ele>
        <time>2017-12-30T11:06:57Z</time>
      </trkpt>
      <trkpt lat="50.71388" lon="2.98859">
        <ele>330</ele>
        <time>2017-12-30T11:07:01Z</time>
      </trkpt>
      <trkpt lat="50.71383" lon="2.98896">
        <ele>330</ele>
        <time>2017-12-30T11:07:05Z</time>
      </trkpt>
      <trkpt lat="50.71379" lon="2.98936">
        <ele>330</ele>
        <time>2017-12-30T11:07:09Z</time>
      </trkpt>
      <trkpt lat="50.71374" lon="2.98975">
        <ele>330</ele>
        <time>2017-12-30T11:07:13Z</time>
      </trkpt>
      <trkpt lat="50.71369" lon="2.99012">
        <ele>330</ele>
        <time>2017-12-30T11:07:17Z</time>
      </trkpt>
      <trkpt lat="50.71364" lon="2.99047">
        <ele>329</ele>
        <time>2017-12-30T11:07:21Z</time>
      </trkpt>
      <trkpt lat="50.71354" lon="2.99078">
        <ele>330</ele>
        <time>2017-12-30T11:07:25Z</time>
      </trkpt>
      <trkpt lat="50.71347" lon="2.99113">
        <ele>330</ele>
        <time>2017-12-30T11:07:29Z</time>
      </trkpt>
      <trkpt lat="50.71344" lon="2.99143">
        <ele>329</ele>
        <time>2017-12-30T11:07:33Z</time>
      </trkpt>
      <trkpt lat="50.71342" lon="2.99168">
        <ele>330</ele>
        <time>2017-12-30T11:07:37Z</time>
      </trkpt>
      <trkpt lat="50.71334" lon="2.99186">
        <ele>331</ele>
        <time>2017-12-30T11:07:41Z</time>
      </trkpt>
      <trkpt lat="50.71319" lon="2.99196">
        <ele>329</ele>
        <time>2017-12-30T11:07:45Z</time>
      </trkpt>
      <trkpt lat="50.71307" lon="2.99215">
        <ele>329</ele>
        <time>2017-12-30T11:07:49Z</time>
      </trkpt>
      <trkpt lat="50.71296" lon="2.9924">
        <ele>328</ele>
        <time>2017-12-30T11:07:53Z</time>
      </trkpt>
      <trkpt lat="50.71284" lon="2.99266">
        <ele>329</ele>
        <time>2017-12-30T11:07:57Z</time>
      </trkpt>
      <trkpt lat="50.7127" lon="2.99294">
        <ele>329</ele>
        <time>2017-12-30T11:08:01Z</time>
      </trkpt>
      <trkpt lat="50.71257" lon="2.99322">
        <ele>331</ele>
        <time>2017-12-30T11:08:05Z</time>
      </trkpt>
      <trkpt lat="50.71244" lon="2.99353">
        <ele>331</ele>
        <time>2017-12-30T11:08:09Z</time>
      </trkpt>
      <trkpt lat="50.71231" lon="2.99382">
        <ele>330</ele>
        <time>2017-12-30T11:08:13Z</time>
      </trkpt>
      <trkpt lat="50.71217" lon="2.99406">
        <ele>331</ele>
        <time>2017-12-30T11:08:17Z</time>
      </trkpt>
      <trkpt lat="50.71202" lon="2.99422">
        <ele>331</ele>
        <time>2017-12-30T11:08:21Z</time>
      </trkpt>
      <trkpt lat="50.71191" lon="2.99438">
        <ele>329</ele>
        <time>2017-12-30T11:08:25Z</time>
      </trkpt>
      <trkpt lat="50.71179" lon="2.99452">
        <ele>328</ele>
        <time>2017-12-30T11:08:29Z</time>
      </trkpt>
      <trkpt lat="50.71166" lon="2.99471">
        <ele>328</ele>
        <time>2017-12-30T11:08:33Z</time>
      </trkpt>
      <trkpt lat="50.71167" lon="2.99494">
        <ele>328</ele>
        <time>2017-12-30T11:08:37Z</time>
      </trkpt>
      <trkpt lat="50.71158" lon="2.9952">
        <ele>328</ele>
        <time>2017-12-30T11:08:41Z</time>
      </trkpt>
      <trkpt lat="50.71145" lon="2.99545">
        <ele>328</ele>
        <time>2017-12-30T11:08:45Z</time>
      </trkpt>
      <trkpt lat="50.71132" lon="2.99571">
        <ele>328</ele>
        <time>2017-12-30T11:08:49Z</time>
      </trkpt>
      <trkpt lat="50.7112" lon="2.996">
        <ele>329</ele>
        <time>2017-12-30T11:08:53Z</time>
      </trkpt>
      <trkpt lat="50.71108" lon="2.99629">
        <ele>329</ele>
        <time>2017-12-30T11:08:57Z</time>
      </trkpt>
      <trkpt lat="50.71097" lon="2.9966">
        <ele>328</ele>
        <time>2017-12-30T11:09:01Z</time>
      </trkpt>
      <trkpt lat="50.71086" lon="2.99691">
        <ele>328</ele>
        <time>2017-12-30T11:09:05Z</time>
      </trkpt>
      <trkpt lat="50.71074" lon="2.99723">
        <ele>328</ele>
        <time>2017-12-30T11:09:09Z</time>
      </trkpt>
      <trkpt lat="50.71061" lon="2.99756">
        <ele>328</ele>
        <time>2017-12-30T11:09:13Z</time>
      </trkpt>
      <trkpt lat="50.71049" lon="2.99789">
        <ele>328</ele>
        <time>2017-12-30T11:09:17Z</time>
      </trkpt>
      <trkpt lat="50.71042" lon="2.99826">
        <ele>327</ele>
        <time>2017-12-30T11:09:21Z</time>
      </trkpt>
      <trkpt lat="50.71034" lon="2.99862">
        <ele>328</ele>
        <time>2017-12-30T11:09:25Z</time>
      </trkpt>
      <trkpt lat="50.71027" lon="2.99898">
        <ele>328</ele>
        <time>2017-12-30T11:09:29Z</time>
      </trkpt>
      <trkpt lat="50.71022" lon="2.99934">
        <ele>328</ele>
        <time>2017-12-30T11:09:33Z</time>
      </trkpt>
      <trkpt lat="50.71015" lon="2.9997">
        <ele>328</ele>
        <time>2017-12-30T11:09:37Z</time>
      </trkpt>
      <trkpt lat="50.71001" lon="3.00001">
        <ele>329</ele>
        <time>2017-12-30T11:09:41Z</time>
      </trkpt>
      <trkpt lat="50.70991" lon="3.00036">
        <ele>329</ele>
        <time>2017-12-30T11:09:45Z</time>
      </trkpt>
      <trkpt lat="50.70988" lon="3.00073">
        <ele>328</ele>
        <time>2017-12-30T11:09:49Z</time>
      </trkpt>
      <trkpt lat="50.70983" lon="3.00111">
        <ele>329</ele>
        <time>2017-12-30T11:09:53Z</time>
      </trkpt>
      <trkpt lat="50.70979" lon="3.00149">
        <ele>328</ele>
        <time>2017-12-30T11:09:57Z</time>
      </trkpt>
      <trkpt lat="50.70974" lon="3.00188">
        <ele>328</ele>
        <time>2017-12-30T11:10:01Z</time>
      </trkpt>
      <trkpt lat="50.7097" lon="3.00225">
        <ele>329</ele>
        <time>2017-12-30T11:10:05Z</time>
      </trkpt>
      <trkpt lat="50.70965" lon="3.00262">
        <ele>328</ele>
        <time>2017-12-30T11:10:09Z</time>
      </trkpt>
      <trkpt lat="50.70961" lon="3.00301">
        <ele>328</ele>
        <time>2017-12-30T11:10:13Z</time>
      </trkpt>
      <trkpt lat="50.70956" lon="3.0034">
        <ele>329</ele>
        <time>2017-12-30T11:10:17Z</time>
      </trkpt>
      <trkpt lat="50.70949" lon="3.00378">
        <ele>329</ele>
        <time>2017-12-30T11:10:21Z</time>
      </trkpt>
      <trkpt lat="50.70943" lon="3.00418">
        <ele>329</ele>
        <time>2017-12-30T11:10:25Z</time>
      </trkpt>
      <trkpt lat="50.70934" lon="3.00456">
        <ele>328</ele>
        <time>2017-12-30T11:10:29Z</time>
      </trkpt>
      <trkpt lat="50.70926" lon="3.00495">
        <ele>328</ele>
        <time>2017-12-30T11:10:33Z</time>
      </trkpt>
      <trkpt lat="50.70915" lon="3.00532">
        <ele>328</ele>
        <time>2017-12-30T11:10:37Z</time>
      </trkpt>
      <trkpt lat="50.70904" lon="3.00566">
        <ele>328</ele>
        <time>2017-12-30T11:10:41Z</time>
      </trkpt>
      <trkpt lat="50.70892" lon="3.006">
        <ele>327</ele>
        <time>2017-12-30T11:10:45Z</time>
      </trkpt>
      <trkpt lat="50.70881" lon="3.00632">
        <ele>327</ele>
        <time>2017-12-30T11:10:49Z</time>
      </trkpt>
      <trkpt lat="50.70868" lon="3.00663">
        <ele>328</ele>
        <time>2017-12-30T11:10:53Z</time>
      </trkpt>
      <trkpt lat="50.70853" lon="3.00696">
        <ele>327</ele>
        <time>2017-12-30T11:10:57Z</time>
      </trkpt>
      <trkpt lat="50.70838" lon="3.0073">
        <ele>327</ele>
        <time>2017-12-30T11:11:01Z</time>
      </trkpt>
      <trkpt lat="50.70822" lon="3.00762">
        <ele>328</ele>
        <time>2017-12-30T11:11:05Z</time>
      </trkpt>
      <trkpt lat="50.70805" lon="3.00793">
        <ele>328</ele>
        <time>2017-12-30T11:11:09Z</time>
      </trkpt>
      <trkpt lat="50.70787" lon="3.00822">
        <ele>328</ele>
        <time>2017-12-30T11:11:13Z</time>
      </trkpt>
      <trkpt lat="50.70769" lon="3.00851">
        <ele>328</ele>
        <time>2017-12-30T11:11:17Z</time>
      </trkpt>
      <trkpt lat="50.70751" lon="3.00877">
        <ele>328</ele>
        <time>2017-12-30T11:11:21Z</time>
      </trkpt>
      <trkpt lat="50.70731" lon="3.00901">
        <ele>327</ele>
        <time>2017-12-30T11:11:25Z</time>
      </trkpt>
      <trkpt lat="50.70712" lon="3.00925">
        <ele>328</ele>
        <time>2017-12-30T11:11:29Z</time>
      </trkpt>
      <trkpt lat="50.70692" lon="3.0095">
        <ele>329</ele>
        <time>2017-12-30T11:11:33Z</time>
      </trkpt>
      <trkpt lat="50.70672" lon="3.00975">
        <ele>328</ele>
        <time>2017-12-30T11:11:37Z</time>
      </trkpt>
      <trkpt lat="50.70653" lon="3.00999">
        <ele>328</ele>
        <time>2017-12-30T11:11:41Z</time>
      </trkpt>
      <trkpt lat="50.70633" lon="3.01022">
        <ele>328</ele>
        <time>2017-12-30T11:11:45Z</time>
      </trkpt>
      <trkpt lat="50.70614" lon="3.01046">
        <ele>327</ele>
        <time>2017-12-30T11:11:49Z</time>
      </trkpt>
      <trkpt lat="50.70595" lon="3.01065">
        <ele>328</ele>
        <time>2017-12-30T11:11:53Z</time>
      </trkpt>
      <trkpt lat="50.7058" lon="3.01084">
        <ele>330</ele>
        <time>2017-12-30T11:11:57Z</time>
      </trkpt>
      <trkpt lat="50.70565" lon="3.01106">
        <ele>329</ele>
        <time>2017-12-30T11:12:01Z</time>
      </trkpt>
      <trkpt lat="50.70548" lon="3.01124">
        <ele>330</ele>
        <time>2017-12-30T11:12:05Z</time>
      </trkpt>
      <trkpt lat="50.70532" lon="3.01141">
        <ele>329</ele>
        <time>2017-12-30T11:12:09Z</time>
      </trkpt>
      <trkpt lat="50.70513" lon="3.01159">
        <ele>329</ele>
        <time>2017-12-30T11:12:13Z</time>
      </trkpt>
      <trkpt lat="50.70494" lon="3.01174">
        <ele>328</ele>
        <time>2017-12-30T11:12:17Z</time>
      </trkpt>
      <trkpt lat="50.70475" lon="3.01189">
        <ele>329</ele>
        <time>2017-12-30T11:12:21Z</time>
      </trkpt>
      <trkpt lat="50.70454" lon="3.01204">
        <ele>329</ele>
        <time>2017-12-30T11:12:25Z</time>
      </trkpt>
      <trkpt lat="50.70435" lon="3.01218">
        <ele>328</ele>
        <time>2017-12-30T11:12:29Z</time>
      </trkpt>
      <trkpt lat="50.70417" lon="3.01238">
        <ele>326</ele>
        <time>2017-12-30T11:12:33Z</time>
      </trkpt>
      <trkpt lat="50.70399" lon="3.01261">
        <ele>325</ele>
        <time>2017-12-30T11:12:37Z</time>
      </trkpt>
      <trkpt lat="50.70388" lon="3.01293">
        <ele>327</ele>
        <time>2017-12-30T11:12:41Z</time>
      </trkpt>
      <trkpt lat="50.70372" lon="3.0132">
        <ele>329</ele>
        <time>2017-12-30T11:12:45Z</time>
      </trkpt>
      <trkpt lat="50.70353" lon="3.01345">
        <ele>328</ele>
        <time>2017-12-30T11:12:49Z</time>
      </trkpt>
      <trkpt lat="50.70336" lon="3.01375">
        <ele>328</ele>
        <time>2017-12-30T11:12:53Z</time>
      </trkpt>
      <trkpt lat="50.70321" lon="3.01406">
        <ele>328</ele>
        <time>2017-12-30T11:12:57Z</time>
      </trkpt>
      <trkpt lat="50.70304" lon="3.01433">
        <ele>329</ele>
        <time>2017-12-30T11:13:01Z</time>
      </trkpt>
      <trkpt lat="50.70285" lon="3.01458">
        <ele>329</ele>
        <time>2017-12-30T11:13:05Z</time>
      </trkpt>
      <trkpt lat="50.70266" lon="3.01481">
        <ele>331</ele>
        <time>2017-12-30T11:13:09Z</time>
      </trkpt>
      <trkpt lat="50.70247" lon="3.01506">
        <ele>331</ele>
        <time>2017-12-30T11:13:13Z</time>
      </trkpt>
      <trkpt lat="50.70228" lon="3.0153">
        <ele>330</ele>
        <time>2017-12-30T11:13:17Z</time>
      </trkpt>
      <trkpt lat="50.70208" lon="3.01554">
        <ele>330</ele>
        <time>2017-12-30T11:13:21Z</time>
      </trkpt>
      <trkpt lat="50.70188" lon="3.01577">
        <ele>331</ele>
        <time>2017-12-30T11:13:25Z</time>
      </trkpt>
      <trkpt lat="50.70166" lon="3.01594">
        <ele>330</ele>
        <time>2017-12-30T11:13:29Z</time>
      </trkpt>
      <trkpt lat="50.70145" lon="3.01614">
        <ele>330</ele>
        <time>2017-12-30T11:13:33Z</time>
      </trkpt>
      <trkpt lat="50.70126" lon="3.01639">
        <ele>329</ele>
        <time>2017-12-30T11:13:37Z</time>
      </trkpt>
      <trkpt lat="50.70105" lon="3.01663">
        <ele>330</ele>
        <time>2017-12-30T11:13:41Z</time>
      </trkpt>
      <trkpt lat="50.70085" lon="3.01687">
        <ele>330</ele>
        <time>2017-12-30T11:13:45Z</time>
      </trkpt>
      <trkpt lat="50.70064" lon="3.01711">
        <ele>330</ele>
        <time>2017-12-30T11:13:49Z</time>
      </trkpt>
      <trkpt lat="50.70016" lon="3.0177">
        <ele>325</ele>
        <time>2017-12-30T11:20:06Z</time>
      </trkpt>
      <trkpt lat="50.69998" lon="3.01789">
        <ele>326</ele>
        <time>2017-12-30T11:20:10Z</time>
      </trkpt>
      <trkpt lat="50.69979" lon="3.01811">
        <ele>325</ele>
        <time>2017-12-30T11:20:14Z</time>
      </trkpt>
      <trkpt lat="50.69958" lon="3.01834">
        <ele>327</ele>
        <time>2017-12-30T11:20:18Z</time>
      </trkpt>
      <trkpt lat="50.69936" lon="3.01858">
        <ele>327</ele>
        <time>2017-12-30T11:20:22Z</time>
      </trkpt>
      <trkpt lat="50.69916" lon="3.01883">
        <ele>327</ele>
        <time>2017-12-30T11:20:26Z</time>
      </trkpt>
      <trkpt lat="50.69896" lon="3.01906">
        <ele>326</ele>
        <time>2017-12-30T11:20:30Z</time>
      </trkpt>
      <trkpt lat="50.69877" lon="3.01931">
        <ele>326</ele>
        <time>2017-12-30T11:20:34Z</time>
      </trkpt>
      <trkpt lat="50.69858" lon="3.01954">
        <ele>327</ele>
        <time>2017-12-30T11:20:38Z</time>
      </trkpt>
      <trkpt lat="50.6984" lon="3.01976">
        <ele>327</ele>
        <time>2017-12-30T11:20:42Z</time>
      </trkpt>
      <trkpt lat="50.69822" lon="3.02004">
        <ele>325</ele>
        <time>2017-12-30T11:20:46Z</time>
      </trkpt>
      <trkpt lat="50.69805" lon="3.02033">
        <ele>327</ele>
        <time>2017-12-30T11:20:50Z</time>
      </trkpt>
      <trkpt lat="50.69789" lon="3.02063">
        <ele>326</ele>
        <time>2017-12-30T11:20:54Z</time>
      </trkpt>
      <trkpt lat="50.69773" lon="3.02094">
        <ele>326</ele>
        <time>2017-12-30T11:20:58Z</time>
      </trkpt>
      <trkpt lat="50.69759" lon="3.02126">
        <ele>326</ele>
        <time>2017-12-30T11:21:02Z</time>
      </trkpt>
      <trkpt lat="50.69743" lon="3.02158">
        <ele>327</ele>
        <time>2017-12-30T11:21:06Z</time>
      </trkpt>
      <trkpt lat="50.6973" lon="3.02193">
        <ele>326</ele>
        <time>2017-12-30T11:21:10Z</time>
      </trkpt>
      <trkpt lat="50.69717" lon="3.02228">
        <ele>326</ele>
        <time>2017-12-30T11:21:14Z</time>
      </trkpt>
      <trkpt lat="50.69707" lon="3.02263">
        <ele>326</ele>
        <time>2017-12-30T11:21:18Z</time>
      </trkpt>
      <trkpt lat="50.69697" lon="3.02299">
        <ele>326</ele>
        <time>2017-12-30T11:21:22Z</time>
      </trkpt>
      <trkpt lat="50.69687" lon="3.02337">
        <ele>327</ele>
        <time>2017-12-30T11:21:26Z</time>
      </trkpt>
      <trkpt lat="50.69678" lon="3.02372">
        <ele>326</ele>
        <time>2017-12-30T11:21:30Z</time>
      </trkpt>
      <trkpt lat="50.69668" lon="3.02409">
        <ele>327</ele>
        <time>2017-12-30T11:21:34Z</time>
      </trkpt>
      <trkpt lat="50.6966" lon="3.02447">
        <ele>327</ele>
        <time>2017-12-30T11:21:38Z</time>
      </trkpt>
      <trkpt lat="50.69653" lon="3.02487">
        <ele>326</ele>
        <time>2017-12-30T11:21:42Z</time>
      </trkpt>
      <trkpt lat="50.69645" lon="3.0253">
        <ele>327</ele>
        <time>2017-12-30T11:21:46Z</time>
      </trkpt>
      <trkpt lat="50.69637" lon="3.02573">
        <ele>326</ele>
        <time>2017-12-30T11:21:50Z</time>
      </trkpt>
      <trkpt lat="50.6963" lon="3.02615">
        <ele>326</ele>
        <time>2017-12-30T11:21:54Z</time>
      </trkpt>
      <trkpt lat="50.69622" lon="3.02654">
        <ele>326</ele>
        <time>2017-12-30T11:21:58Z</time>
      </trkpt>
      <trkpt lat="50.69614" lon="3.02693">
        <ele>325</ele>
        <time>2017-12-30T11:22:02Z</time>
      </trkpt>
      <trkpt lat="50.69605" lon="3.02732">
        <ele>326</ele>
        <time>2017-12-30T11:22:06Z</time>
      </trkpt>
      <trkpt lat="50.69597" lon="3.02771">
        <ele>325</ele>
        <time>2017-12-30T11:22:10Z</time>
      </trkpt>
      <trkpt lat="50.69588" lon="3.02809">
        <ele>326</ele>
        <time>2017-12-30T11:22:14Z</time>
      </trkpt>
      <trkpt lat="50.69578" lon="3.02847">
        <ele>326</ele>
        <time>2017-12-30T11:22:18Z</time>
      </trkpt>
      <trkpt lat="50.69568" lon="3.02883">
        <ele>326</ele>
        <time>2017-12-30T11:22:22Z</time>
      </trkpt>
      <trkpt lat="50.69558" lon="3.02916">
        <ele>326</ele>
        <time>2017-12-30T11:22:26Z</time>
      </trkpt>
      <trkpt lat="50.69548" lon="3.02952">
        <ele>327</ele>
        <time>2017-12-30T11:22:30Z</time>
      </trkpt>
      <trkpt lat="50.69536" lon="3.02989">
        <ele>327</ele>
        <time>2017-12-30T11:22:34Z</time>
      </trkpt>
      <trkpt lat="50.69524" lon="3.03026">
        <ele>327</ele>
        <time>2017-12-30T11:22:38Z</time>
      </trkpt>
      <trkpt lat="50.69512" lon="3.03063">
        <ele>327</ele>
        <time>2017-12-30T11:22:42Z</time>
      </trkpt>
      <trkpt lat="50.695" lon="3.03099">
        <ele>327</ele>
        <time>2017-12-30T11:22:46Z</time>
      </trkpt>
      <trkpt lat="50.69488" lon="3.03137">
        <ele>326</ele>
        <time>2017-12-30T11:22:50Z</time>
      </trkpt>
      <trkpt lat="50.69478" lon="3.03176">
        <ele>326</ele>
        <time>2017-12-30T11:22:54Z</time>
      </trkpt>
      <trkpt lat="50.69464" lon="3.03214">
        <ele>327</ele>
        <time>2017-12-30T11:22:58Z</time>
      </trkpt>
      <trkpt lat="50.69451" lon="3.03253">
        <ele>326</ele>
        <time>2017-12-30T11:23:02Z</time>
      </trkpt>
      <trkpt lat="50.69439" lon="3.0329">
        <ele>326</ele>
        <time>2017-12-30T11:23:06Z</time>
      </trkpt>
      <trkpt lat="50.69426" lon="3.03325">
        <ele>327</ele>
        <time>2017-12-30T11:23:10Z</time>
      </trkpt>
      <trkpt lat="50.69415" lon="3.0336">
        <ele>327</ele>
        <time>2017-12-30T11:23:14Z</time>
      </trkpt>
      <trkpt lat="50.69403" lon="3.03395">
        <ele>326</ele>
        <time>2017-12-30T11:23:18Z</time>
      </trkpt>
      <trkpt lat="50.69392" lon="3.0343">
        <ele>327</ele>
        <time>2017-12-30T11:23:22Z</time>
      </trkpt>
      <trkpt lat="50.69381" lon="3.03465">
        <ele>328</ele>
        <time>2017-12-30T11:23:26Z</time>
      </trkpt>
      <trkpt lat="50.6937" lon="3.035">
        <ele>328</ele>
        <time>2017-12-30T11:23:30Z</time>
      </trkpt>
      <trkpt lat="50.69361" lon="3.03533">
        <ele>328</ele>
        <time>2017-12-30T11:23:34Z</time>
      </trkpt>
      <trkpt lat="50.69353" lon="3.03568">
        <ele>328</ele>
        <time>2017-12-30T11:23:38Z</time>
      </trkpt>
      <trkpt lat="50.69344" lon="3.03606">
        <ele>328</ele>
        <time>2017-12-30T11:23:42Z</time>
      </trkpt>
      <trkpt lat="50.69334" lon="3.03643">
        <ele>328</ele>
        <time>2017-12-30T11:23:46Z</time>
      </trkpt>
      <trkpt lat="50.69326" lon="3.03679">
        <ele>327</ele>
        <time>2017-12-30T11:23:50Z</time>
      </trkpt>
      <trkpt lat="50.69317" lon="3.03717">
        <ele>327</ele>
        <time>2017-12-30T11:23:54Z</time>
      </trkpt>
      <trkpt lat="50.69309" lon="3.03754">
        <ele>327</ele>
        <time>2017-12-30T11:23:58Z</time>
      </trkpt>
      <trkpt lat="50.69303" lon="3.03791">
        <ele>326</ele>
        <time>2017-12-30T11:24:02Z</time>
      </trkpt>
      <trkpt lat="50.69296" lon="3.03828">
        <ele>326</ele>
        <time>2017-12-30T11:24:06Z</time>
      </trkpt>
      <trkpt lat="50.69288" lon="3.03864">
        <ele>326</ele>
        <time>2017-12-30T11:24:10Z</time>
      </trkpt>
      <trkpt lat="50.69281" lon="3.03902">
        <ele>326</ele>
        <time>2017-12-30T11:24:14Z</time>
      </trkpt>
      <trkpt lat="50.69275" lon="3.03936">
        <ele>326</ele>
        <time>2017-12-30T11:24:18Z</time>
      </trkpt>
      <trkpt lat="50.6927" lon="3.03964">
        <ele>326</ele>
        <time>2017-12-30T11:24:22Z</time>
      </trkpt>
      <trkpt lat="50.69268" lon="3.03972">
        <ele>326</ele>
        <time>2017-12-30T11:24:26Z</time>
      </trkpt>
      <trkpt lat="50.69266" lon="3.03976">
        <ele>326</ele>
        <time>2017-12-30T11:24:34Z</time>
      </trkpt>
      <trkpt lat="50.69266" lon="3.03981">
        <ele>326</ele>
        <time>2017-12-30T11:24:38Z</time>
      </trkpt>
      <trkpt lat="50.69263" lon="3.03995">
        <ele>326</ele>
        <time>2017-12-30T11:24:42Z</time>
      </trkpt>
      <trkpt lat="50.6926" lon="3.04021">
        <ele>326</ele>
        <time>2017-12-30T11:24:46Z</time>
      </trkpt>
      <trkpt lat="50.69254" lon="3.04054">
        <ele>326</ele>
        <time>2017-12-30T11:24:50Z</time>
      </trkpt>
      <trkpt lat="50.6925" lon="3.0409">
        <ele>326</ele>
        <time>2017-12-30T11:24:54Z</time>
      </trkpt>
      <trkpt lat="50.69246" lon="3.04127">
        <ele>327</ele>
        <time>2017-12-30T11:24:58Z</time>
      </trkpt>
      <trkpt lat="50.69242" lon="3.04164">
        <ele>326</ele>
        <time>2017-12-30T11:25:02Z</time>
      </trkpt>
      <trkpt lat="50.69238" lon="3.04201">
        <ele>326</ele>
        <time>2017-12-30T11:25:06Z</time>
      </trkpt>
      <trkpt lat="50.69236" lon="3.04239">
        <ele>326</ele>
        <time>2017-12-30T11:25:10Z</time>
      </trkpt>
      <trkpt lat="50.69234" lon="3.04277">
        <ele>325</ele>
        <time>2017-12-30T11:25:14Z</time>
      </trkpt>
      <trkpt lat="50.69232" lon="3.04314">
        <ele>327</ele>
        <time>2017-12-30T11:25:18Z</time>
      </trkpt>
      <trkpt lat="50.69229" lon="3.04351">
        <ele>327</ele>
        <time>2017-12-30T11:25:22Z</time>
      </trkpt>
      <trkpt lat="50.69226" lon="3.04387">
        <ele>327</ele>
        <time>2017-12-30T11:25:26Z</time>
      </trkpt>
      <trkpt lat="50.69221" lon="3.04423">
        <ele>328</ele>
        <time>2017-12-30T11:25:30Z</time>
      </trkpt>
      <trkpt lat="50.69217" lon="3.04459">
        <ele>328</ele>
        <time>2017-12-30T11:25:34Z</time>
      </trkpt>
      <trkpt lat="50.69215" lon="3.04495">
        <ele>328</ele>
        <time>2017-12-30T11:25:38Z</time>
      </trkpt>
      <trkpt lat="50.69212" lon="3.04531">
        <ele>327</ele>
        <time>2017-12-30T11:25:42Z</time>
      </trkpt>
      <trkpt lat="50.69205" lon="3.04567">
        <ele>328</ele>
        <time>2017-12-30T11:25:46Z</time>
      </trkpt>
      <trkpt lat="50.69196" lon="3.04602">
        <ele>327</ele>
        <time>2017-12-30T11:25:50Z</time>
      </trkpt>
      <trkpt lat="50.69189" lon="3.04638">
        <ele>327</ele>
        <time>2017-12-30T11:25:54Z</time>
      </trkpt>
      <trkpt lat="50.69182" lon="3.04675">
        <ele>328</ele>
        <time>2017-12-30T11:25:58Z</time>
      </trkpt>
      <trkpt lat="50.69175" lon="3.04712">
        <ele>328</ele>
        <time>2017-12-30T11:26:02Z</time>
      </trkpt>
      <trkpt lat="50.69166" lon="3.0475">
        <ele>327</ele>
        <time>2017-12-30T11:26:06Z</time>
      </trkpt>
      <trkpt lat="50.69156" lon="3.04788">
        <ele>327</ele>
        <time>2017-12-30T11:26:10Z</time>
      </trkpt>
      <trkpt lat="50.69146" lon="3.04826">
        <ele>327</ele>
        <time>2017-12-30T11:26:14Z</time>
      </trkpt>
      <trkpt lat="50.69141" lon="3.04866">
        <ele>328</ele>
        <time>2017-12-30T11:26:18Z</time>
      </trkpt>
      <trkpt lat="50.6913" lon="3.04902">
        <ele>327</ele>
        <time>2017-12-30T11:26:22Z</time>
      </trkpt>
      <trkpt lat="50.69117" lon="3.04936">
        <ele>327</ele>
        <time>2017-12-30T11:26:26Z</time>
      </trkpt>
      <trkpt lat="50.69102" lon="3.0497">
        <ele>327</ele>
        <time>2017-12-30T11:26:30Z</time>
      </trkpt>
      <trkpt lat="50.69086" lon="3.05001">
        <ele>328</ele>
        <time>2017-12-30T11:26:34Z</time>
      </trkpt>
      <trkpt lat="50.69068" lon="3.05028">
        <ele>327</ele>
        <time>2017-12-30T11:26:38Z</time>
      </trkpt>
      <trkpt lat="50.69049" lon="3.05054">
        <ele>327</ele>
        <time>2017-12-30T11:26:42Z</time>
      </trkpt>
      <trkpt lat="50.6903" lon="3.0508">
        <ele>327</ele>
        <time>2017-12-30T11:26:46Z</time>
      </trkpt>
      <trkpt lat="50.69007" lon="3.05104">
        <ele>326</ele>
        <time>2017-12-30T11:26:50Z</time>
      </trkpt>
      <trkpt lat="50.68986" lon="3.05126">
        <ele>327</ele>
        <time>2017-12-30T11:26:54Z</time>
      </trkpt>
      <trkpt lat="50.68965" lon="3.05141">
        <ele>327</ele>
        <time>2017-12-30T11:26:58Z</time>
      </trkpt>
      <trkpt lat="50.68947" lon="3.05156">
        <ele>327</ele>
        <time>2017-12-30T11:27:02Z</time>
      </trkpt>
      <trkpt lat="50.68931" lon="3.05176">
        <ele>327</ele>
        <time>2017-12-30T11:27:06Z</time>
      </trkpt>
      <trkpt lat="50.68912" lon="3.05197">
        <ele>327</ele>
        <time>2017-12-30T11:27:10Z</time>
      </trkpt>
      <trkpt lat="50.68892" lon="3.05219">
        <ele>329</ele>
        <time>2017-12-30T11:27:14Z</time>
      </trkpt>
      <trkpt lat="50.68873" lon="3.05241">
        <ele>330</ele>
        <time>2017-12-30T11:27:18Z</time>
      </trkpt>
      <trkpt lat="50.68854" lon="3.05262">
        <ele>328</ele>
        <time>2017-12-30T11:27:22Z</time>
      </trkpt>
      <trkpt lat="50.68835" lon="3.05284">
        <ele>326</ele>
        <time>2017-12-30T11:27:26Z</time>
      </trkpt>
      <trkpt lat="50.68816" lon="3.05307">
        <ele>327</ele>
        <time>2017-12-30T11:27:30Z</time>
      </trkpt>
      <trkpt lat="50.68796" lon="3.05327">
        <ele>327</ele>
        <time>2017-12-30T11:27:34Z</time>
      </trkpt>
      <trkpt lat="50.68778" lon="3.05345">
        <ele>327</ele>
        <time>2017-12-30T11:27:38Z</time>
      </trkpt>
      <trkpt lat="50.68761" lon="3.05359">
        <ele>327</ele>
        <time>2017-12-30T11:27:42Z</time>
      </trkpt>
      <trkpt lat="50.6875" lon="3.05377">
        <ele>327</ele>
        <time>2017-12-30T11:27:46Z</time>
      </trkpt>
      <trkpt lat="50.68744" lon="3.05396">
        <ele>327</ele>
        <time>2017-12-30T11:27:50Z</time>
      </trkpt>
      <trkpt lat="50.68726" lon="3.05408">
        <ele>327</ele>
        <time>2017-12-30T11:27:54Z</time>
      </trkpt>
      <trkpt lat="50.68708" lon="3.05423">
        <ele>326</ele>
        <time>2017-12-30T11:27:58Z</time>
      </trkpt>
      <trkpt lat="50.68691" lon="3.05448">
        <ele>327</ele>
        <time>2017-12-30T11:28:02Z</time>
      </trkpt>
      <trkpt lat="50.68679" lon="3.05479">
        <ele>326</ele>
        <time>2017-12-30T11:28:06Z</time>
      </trkpt>
      <trkpt lat="50.68668" lon="3.0551">
        <ele>327</ele>
        <time>2017-12-30T11:28:10Z</time>
      </trkpt>
      <trkpt lat="50.68655" lon="3.05535">
        <ele>326</ele>
        <time>2017-12-30T11:28:14Z</time>
      </trkpt>
      <trkpt lat="50.6864" lon="3.05559">
        <ele>325</ele>
        <time>2017-12-30T11:28:18Z</time>
      </trkpt>
      <trkpt lat="50.68627" lon="3.05588">
        <ele>325</ele>
        <time>2017-12-30T11:28:22Z</time>
      </trkpt>
      <trkpt lat="50.68611" lon="3.05614">
        <ele>327</ele>
        <time>2017-12-30T11:28:26Z</time>
      </trkpt>
      <trkpt lat="50.68592" lon="3.05641">
        <ele>326</ele>
        <time>2017-12-30T11:28:30Z</time>
      </trkpt>
      <trkpt lat="50.68573" lon="3.05667">
        <ele>325</ele>
        <time>2017-12-30T11:28:34Z</time>
      </trkpt>
      <trkpt lat="50.68553" lon="3.05692">
        <ele>325</ele>
        <time>2017-12-30T11:28:38Z</time>
      </trkpt>
      <trkpt lat="50.68532" lon="3.05715">
        <ele>326</ele>
        <time>2017-12-30T11:28:42Z</time>
      </trkpt>
      <trkpt lat="50.68511" lon="3.05736">
        <ele>326</ele>
        <time>2017-12-30T11:28:46Z</time>
      </trkpt>
      <trkpt lat="50.6849" lon="3.05758">
        <ele>326</ele>
        <time>2017-12-30T11:28:50Z</time>
      </trkpt>
      <trkpt lat="50.68468" lon="3.05777">
        <ele>326</ele>
        <time>2017-12-30T11:28:54Z</time>
      </trkpt>
      <trkpt lat="50.68446" lon="3.05795">
        <ele>325</ele>
        <time>2017-12-30T11:28:58Z</time>
      </trkpt>
      <trkpt lat="50.68423" lon="3.05812">
        <ele>325</ele>
        <time>2017-12-30T11:29:02Z</time>
      </trkpt>
      <trkpt lat="50.684" lon="3.05827">
        <ele>325</ele>
        <time>2017-12-30T11:29:06Z</time>
      </trkpt>
      <trkpt lat="50.68377" lon="3.05843">
        <ele>325</ele>
        <time>2017-12-30T11:29:10Z</time>
      </trkpt>
      <trkpt lat="50.68355" lon="3.05854">
        <ele>325</ele>
        <time>2017-12-30T11:29:14Z</time>
      </trkpt>
      <trkpt lat="50.68332" lon="3.05863">
        <ele>325</ele>
        <time>2017-12-30T11:29:18Z</time>
      </trkpt>
      <trkpt lat="50.6831" lon="3.05873">
        <ele>325</ele>
        <time>2017-12-30T11:29:22Z</time>
      </trkpt>
      <trkpt lat="50.68287" lon="3.05882">
        <ele>325</ele>
        <time>2017-12-30T11:29:26Z</time>
      </trkpt>
      <trkpt lat="50.68267" lon="3.05887">
        <ele>324</ele>
        <time>2017-12-30T11:29:30Z</time>
      </trkpt>
      <trkpt lat="50.6825" lon="3.05891">
        <ele>325</ele>
        <time>2017-12-30T11:29:34Z</time>
      </trkpt>
      <trkpt lat="50.68227" lon="3.05896">
        <ele>327</ele>
        <time>2017-12-30T11:29:38Z</time>
      </trkpt>
      <trkpt lat="50.68204" lon="3.05901">
        <ele>327</ele>
        <time>2017-12-30T11:29:42Z</time>
      </trkpt>
      <trkpt lat="50.68181" lon="3.05904">
        <ele>327</ele>
        <time>2017-12-30T11:29:46Z</time>
      </trkpt>
      <trkpt lat="50.68159" lon="3.05906">
        <ele>327</ele>
        <time>2017-12-30T11:29:50Z</time>
      </trkpt>
      <trkpt lat="50.68136" lon="3.05906">
        <ele>327</ele>
        <time>2017-12-30T11:29:54Z</time>
      </trkpt>
      <trkpt lat="50.68115" lon="3.05897">
        <ele>327</ele>
        <time>2017-12-30T11:29:58Z</time>
      </trkpt>
      <trkpt lat="50.68097" lon="3.05886">
        <ele>327</ele>
        <time>2017-12-30T11:30:02Z</time>
      </trkpt>
      <trkpt lat="50.68077" lon="3.05893">
        <ele>327</ele>
        <time>2017-12-30T11:30:06Z</time>
      </trkpt>
      <trkpt lat="50.68055" lon="3.05893">
        <ele>327</ele>
        <time>2017-12-30T11:30:10Z</time>
      </trkpt>
      <trkpt lat="50.68032" lon="3.05887">
        <ele>327</ele>
        <time>2017-12-30T11:30:14Z</time>
      </trkpt>
      <trkpt lat="50.68011" lon="3.05882">
        <ele>326</ele>
        <time>2017-12-30T11:30:18Z</time>
      </trkpt>
      <trkpt lat="50.67987" lon="3.05877">
        <ele>325</ele>
        <time>2017-12-30T11:30:22Z</time>
      </trkpt>
      <trkpt lat="50.67968" lon="3.05862">
        <ele>325</ele>
        <time>2017-12-30T11:30:26Z</time>
      </trkpt>
      <trkpt lat="50.67955" lon="3.05842">
        <ele>327</ele>
        <time>2017-12-30T11:30:30Z</time>
      </trkpt>
      <trkpt lat="50.67933" lon="3.05846">
        <ele>327</ele>
        <time>2017-12-30T11:30:34Z</time>
      </trkpt>
      <trkpt lat="50.67911" lon="3.05859">
        <ele>325</ele>
        <time>2017-12-30T11:30:38Z</time>
      </trkpt>
      <trkpt lat="50.67888" lon="3.05867">
        <ele>325</ele>
        <time>2017-12-30T11:30:42Z</time>
      </trkpt>
      <trkpt lat="50.67865" lon="3.05876">
        <ele>325</ele>
        <time>2017-12-30T11:30:46Z</time>
      </trkpt>
      <trkpt lat="50.67843" lon="3.05884">
        <ele>326</ele>
        <time>2017-12-30T11:30:50Z</time>
      </trkpt>
      <trkpt lat="50.6782" lon="3.05892">
        <ele>326</ele>
        <time>2017-12-30T11:30:54Z</time>
      </trkpt>
      <trkpt lat="50.67797" lon="3.059">
        <ele>326</ele>
        <time>2017-12-30T11:30:58Z</time>
      </trkpt>
      <trkpt lat="50.67774" lon="3.05909">
        <ele>326</ele>
        <time>2017-12-30T11:31:02Z</time>
      </trkpt>
      <trkpt lat="50.67751" lon="3.05917">
        <ele>327</ele>
        <time>2017-12-30T11:31:06Z</time>
      </trkpt>
      <trkpt lat="50.67729" lon="3.05925">
        <ele>326</ele>
        <time>2017-12-30T11:31:10Z</time>
      </trkpt>
      <trkpt lat="50.67706" lon="3.0593">
        <ele>327</ele>
        <time>2017-12-30T11:31:14Z</time>
      </trkpt>
      <trkpt lat="50.67685" lon="3.05929">
        <ele>327</ele>
        <time>2017-12-30T11:31:18Z</time>
      </trkpt>
      <trkpt lat="50.67666" lon="3.05919">
        <ele>327</ele>
        <time>2017-12-30T11:31:22Z</time>
      </trkpt>
      <trkpt lat="50.67647" lon="3.05926">
        <ele>328</ele>
        <time>2017-12-30T11:31:26Z</time>
      </trkpt>
      <trkpt lat="50.67628" lon="3.05936">
        <ele>327</ele>
        <time>2017-12-30T11:31:30Z</time>
      </trkpt>
      <trkpt lat="50.67608" lon="3.05944">
        <ele>327</ele>
        <time>2017-12-30T11:31:34Z</time>
      </trkpt>
      <trkpt lat="50.6759" lon="3.05955">
        <ele>327</ele>
        <time>2017-12-30T11:31:38Z</time>
      </trkpt>
      <trkpt lat="50.6757" lon="3.05965">
        <ele>328</ele>
        <time>2017-12-30T11:31:42Z</time>
      </trkpt>
      <trkpt lat="50.67551" lon="3.05975">
        <ele>328</ele>
        <time>2017-12-30T11:31:46Z</time>
      </trkpt>
      <trkpt lat="50.67535" lon="3.05984">
        <ele>327</ele>
        <time>2017-12-30T11:31:50Z</time>
      </trkpt>
      <trkpt lat="50.67524" lon="3.05989">
        <ele>329</ele>
        <time>2017-12-30T11:31:54Z</time>
      </trkpt>
      <trkpt lat="50.67514" lon="3.05985">
        <ele>328</ele>
        <time>2017-12-30T11:31:58Z</time>
      </trkpt>
      <trkpt lat="50.67505" lon="3.05975">
        <ele>329</ele>
        <time>2017-12-30T11:32:02Z</time>
      </trkpt>
      <trkpt lat="50.67496" lon="3.05958">
        <ele>329</ele>
        <time>2017-12-30T11:32:06Z</time>
      </trkpt>
      <trkpt lat="50.67493" lon="3.05965">
        <ele>329</ele>
        <time>2017-12-30T11:32:10Z</time>
      </trkpt>
      <trkpt lat="50.675" lon="3.05982">
        <ele>330</ele>
        <time>2017-12-30T11:32:14Z</time>
      </trkpt>
      <trkpt lat="50.67508" lon="3.06007">
        <ele>331</ele>
        <time>2017-12-30T11:32:18Z</time>
      </trkpt>
      <trkpt lat="50.67517" lon="3.06032">
        <ele>332</ele>
        <time>2017-12-30T11:32:22Z</time>
      </trkpt>
      <trkpt lat="50.67525" lon="3.0606">
        <ele>332</ele>
        <time>2017-12-30T11:32:26Z</time>
      </trkpt>
      <trkpt lat="50.67533" lon="3.06087">
        <ele>332</ele>
        <time>2017-12-30T11:32:30Z</time>
      </trkpt>
      <trkpt lat="50.67547" lon="3.06112">
        <ele>330</ele>
        <time>2017-12-30T11:32:34Z</time>
      </trkpt>
      <trkpt lat="50.6756" lon="3.0614">
        <ele>330</ele>
        <time>2017-12-30T11:32:38Z</time>
      </trkpt>
      <trkpt lat="50.67567" lon="3.06173">
        <ele>329</ele>
        <time>2017-12-30T11:32:42Z</time>
      </trkpt>
      <trkpt lat="50.67567" lon="3.062">
        <ele>328</ele>
        <time>2017-12-30T11:32:46Z</time>
      </trkpt>
      <trkpt lat="50.67571" lon="3.06209">
        <ele>327</ele>
        <time>2017-12-30T11:32:50Z</time>
      </trkpt>
      <trkpt lat="50.6757" lon="3.06201">
        <ele>328</ele>
        <time>2017-12-30T11:32:54Z</time>
      </trkpt>
      <trkpt lat="50.67574" lon="3.06181">
        <ele>329</ele>
        <time>2017-12-30T11:32:58Z</time>
      </trkpt>
      <trkpt lat="50.67576" lon="3.06153">
        <ele>327</ele>
        <time>2017-12-30T11:33:02Z</time>
      </trkpt>
      <trkpt lat="50.67572" lon="3.0613">
        <ele>327</ele>
        <time>2017-12-30T11:33:06Z</time>
      </trkpt>
      <trkpt lat="50.67585" lon="3.06115">
        <ele>326</ele>
        <time>2017-12-30T11:33:10Z</time>
      </trkpt>
      <trkpt lat="50.67605" lon="3.06104">
        <ele>326</ele>
        <time>2017-12-30T11:33:14Z</time>
      </trkpt>
      <trkpt lat="50.67627" lon="3.0609">
        <ele>325</ele>
        <time>2017-12-30T11:33:18Z</time>
      </trkpt>
      <trkpt lat="50.67648" lon="3.0608">
        <ele>326</ele>
        <time>2017-12-30T11:33:22Z</time>
      </trkpt>
      <trkpt lat="50.67668" lon="3.06071">
        <ele>327</ele>
        <time>2017-12-30T11:33:26Z</time>
      </trkpt>
      <trkpt lat="50.67688" lon="3.06061">
        <ele>328</ele>
        <time>2017-12-30T11:33:30Z</time>
      </trkpt>
      <trkpt lat="50.67708" lon="3.06052">
        <ele>326</ele>
        <time>2017-12-30T11:33:34Z</time>
      </trkpt>
      <trkpt lat="50.67729" lon="3.06045">
        <ele>326</ele>
        <time>2017-12-30T11:33:38Z</time>
      </trkpt>
      <trkpt lat="50.67748" lon="3.06037">
        <ele>327</ele>
        <time>2017-12-30T11:33:42Z</time>
      </trkpt>
      <trkpt lat="50.67761" lon="3.06055">
        <ele>327</ele>
        <time>2017-12-30T11:33:46Z</time>
      </trkpt>
      <trkpt lat="50.67768" lon="3.06081">
        <ele>330</ele>
        <time>2017-12-30T11:33:50Z</time>
      </trkpt>
      <trkpt lat="50.67777" lon="3.06111">
        <ele>329</ele>
        <time>2017-12-30T11:33:54Z</time>
      </trkpt>
      <trkpt lat="50.67784" lon="3.06144">
        <ele>330</ele>
        <time>2017-12-30T11:33:58Z</time>
      </trkpt>
      <trkpt lat="50.67793" lon="3.06175">
        <ele>329</ele>
        <time>2017-12-30T11:34:02Z</time>
      </trkpt>
      <trkpt lat="50.67801" lon="3.06208">
        <ele>330</ele>
        <time>2017-12-30T11:34:06Z</time>
      </trkpt>
      <trkpt lat="50.6781" lon="3.0624">
        <ele>329</ele>
        <time>2017-12-30T11:34:10Z</time>
      </trkpt>
      <trkpt lat="50.67818" lon="3.0627">
        <ele>329</ele>
        <time>2017-12-30T11:34:14Z</time>
      </trkpt>
    </trkseg>
  </trk>
</gpx>